GFSCGP_sfc_wetblb_000.txt.gz
Wetbulb
51.66 48.54 46.96 49.70 51.18 50.66 50.80 49.78 49.61 52.82 54.75 53.18 52.96 54.07 55.03 56.47 56.39 56.84 57.74 58.89 59.84 59.78 61.45 62.21 62.67 63.97 64.04 65.36 66.35 67.16 67.21 68.54 67.60 65.16 65.40 66.31 66.47 67.69 66.09 66.62 65.33 64.38 63.99 64.10
48.33 47.03 50.45 52.17 52.16 50.38 50.01 49.31 49.50 52.30 53.97 52.92 52.35 52.25 54.77 55.83 56.44 57.01 56.67 57.50 59.30 60.04 59.95 61.11 62.08 63.38 63.48 64.26 65.81 66.99 67.10 68.04 67.54 67.01 68.12 67.32 67.22 67.16 66.98 67.08 66.05 65.44 64.20 64.91
45.37 48.51 51.87 51.47 50.36 49.16 50.15 49.37 49.64 49.84 52.30 53.48 52.35 50.87 53.08 55.16 56.55 56.82 57.81 58.82 59.62 60.01 59.25 60.19 61.14 62.43 62.94 63.54 65.31 66.18 67.44 67.81 68.17 68.65 67.47 67.38 66.55 65.51 66.87 66.27 64.86 63.98 64.85 65.08
47.03 50.05 50.80 50.43 49.51 51.03 47.98 52.20 51.81 51.00 49.24 45.36 52.25 44.42 51.69 53.05 54.18 55.16 55.45 57.69 58.44 60.04 60.58 60.67 61.14 61.90 62.67 62.70 64.76 66.62 67.21 67.43 67.40 68.07 67.21 66.83 64.71 63.06 65.69 65.46 65.71 63.54 65.05 64.51
45.75 48.22 48.47 50.17 50.33 52.12 50.09 53.22 52.09 51.33 49.41 48.48 48.14 45.97 48.69 53.24 52.06 53.50 54.46 56.15 58.82 60.43 60.51 60.04 61.03 61.98 62.26 63.14 64.33 66.11 67.19 67.16 68.53 68.72 68.08 66.42 65.83 65.47 65.93 65.40 64.65 64.52 63.01 65.07
47.49 51.57 51.71 51.61 53.57 53.06 53.65 51.92 51.52 50.90 48.73 43.69 47.48 46.50 46.33 49.74 51.22 52.39 53.75 55.65 58.94 59.92 60.48 60.86 62.10 62.60 61.76 62.55 63.45 65.85 66.87 66.70 68.02 68.86 67.78 67.64 65.18 64.78 64.55 63.40 63.75 64.06 64.57 63.72
47.24 47.27 51.01 53.24 50.68 53.29 52.01 50.24 43.47 41.73 41.53 41.27 48.50 46.34 48.70 53.50 53.56 52.97 53.29 56.20 59.63 60.51 60.14 60.25 60.65 60.68 60.97 61.03 62.65 64.14 65.77 65.13 66.35 67.48 67.17 66.78 65.65 64.27 64.54 63.88 62.67 63.23 62.87 63.29
43.52 41.89 48.14 52.27 51.35 49.83 50.65 50.29 43.58 38.35 39.09 42.42 49.72 45.20 48.24 53.45 54.76 54.84 55.22 57.56 60.33 60.04 60.20 60.32 60.84 60.77 60.43 61.01 61.93 62.92 64.51 64.07 65.05 65.71 66.77 67.49 65.66 64.88 64.89 63.48 63.19 63.25 63.65 63.61
44.82 44.35 50.66 51.49 53.18 52.91 50.37 47.20 50.69 46.13 47.21 43.94 46.22 49.84 53.42 54.55 53.12 54.18 55.29 58.84 59.87 59.98 60.04 60.42 61.07 61.06 61.11 61.39 62.34 63.97 64.67 64.65 65.52 65.37 66.82 67.02 66.01 65.40 65.80 65.97 64.84 62.73 64.51 64.60
49.68 45.75 50.45 50.76 53.75 53.85 52.48 52.31 45.51 46.11 39.25 38.77 43.73 45.97 47.00 50.54 52.02 55.07 56.86 58.46 60.15 60.14 59.76 60.32 60.63 61.30 61.70 61.98 63.01 64.90 65.51 64.37 65.03 65.83 66.32 66.11 64.81 66.47 66.15 66.80 65.64 63.19 64.40 65.07
51.90 51.17 49.31 51.69 50.71 49.31 49.83 48.76 49.24 49.15 46.49 41.43 40.31 44.34 54.42 53.76 55.88 57.29 57.67 59.55 59.97 59.25 58.91 60.02 60.48 61.63 61.22 61.38 61.65 63.88 64.33 63.39 64.07 64.76 65.52 66.22 65.19 66.75 65.66 65.03 64.89 62.31 63.33 64.10
52.37 51.50 47.61 48.91 52.58 53.89 52.41 50.05 50.63 45.27 44.73 46.62 45.58 45.93 56.21 56.65 56.39 58.14 58.43 59.47 59.28 59.42 59.48 59.79 60.39 61.29 59.60 60.19 61.49 62.47 64.18 62.10 63.17 64.00 64.36 65.97 66.54 66.73 65.48 65.06 65.46 63.43 63.89 64.74
52.55 48.93 46.29 47.71 51.10 52.92 50.29 51.32 51.73 52.43 52.19 47.14 42.97 45.54 56.38 56.09 56.09 57.38 59.12 58.81 58.70 59.22 59.43 59.85 60.18 60.52 58.42 59.56 60.73 61.04 62.78 61.98 61.47 62.27 63.00 65.39 66.44 65.76 65.87 65.03 64.90 64.17 63.06 64.05
54.86 50.97 48.31 45.60 48.34 51.11 49.06 50.10 50.43 49.98 46.82 46.08 46.83 48.59 52.78 53.87 54.50 56.17 59.40 59.35 58.64 59.08 59.52 59.57 59.99 60.33 58.41 59.61 60.11 60.80 62.14 61.92 61.12 61.15 62.54 63.91 66.12 65.76 66.64 66.13 65.53 65.65 64.95 62.97
54.59 47.25 51.21 50.58 50.96 50.66 49.90 49.04 49.22 48.82 49.71 46.47 48.65 49.10 52.26 55.20 55.85 56.96 60.10 59.87 58.57 58.34 58.93 59.79 60.11 60.27 58.52 59.62 60.38 61.05 61.64 61.35 61.05 60.22 61.82 63.35 65.69 67.23 66.57 65.95 65.85 65.26 64.89 64.87
55.72 48.10 51.02 47.98 50.33 50.72 48.64 49.79 49.87 49.82 49.50 49.55 50.14 50.39 55.83 57.29 57.57 57.18 59.26 59.27 58.30 58.53 58.95 59.72 60.85 60.94 58.49 60.01 60.02 60.96 61.64 60.87 60.39 60.36 60.50 62.41 62.98 64.65 65.27 66.20 64.97 64.30 64.22 64.91
53.29 50.48 48.29 46.07 49.07 49.00 46.35 49.49 49.94 50.48 51.68 51.19 48.28 52.62 55.89 55.16 55.64 57.35 59.62 59.77 59.89 59.80 59.84 60.15 61.06 61.25 59.82 60.41 61.19 61.24 61.95 60.88 60.04 59.94 59.66 61.36 62.19 62.57 64.99 65.10 64.93 64.25 64.90 65.69
51.05 51.06 49.89 46.47 48.57 40.08 49.43 53.94 52.56 51.78 52.36 53.18 53.28 54.37 55.65 56.39 57.84 57.25 59.10 60.65 60.62 61.24 60.99 61.05 62.00 62.59 61.66 61.56 61.73 62.27 62.43 60.63 59.08 59.71 58.82 60.08 60.62 61.60 63.45 63.88 64.58 64.99 65.04 64.89
53.96 51.98 47.65 44.80 44.33 47.45 48.58 51.33 51.64 51.26 51.43 54.98 53.12 54.21 55.02 56.69 57.33 58.07 59.57 60.06 62.18 63.00 63.20 62.69 63.41 64.21 62.58 61.90 61.94 62.02 61.91 60.72 59.14 59.19 59.35 58.57 60.16 61.50 62.11 63.15 64.34 65.36 65.85 65.06
52.61 54.09 49.45 46.99 42.56 40.72 49.59 52.64 54.36 54.74 47.84 56.10 56.21 56.09 55.91 56.39 51.17 54.27 60.21 60.41 62.83 63.52 64.40 63.92 64.28 64.31 62.89 62.83 62.62 62.04 61.56 60.86 59.32 59.40 60.29 58.98 59.10 61.86 62.51 64.65 64.98 65.81 66.45 65.41
46.29 48.21 45.71 45.28 46.26 47.04 52.76 53.78 55.43 46.23 49.54 57.41 57.72 57.93 57.98 56.44 57.76 63.14 63.14 62.35 64.40 64.00 64.48 65.61 64.53 63.49 63.12 63.53 62.91 61.72 61.36 61.05 61.00 60.59 61.21 60.66 60.36 62.26 64.05 65.86 65.44 65.80 65.40 64.37
45.06 44.41 45.65 47.17 44.28 41.81 54.54 53.63 50.56 57.31 63.39 60.98 59.33 59.16 58.76 60.19 61.22 61.89 62.42 62.81 63.68 63.33 63.85 65.18 64.32 64.20 64.37 63.91 62.92 61.75 61.54 63.02 62.23 61.16 60.97 61.10 62.71 60.55 64.11 65.09 64.51 64.56 64.31 64.98
39.97 47.39 46.46 48.44 48.70 59.22 58.25 58.79 62.08 61.88 59.95 58.55 59.82 59.88 59.92 59.05 59.44 60.09 61.67 63.32 64.00 64.05 64.04 64.58 64.88 65.22 65.14 64.13 63.24 61.84 63.21 63.69 62.45 61.54 61.69 62.32 61.76 61.80 63.80 63.89 63.61 62.76 63.69 62.53
46.11 48.26 45.09 46.86 52.00 54.71 56.17 58.46 60.11 59.93 59.74 60.57 61.01 61.24 60.11 59.27 60.15 60.33 60.50 62.92 62.91 63.74 64.07 64.71 64.92 65.09 64.61 64.55 63.97 63.60 64.21 63.83 62.54 62.25 62.71 62.37 60.77 60.96 62.60 63.26 63.55 61.42 60.65 60.24
42.65 44.41 45.12 45.90 51.14 54.61 55.79 57.75 58.27 58.70 59.85 59.92 60.27 59.96 60.84 61.08 61.07 61.32 61.26 62.94 62.45 63.58 64.36 64.73 64.49 65.42 65.44 65.69 64.89 64.64 64.76 63.52 62.49 62.92 62.56 62.34 61.43 60.44 62.13 62.54 62.73 61.67 62.08 59.38
43.06 42.11 40.34 44.32 47.07 47.58 54.98 55.02 56.41 59.37 58.81 60.43 60.10 60.61 61.66 61.37 61.59 62.07 62.34 63.35 63.58 63.72 64.71 65.34 66.17 66.65 66.11 66.23 65.80 65.19 64.89 63.88 63.65 62.80 62.23 61.93 61.40 60.08 61.54 61.18 61.79 44.17 48.93 46.01

GFSCGP_sfc_wetblb_003.txt.gz
Wetbulb
49.31 41.83 41.69 45.35 47.26 48.17 46.98 46.16 46.26 49.59 52.23 50.51 49.74 50.46 51.23 53.06 52.55 51.23 52.02 52.88 54.28 54.13 55.68 57.42 58.63 59.02 57.97 58.11 59.51 59.80 59.65 59.70 59.71 58.64 59.70 58.94 59.02 60.50 61.87 62.10 62.04 60.82 61.18 61.01
44.13 40.72 46.17 49.17 49.09 48.54 47.67 45.39 45.02 48.78 51.71 50.86 50.28 49.26 51.45 52.85 51.99 52.17 52.43 52.29 52.08 53.20 54.99 56.72 57.37 57.67 56.96 57.43 58.71 60.19 60.06 59.92 59.30 59.35 61.16 59.99 60.84 61.48 61.94 62.05 61.85 61.59 61.99 62.01
40.91 44.49 48.77 48.77 47.21 46.58 47.13 45.49 45.33 45.76 49.98 51.08 47.98 45.47 49.06 52.32 52.77 53.27 53.68 53.14 54.01 53.72 54.07 55.34 57.14 56.38 56.44 56.68 57.73 59.95 60.00 58.90 59.12 60.41 61.28 60.09 60.24 60.55 60.48 60.84 60.54 60.22 61.35 61.86
42.40 46.69 47.30 46.98 46.30 47.47 43.79 49.66 48.73 47.90 46.87 40.72 48.29 36.36 45.15 48.85 49.68 51.50 51.74 51.72 53.02 53.84 55.06 55.86 56.66 56.39 56.05 57.26 59.01 59.67 59.57 58.43 59.77 59.43 60.17 59.26 58.32 57.58 59.66 60.68 60.86 60.31 61.36 61.11
41.86 43.91 44.51 44.55 46.99 49.12 46.48 50.47 49.09 48.99 46.53 42.59 43.41 38.55 42.13 48.04 47.71 49.74 49.36 52.22 53.37 53.96 55.06 55.43 56.76 57.79 57.51 57.78 57.75 58.87 58.17 58.13 60.05 59.73 59.87 60.07 59.27 60.44 60.63 59.82 59.85 59.49 60.94 60.94
44.58 48.10 46.57 45.54 48.52 50.65 51.50 49.05 48.74 48.06 43.68 35.32 42.03 40.92 40.87 45.09 47.94 48.59 50.15 52.14 54.43 53.73 54.76 55.92 57.82 58.19 56.75 57.03 57.60 58.25 58.68 58.50 60.02 61.26 59.28 59.82 59.71 60.85 59.66 57.89 58.55 58.83 60.45 60.03
43.93 44.03 47.01 48.29 45.91 48.55 49.51 43.96 36.99 32.36 32.05 32.15 44.35 41.40 42.95 48.25 50.71 49.90 50.97 52.45 53.52 54.67 54.79 55.97 56.75 56.23 55.28 55.03 56.23 57.49 58.41 56.50 57.96 59.55 59.54 59.77 58.77 59.77 58.26 57.40 57.88 58.67 58.07 58.29
38.61 37.23 44.15 47.34 45.52 44.96 45.68 44.33 36.77 29.99 31.27 36.42 44.92 39.47 44.37 51.12 51.62 51.90 54.11 54.07 54.43 53.48 54.99 55.48 56.01 55.51 55.33 54.80 56.24 56.55 57.83 56.66 56.29 58.07 58.69 59.30 60.22 60.56 59.01 57.85 58.98 59.24 58.53 58.47
38.96 39.60 47.17 47.53 47.83 47.64 45.18 42.64 46.36 39.85 40.14 36.19 40.66 45.49 48.99 49.82 49.62 50.39 53.82 54.24 52.61 52.85 53.78 54.93 55.87 54.81 54.86 54.34 54.53 54.34 57.18 56.23 56.61 58.38 58.18 59.69 60.96 60.68 59.97 59.94 59.08 59.09 59.39 60.24
43.09 38.02 46.09 47.22 48.10 48.22 47.25 48.94 40.68 37.85 31.04 28.98 38.72 40.92 41.98 45.61 47.39 49.60 53.02 52.44 52.68 53.37 54.06 55.06 55.82 54.97 55.20 54.90 54.45 55.12 57.63 56.37 57.39 58.40 58.83 60.46 62.38 61.73 61.17 60.91 60.92 59.22 59.69 59.53
46.03 42.48 43.69 46.35 44.19 43.24 45.14 43.79 42.19 40.87 38.45 32.02 30.77 37.73 47.20 47.00 49.54 51.55 53.20 53.90 53.43 53.70 53.83 55.04 55.04 55.69 55.62 55.54 55.01 55.78 56.85 56.32 56.55 57.24 57.51 60.34 62.53 61.56 61.75 61.00 60.51 60.13 59.02 60.51
46.46 42.27 39.76 44.13 47.94 48.97 48.06 45.21 43.02 39.25 36.28 39.47 38.63 38.91 50.38 51.70 52.55 53.37 54.71 54.97 53.38 53.63 53.79 55.26 55.43 55.14 54.63 54.78 55.03 55.40 56.88 56.21 56.30 57.63 57.51 59.22 61.26 61.39 61.45 61.98 61.83 60.86 60.35 60.46
46.54 42.48 37.17 40.46 44.53 47.68 46.91 47.47 46.17 43.33 42.38 39.25 37.01 39.04 50.86 52.01 53.93 55.72 54.36 54.95 54.60 53.30 53.63 54.79 55.78 54.77 54.54 54.18 55.58 56.11 57.21 55.30 56.49 57.99 56.63 58.36 60.60 60.92 60.39 61.16 60.87 61.52 60.70 60.39
50.72 42.69 40.97 38.67 41.95 46.48 44.69 46.74 46.95 43.84 39.28 40.62 42.83 43.48 47.40 49.53 51.41 54.04 54.18 54.22 54.26 53.77 54.67 54.97 55.62 54.56 54.01 54.56 56.22 56.59 56.77 55.60 55.26 57.19 55.73 58.28 59.61 60.01 60.53 60.74 61.28 61.47 61.56 60.25
47.62 41.66 44.64 45.38 47.46 48.26 47.65 47.21 46.97 44.72 44.29 42.20 43.65 44.58 48.32 49.31 50.01 53.90 54.78 54.30 54.40 53.73 54.34 55.21 55.32 54.83 52.96 53.51 54.95 56.90 56.73 54.92 54.70 57.01 55.76 57.16 60.11 60.08 61.03 61.08 62.39 60.87 61.52 60.74
44.45 42.20 44.68 44.09 47.76 47.43 46.72 48.03 47.75 47.44 46.39 45.75 46.34 45.89 50.75 52.05 52.24 54.24 54.88 54.78 54.31 54.57 55.72 56.37 56.69 55.45 54.05 54.83 54.69 56.79 56.17 54.56 54.29 56.99 56.27 57.83 57.24 61.34 60.88 58.76 61.58 60.14 60.89 60.74
40.14 42.67 42.39 39.25 45.83 45.92 43.03 46.95 47.34 47.79 47.80 47.13 43.58 46.31 51.00 50.97 52.36 54.62 54.62 55.11 55.01 55.34 56.25 56.84 57.35 56.22 54.72 55.59 55.45 55.65 55.96 54.58 53.87 57.12 57.98 57.62 57.31 60.75 61.55 58.95 58.29 58.38 59.11 57.45
39.32 40.32 43.32 39.52 42.61 35.41 45.10 51.42 50.97 48.77 49.08 48.52 48.73 50.05 51.67 51.55 52.96 56.91 57.58 56.17 56.01 56.35 56.80 57.39 57.86 56.65 55.51 56.41 55.44 56.35 56.60 54.47 54.36 54.83 57.68 57.76 57.52 60.18 60.56 59.55 58.08 58.36 58.13 57.22
43.87 41.66 40.46 37.02 38.44 44.51 46.58 49.61 48.70 46.41 45.67 50.02 48.85 51.53 52.50 52.75 53.10 54.67 58.39 58.56 57.91 57.63 57.71 58.22 59.13 57.83 56.52 57.13 57.00 57.27 56.00 54.32 54.21 54.55 55.67 57.66 57.05 58.26 59.61 59.81 58.17 58.84 58.28 58.08
46.51 46.98 41.97 37.47 34.75 35.18 44.70 50.26 52.25 51.06 42.11 51.10 51.24 50.39 51.17 51.73 46.09 48.73 54.42 59.24 58.42 59.02 58.96 58.75 59.90 58.45 57.58 57.63 57.89 57.15 56.24 54.43 53.45 54.49 55.34 57.41 56.98 58.24 57.81 60.36 59.59 60.01 59.75 58.93
41.35 41.69 40.37 38.02 35.95 42.63 49.79 52.22 51.97 42.54 42.85 51.80 52.08 51.90 51.38 49.23 50.65 53.19 55.71 58.18 60.05 60.23 59.45 60.67 60.47 58.17 57.78 58.32 58.26 56.88 56.31 55.14 55.53 55.77 55.90 55.16 56.10 58.43 58.71 61.71 61.42 60.44 60.89 59.50
39.33 38.33 38.62 37.09 36.76 36.45 52.83 51.27 45.34 47.20 50.24 53.63 52.89 53.58 52.91 54.46 55.51 55.44 57.58 58.86 59.28 59.93 60.29 61.11 60.21 58.57 59.00 59.08 58.57 56.98 56.17 57.39 57.03 56.05 56.50 54.51 55.37 60.59 62.97 62.01 61.14 60.38 59.86 58.82
37.67 39.98 38.16 40.30 43.64 48.46 51.17 50.45 55.74 54.74 53.24 52.96 54.60 54.41 54.84 54.38 54.14 55.33 56.89 58.82 59.60 59.90 60.90 61.31 60.64 59.55 59.70 59.61 59.17 57.63 57.46 58.87 58.11 55.63 55.38 55.64 56.91 58.59 62.44 61.25 60.00 58.49 58.12 58.63
39.05 41.93 40.19 40.89 46.61 44.03 49.78 50.06 50.15 53.00 54.48 55.62 56.11 55.61 55.17 53.95 54.14 54.41 57.52 58.83 59.56 59.38 60.92 61.50 61.24 60.14 59.16 59.79 59.42 59.45 59.81 60.20 58.69 55.76 56.26 56.97 55.68 59.39 61.52 61.65 60.70 58.33 56.70 56.41
39.41 40.33 38.11 40.28 42.87 44.78 47.00 47.04 48.01 54.20 53.49 53.80 55.90 55.68 55.53 54.97 54.83 55.04 56.49 58.12 58.34 59.07 59.90 62.04 62.01 61.17 60.49 60.48 59.85 60.23 61.19 60.12 57.83 57.02 57.89 56.11 56.02 59.57 59.32 60.03 59.92 58.34 57.42 55.87
40.26 39.02 36.47 37.30 42.05 42.59 42.63 45.73 46.60 51.77 53.64 53.61 53.85 55.32 56.74 56.61 55.31 55.95 57.96 58.48 58.25 58.32 59.81 60.97 62.22 62.11 61.93 61.59 61.14 60.98 61.59 60.57 58.27 57.96 57.84 56.19 55.82 58.42 59.59 58.53 56.61 42.15 44.12 47.25

GFSCGP_sfc_wetblb_006.txt.gz
Wetbulb
48.09 43.42 39.96 43.29 44.99 45.91 44.86 43.11 42.58 46.67 49.76 47.82 47.58 48.37 50.69 52.19 51.15 51.31 50.43 50.92 51.93 51.82 53.60 55.23 56.61 55.97 55.35 56.24 57.29 57.16 57.65 58.19 58.54 56.99 57.57 57.23 57.81 59.25 60.08 61.44 61.43 60.91 59.72 59.75
43.69 40.04 44.96 47.53 47.35 45.00 44.08 43.24 43.06 46.46 49.08 47.04 46.99 46.96 50.66 51.43 50.52 50.27 50.87 50.75 50.52 51.25 53.86 55.63 55.42 55.04 55.13 56.38 57.37 57.69 58.12 57.80 58.01 57.06 59.22 58.52 58.67 59.51 59.94 60.45 60.91 61.94 61.02 61.65
40.54 45.03 48.08 45.90 44.46 43.90 43.50 42.43 43.96 44.12 47.68 48.59 46.16 44.75 46.39 50.68 51.31 51.86 51.55 51.42 51.87 52.30 52.83 54.55 55.19 54.10 54.37 55.79 57.16 58.45 58.12 58.39 57.19 58.83 59.05 58.54 58.54 58.95 59.17 60.02 60.71 60.05 60.64 61.88
41.60 46.28 46.09 44.09 42.45 44.94 40.65 47.17 47.05 46.68 44.48 38.50 46.07 36.22 42.28 47.03 47.77 49.37 49.96 49.68 50.79 52.31 53.55 54.82 54.67 53.31 53.95 54.64 56.62 58.27 58.45 57.01 58.20 58.23 57.72 57.69 57.17 56.48 57.65 58.03 59.12 58.87 60.26 60.58
40.58 42.63 42.39 41.46 42.69 46.09 43.70 47.63 46.45 46.48 44.19 41.09 42.83 37.36 40.80 45.53 45.89 48.34 49.34 49.60 50.35 52.37 53.28 54.05 54.57 54.87 54.76 56.67 56.44 58.01 56.64 58.36 58.74 57.96 58.00 58.39 56.76 57.90 58.06 57.68 57.67 58.38 59.65 61.05
42.60 46.29 44.45 43.49 46.29 47.11 48.70 46.29 45.34 44.98 42.48 36.18 41.78 39.84 41.83 42.47 46.39 47.84 48.75 50.76 50.82 51.05 52.30 53.75 55.54 55.20 54.82 55.11 56.30 56.46 55.63 56.74 58.35 58.39 58.39 57.82 56.95 56.95 56.42 56.36 56.96 57.06 57.86 59.94
41.99 41.81 44.99 46.28 42.84 45.82 45.91 41.25 33.91 29.61 32.22 33.82 41.78 39.20 41.77 46.20 48.60 49.50 48.18 49.88 50.38 51.72 52.87 54.54 54.77 54.09 53.73 54.52 55.47 55.66 56.19 56.52 57.16 57.50 58.35 57.47 58.01 57.00 55.76 55.88 56.82 55.84 56.28 56.82
36.42 34.82 42.25 46.00 43.51 41.11 41.48 40.27 36.10 28.92 29.51 34.20 42.42 37.20 42.36 48.39 49.98 50.72 50.94 51.24 51.53 51.06 53.36 54.33 54.90 54.16 53.37 54.45 55.19 55.78 55.59 54.57 54.99 56.81 57.89 57.49 58.50 57.36 56.52 57.39 57.26 56.88 56.50 56.90
36.64 37.19 45.89 46.12 46.16 44.69 40.95 39.27 43.76 37.61 37.90 34.59 37.45 42.17 47.52 48.63 48.41 50.51 50.70 51.48 50.24 51.04 52.70 54.16 54.56 53.26 52.00 53.67 54.42 54.63 55.91 55.20 54.35 56.72 57.88 58.19 58.89 58.24 57.89 57.77 57.58 57.42 57.48 58.61
40.02 35.66 44.31 45.41 45.97 45.48 42.83 44.72 38.35 35.72 31.15 28.94 35.29 38.08 39.39 43.60 46.20 49.83 49.60 49.37 49.70 51.18 52.68 54.19 54.22 52.64 51.94 53.52 52.78 52.82 55.87 54.46 55.80 56.85 56.48 59.38 60.97 59.65 59.24 58.05 57.63 57.87 57.57 58.14
42.13 38.68 40.46 44.19 41.23 40.34 40.29 39.64 40.49 40.03 37.05 32.16 28.87 34.95 43.94 45.73 46.07 49.63 50.06 50.86 50.82 51.89 53.22 54.10 53.47 53.36 52.39 52.39 51.53 52.88 55.33 54.32 54.84 56.26 56.74 60.15 60.48 60.26 59.98 59.23 57.57 58.23 58.28 58.51
43.60 37.66 35.94 39.38 43.82 45.90 43.43 41.36 41.61 38.65 34.39 36.12 35.51 37.16 46.90 47.54 48.25 51.80 50.64 52.03 51.69 52.94 53.52 53.71 53.37 52.96 52.21 51.85 52.02 54.04 54.51 54.50 54.59 55.97 56.03 59.90 60.51 59.92 59.77 59.07 58.63 58.68 58.48 59.03
43.22 38.97 33.51 36.70 39.44 44.24 41.35 43.76 42.79 39.79 38.42 36.47 34.80 35.96 48.88 49.72 50.99 52.64 51.13 51.29 51.71 51.76 52.58 52.97 52.52 53.12 53.26 52.02 52.85 53.48 55.19 54.71 54.56 56.17 55.42 59.73 59.66 58.97 60.00 59.11 59.04 59.14 59.14 59.45
43.18 39.09 38.10 34.45 38.80 42.01 39.83 42.81 45.00 41.00 35.45 36.47 39.27 40.64 45.25 48.70 51.12 51.42 51.95 51.82 51.92 53.08 53.73 53.69 53.18 52.38 53.20 53.73 53.75 54.16 55.12 54.17 55.10 55.16 56.01 58.10 58.61 58.76 58.94 59.41 59.29 59.39 59.97 59.85
37.24 37.74 40.45 41.74 43.37 44.56 43.84 43.72 45.14 43.54 42.36 39.96 40.98 42.31 45.36 48.21 51.99 52.92 53.03 52.10 52.09 52.61 53.31 53.92 53.67 52.00 52.21 52.52 53.79 54.86 54.96 53.16 54.98 54.63 56.22 57.95 58.02 59.01 59.95 60.03 59.04 59.47 59.36 60.10
37.11 33.86 41.30 39.51 42.98 43.19 41.94 45.36 46.21 46.03 44.02 43.22 44.15 43.65 48.59 51.78 53.07 51.80 52.44 52.52 52.23 52.97 53.91 54.58 54.95 53.30 52.55 53.43 54.52 55.43 54.81 52.52 55.22 54.33 54.86 58.29 58.59 60.12 59.87 59.67 58.53 59.85 59.35 58.41
33.82 35.59 36.86 36.62 42.36 41.86 38.21 43.40 45.91 45.82 46.92 45.58 42.13 44.19 47.69 48.12 51.97 52.95 52.18 53.36 53.18 53.57 54.39 54.86 55.43 54.65 53.78 53.46 55.27 54.59 54.03 52.84 55.27 54.44 55.62 56.43 56.40 60.16 58.20 58.97 57.74 58.06 55.90 55.96
34.18 33.97 34.74 36.20 39.46 31.77 42.91 48.25 49.12 47.17 47.02 47.42 45.50 47.09 48.61 50.55 51.53 55.22 55.07 54.01 53.97 54.52 55.26 55.66 56.26 55.81 54.29 54.03 54.77 55.43 53.65 53.93 55.70 54.92 55.82 55.68 56.80 58.87 56.87 56.81 57.06 56.51 55.02 54.90
38.64 34.88 33.37 32.15 36.11 40.08 44.91 46.60 46.64 44.27 43.35 47.06 48.03 47.63 49.17 50.03 51.07 51.72 55.95 56.15 55.42 55.41 56.14 56.67 57.35 56.46 54.48 54.34 55.00 55.45 53.28 52.98 55.87 55.58 55.45 55.40 56.80 58.65 57.56 55.96 56.17 55.77 54.85 54.04
40.03 39.16 37.84 35.76 30.95 31.35 42.63 48.54 51.43 49.84 42.29 48.49 48.81 48.13 48.21 51.23 46.70 49.49 55.35 56.50 56.09 56.19 56.80 57.09 57.35 55.66 54.92 55.21 55.28 55.15 52.81 52.30 54.42 55.56 56.37 55.67 55.97 57.97 58.06 56.10 56.61 56.59 55.31 54.47
38.71 39.53 35.07 35.28 30.78 39.77 45.50 48.87 52.31 41.43 41.40 48.91 49.92 50.08 49.76 48.04 50.57 53.79 56.79 56.24 56.95 56.68 56.66 57.50 57.08 55.41 55.65 55.78 55.91 55.05 53.36 52.23 53.85 55.90 56.80 55.68 55.45 56.72 58.45 57.10 57.55 57.51 56.94 55.68
35.37 34.46 34.75 35.53 32.99 34.65 46.51 48.31 43.55 44.62 49.99 50.67 49.78 49.27 49.54 50.56 50.77 51.57 55.95 56.97 57.46 56.56 56.32 57.76 57.21 55.86 55.71 56.46 56.34 55.40 53.15 54.13 53.96 54.74 55.34 55.68 55.02 58.22 59.98 58.57 57.53 58.07 57.11 55.82
34.07 37.84 34.82 37.32 39.26 41.90 46.32 44.93 45.21 45.11 46.23 51.21 50.05 51.48 52.24 51.38 51.88 54.55 54.26 56.73 57.70 57.39 57.56 58.84 57.70 55.83 55.88 56.70 57.12 55.51 55.65 54.89 54.75 53.79 53.57 53.66 55.54 57.29 60.41 59.33 57.83 57.33 57.25 56.30
37.23 40.76 37.90 36.43 43.76 40.47 43.66 44.87 45.49 46.32 45.51 49.78 52.56 51.78 52.69 52.11 52.53 53.57 55.46 56.75 58.03 58.18 58.25 58.94 57.46 55.86 55.59 56.67 57.23 57.09 57.44 56.80 55.56 53.34 52.63 52.31 55.43 58.41 60.30 60.68 59.82 58.75 56.99 56.76
37.88 39.46 37.21 37.89 41.18 41.16 44.42 43.92 45.34 45.69 46.62 46.87 51.97 53.00 53.24 51.70 51.90 54.70 55.94 57.05 58.46 58.64 59.17 59.24 57.84 56.98 56.80 57.16 57.14 57.36 58.24 57.99 56.13 53.66 53.48 53.05 55.97 59.13 59.70 60.27 59.40 59.21 58.56 57.80
40.53 37.50 35.75 35.09 40.93 40.50 40.87 44.01 46.84 45.11 44.82 46.65 47.46 51.69 52.12 54.43 51.64 55.41 56.71 58.02 58.65 59.21 59.35 59.13 58.81 58.19 58.14 57.92 57.65 57.79 58.97 58.75 56.81 54.68 54.29 53.85 56.04 58.76 59.47 58.01 52.15 41.96 47.22 46.64

GFSCGP_sfc_wetblb_009.txt.gz
Wetbulb
44.90 40.83 38.93 41.89 43.10 43.00 42.30 40.40 40.10 43.60 47.02 45.91 44.72 45.30 48.57 51.01 49.54 50.24 51.01 51.74 50.76 51.31 51.42 52.80 53.62 53.80 55.26 55.19 55.69 56.30 56.10 56.11 57.26 56.70 55.65 56.45 56.43 57.48 58.37 59.80 60.81 60.41 60.94 59.58
41.84 38.63 44.97 46.50 45.10 42.81 42.12 40.11 40.52 44.76 47.31 44.90 44.59 44.49 47.80 49.19 49.51 50.45 51.44 50.27 49.61 49.68 51.44 53.07 53.07 53.99 55.03 55.43 56.08 56.11 56.42 56.97 57.18 55.77 57.18 57.08 56.75 58.17 58.65 59.09 61.53 62.13 61.20 60.08
38.07 41.61 47.73 46.85 43.92 42.69 41.65 40.01 40.99 41.62 45.51 46.14 44.54 42.69 45.66 49.11 49.49 50.49 50.14 49.56 49.94 50.80 51.22 52.95 53.25 53.07 54.22 55.64 55.92 56.56 56.67 57.10 56.89 56.87 57.36 57.05 57.14 57.84 57.77 57.77 58.47 59.12 59.93 60.31
39.86 44.23 44.39 44.25 42.29 43.08 38.94 45.28 44.62 43.20 40.96 37.16 43.69 33.46 41.50 45.01 46.98 48.00 49.07 48.57 49.73 50.35 51.89 53.44 53.84 51.85 54.26 55.29 56.51 57.36 57.23 56.77 56.47 57.77 56.58 56.14 55.87 55.31 56.27 56.55 57.53 57.85 59.21 60.02
38.38 41.32 41.15 41.36 42.33 44.87 41.99 46.53 44.71 43.59 40.38 38.02 41.20 35.80 39.56 43.30 44.65 46.22 47.93 47.99 48.01 49.57 51.68 52.92 52.79 53.42 53.95 54.81 56.20 56.69 56.68 55.83 57.00 57.01 56.77 57.22 55.27 55.99 56.49 56.29 56.33 56.89 57.74 59.57
40.07 45.71 43.97 43.36 46.51 46.46 46.18 42.82 41.90 40.83 38.05 32.59 39.76 37.38 38.94 41.46 44.28 46.14 48.00 48.97 49.26 49.05 50.97 51.97 52.78 53.34 53.36 54.38 55.76 55.79 55.66 56.54 56.90 56.89 56.83 56.68 55.65 55.26 55.05 55.29 55.61 55.61 56.57 58.29
39.07 40.43 43.75 44.95 42.06 43.55 42.58 37.55 30.07 26.53 29.45 30.61 40.17 36.98 41.15 45.21 47.20 48.29 48.71 48.24 48.40 49.69 51.43 52.08 52.56 52.11 52.97 53.74 55.03 54.38 54.43 55.47 56.43 57.72 57.66 56.37 56.22 55.87 54.80 55.11 55.51 54.73 55.20 55.72
34.35 32.64 40.71 44.64 42.20 39.65 40.28 39.90 32.07 26.58 27.47 32.06 40.22 36.09 41.56 47.09 49.48 49.73 49.79 48.44 49.20 49.48 51.46 52.31 52.83 52.91 53.02 53.97 54.40 55.46 54.35 54.99 54.39 56.18 57.35 56.14 57.08 55.53 54.97 57.10 55.83 55.18 55.30 55.79
34.88 35.48 43.79 44.43 44.76 43.54 39.51 37.03 42.21 34.74 35.44 32.64 35.81 40.38 45.28 46.90 47.03 48.40 48.19 49.06 48.20 49.50 51.27 52.36 52.97 52.15 52.66 53.37 53.63 54.74 54.17 53.46 53.44 55.87 56.76 56.68 57.30 56.03 55.97 56.19 55.93 55.91 56.23 57.29
38.10 33.09 41.91 43.73 44.76 43.81 39.84 41.80 33.77 31.92 26.60 25.87 33.80 36.18 38.49 42.86 45.20 47.62 47.77 47.38 47.87 49.65 51.22 52.50 52.61 51.54 52.36 53.30 53.40 53.61 55.01 54.25 53.46 55.57 56.77 58.02 58.99 57.65 56.43 56.79 56.33 56.07 56.45 57.07
37.70 36.06 37.75 42.15 39.67 38.78 36.73 38.10 35.76 37.42 35.05 29.18 27.32 33.98 42.68 44.58 46.07 47.48 47.67 48.16 48.58 50.10 51.87 52.86 51.99 51.68 51.91 52.27 51.83 51.97 54.32 53.57 54.14 55.34 55.40 59.20 59.00 58.85 57.74 57.42 56.87 57.03 56.41 57.55
39.04 35.35 33.93 37.25 41.47 44.51 42.42 39.50 39.24 34.54 31.96 34.03 34.53 37.77 45.86 45.01 45.92 48.64 48.33 49.16 48.80 50.63 52.16 52.51 52.05 50.76 50.37 50.90 50.17 51.41 53.76 53.32 54.32 55.23 55.21 58.70 59.13 58.90 58.00 57.10 56.82 56.98 57.18 57.76
38.28 33.96 29.07 32.86 37.66 40.42 38.90 40.49 40.20 38.32 36.30 34.38 32.89 37.05 46.45 46.50 45.60 49.74 48.28 48.99 50.02 50.45 51.05 50.68 50.76 51.22 50.78 50.17 50.41 52.76 53.46 53.33 53.60 54.51 56.08 59.00 58.41 58.09 57.68 57.06 57.72 57.80 57.58 58.29
39.72 34.44 34.65 31.87 34.99 39.20 37.06 39.69 40.38 39.69 35.70 36.54 37.86 38.38 43.13 45.72 46.38 48.24 48.63 49.19 49.92 51.36 52.21 51.73 51.25 51.25 51.06 51.23 51.56 52.90 53.69 53.65 53.75 54.06 57.86 57.67 57.48 58.09 57.88 57.64 57.92 58.30 58.77 58.80
34.62 29.18 36.75 39.56 40.67 40.98 40.70 40.65 40.69 39.33 40.49 37.73 40.42 40.06 43.15 47.03 47.93 50.00 49.89 49.09 50.02 50.74 51.48 52.24 51.59 51.11 50.67 50.27 51.57 52.66 54.18 53.19 54.06 53.91 57.27 57.37 57.25 58.11 58.29 58.00 58.06 58.69 58.79 59.07
34.37 28.34 35.49 37.22 40.70 40.61 39.01 41.17 41.70 42.44 42.24 42.03 41.51 41.13 45.33 48.83 50.67 50.42 50.43 50.41 50.71 51.48 52.69 53.16 53.02 51.70 51.42 52.34 52.32 52.93 53.52 52.40 53.58 54.15 57.20 57.60 57.30 58.70 58.64 57.27 57.73 58.15 58.46 58.83
32.12 31.43 30.82 31.26 39.97 38.65 34.74 39.76 41.08 42.39 44.28 44.00 39.40 42.71 45.48 46.57 51.04 51.27 50.12 51.36 51.63 52.45 53.41 53.43 53.44 52.60 52.51 53.10 53.82 52.54 53.05 52.44 53.40 53.75 56.66 57.84 57.56 59.15 58.36 57.86 57.92 56.98 55.51 56.21
32.22 30.65 31.32 28.60 35.10 27.45 39.41 44.24 44.44 42.91 44.97 45.46 43.90 45.58 47.57 48.27 53.05 53.96 53.98 52.75 52.43 53.29 53.98 54.23 54.62 53.83 52.75 53.11 53.42 53.18 52.28 53.84 53.92 53.17 55.57 55.92 57.31 57.55 57.34 56.80 56.68 54.29 54.07 54.66
38.47 32.45 28.50 28.15 29.65 36.49 41.88 44.58 41.66 41.48 42.01 46.12 46.16 45.90 47.77 48.34 49.97 49.27 54.34 54.97 54.17 54.13 55.15 55.36 55.89 55.17 53.05 52.62 53.91 53.18 51.67 53.84 54.05 53.61 54.49 54.67 57.78 55.85 55.94 55.78 55.24 53.46 53.38 52.85
39.67 36.12 31.17 32.37 26.12 27.74 38.59 43.33 47.18 46.19 39.53 46.49 48.33 45.74 45.96 49.03 45.64 48.00 52.71 54.73 54.31 54.34 55.60 55.38 55.95 55.27 53.07 52.86 53.62 53.25 51.33 53.32 53.84 54.45 54.73 54.42 57.67 56.65 55.75 55.75 54.70 53.52 52.85 53.02
33.84 32.07 28.61 29.53 29.09 37.26 41.68 44.32 45.63 38.28 36.68 42.67 47.89 48.36 45.85 48.29 51.00 53.04 54.07 55.03 55.56 54.68 54.82 55.36 55.35 54.28 53.69 53.52 53.90 53.29 51.33 52.81 55.14 55.67 54.72 53.86 56.81 57.25 55.88 55.59 55.14 53.74 53.31 52.53
32.57 33.02 34.54 33.71 31.31 31.99 42.43 42.70 37.22 39.50 42.42 43.40 44.23 48.25 47.07 50.29 50.33 51.60 54.44 54.94 54.49 53.23 54.06 55.57 55.25 54.53 54.03 54.11 54.50 53.49 51.28 53.24 55.01 55.10 54.87 53.54 54.47 58.68 57.15 55.96 55.63 54.66 53.62 51.79
32.24 34.50 34.33 36.44 37.73 42.34 42.22 41.00 43.08 43.44 42.34 43.23 43.59 45.76 50.01 49.38 48.74 51.94 53.92 55.04 55.30 54.80 55.33 56.42 55.76 53.86 53.96 54.43 55.48 53.74 53.69 52.19 53.71 54.30 54.02 52.59 53.50 55.58 57.76 55.91 55.61 55.09 53.83 52.40
35.96 39.18 37.22 36.46 41.65 41.85 42.44 42.91 43.66 45.20 43.78 45.13 45.98 46.42 50.10 49.06 48.98 51.20 54.46 55.19 55.50 55.19 55.14 56.33 55.47 53.47 53.11 54.65 55.64 55.99 54.29 53.20 52.93 52.69 52.80 52.87 53.37 54.06 57.25 57.67 57.25 56.89 55.37 53.95
37.10 38.50 35.87 36.80 40.91 41.78 42.93 42.34 43.20 44.05 45.49 45.89 46.78 46.84 49.84 51.21 51.69 50.92 53.79 55.57 56.46 56.15 56.08 56.76 55.86 54.23 54.07 55.07 55.50 56.00 54.91 54.07 52.43 52.31 51.58 51.41 53.94 55.02 57.28 57.91 56.99 57.50 57.65 56.46
39.45 36.08 34.46 34.27 39.46 39.55 40.70 43.03 44.40 43.93 44.20 45.87 45.80 46.93 49.95 49.95 53.14 52.22 52.87 56.31 57.21 56.51 56.88 56.79 56.13 55.35 55.28 55.52 55.62 55.80 56.63 55.08 53.57 51.92 51.19 50.69 53.38 55.49 57.48 57.45 53.06 42.44 44.92 46.60

GFSCGP_sfc_wetblb_012.txt.gz
Wetbulb
40.75 38.58 36.96 39.52 41.74 41.33 39.93 38.39 37.83 40.36 45.50 43.95 42.33 42.61 45.90 48.91 47.56 47.24 48.70 49.67 50.00 50.97 50.77 51.29 51.91 52.86 54.98 55.44 55.95 56.26 56.21 56.04 56.15 56.81 56.37 56.17 57.16 57.82 58.88 60.35 61.11 61.23 60.92 61.54
39.98 36.21 41.67 43.90 43.31 41.86 40.80 38.18 37.63 41.89 46.59 44.24 42.88 42.52 45.92 47.47 47.96 47.45 49.27 50.09 49.96 48.39 50.80 51.43 50.95 52.73 54.51 55.60 55.91 55.44 55.96 55.75 56.72 56.29 56.45 57.56 57.38 58.23 58.93 59.84 60.84 61.70 61.74 61.43
36.55 39.57 44.15 43.48 42.28 40.31 39.91 38.82 39.22 39.17 44.77 44.18 42.16 40.37 43.40 47.21 47.93 48.38 48.98 49.39 49.09 48.79 50.08 50.74 50.64 51.69 53.90 54.89 55.41 55.90 56.09 56.75 57.19 56.84 57.52 57.57 57.51 58.27 58.11 58.49 59.45 60.14 60.93 60.88
37.61 41.53 41.53 41.81 41.22 42.60 37.15 43.44 42.79 42.08 39.92 33.64 41.55 31.27 40.42 43.61 46.29 46.61 48.03 47.24 48.36 48.62 50.48 50.71 50.49 51.89 53.85 54.99 55.97 56.29 56.54 57.16 57.33 57.42 56.65 56.46 56.85 56.15 57.11 57.61 58.54 59.13 60.35 61.11
35.42 38.47 39.39 39.54 42.19 45.18 40.94 46.12 43.67 42.93 38.68 34.99 37.03 33.24 38.83 41.65 42.33 45.59 47.31 48.08 47.45 47.25 50.40 50.30 50.61 53.14 54.57 55.50 56.13 56.48 56.78 56.76 56.96 57.18 56.88 57.58 56.48 56.83 57.45 57.63 58.03 59.16 59.20 60.46
38.38 42.33 41.89 41.63 45.42 46.19 46.24 42.48 40.21 38.39 35.37 30.13 36.58 35.64 35.02 39.40 43.78 45.35 46.67 47.87 49.11 48.23 50.20 50.35 51.63 53.64 53.25 54.91 55.85 56.30 56.31 55.67 56.60 56.50 56.88 57.62 56.50 56.37 56.23 56.93 57.25 57.39 57.88 58.93
36.43 37.29 40.39 43.40 39.93 42.79 41.15 35.84 27.64 24.84 24.95 27.08 38.64 35.13 38.53 42.99 45.41 46.95 47.54 47.45 47.87 48.78 49.94 50.70 51.73 52.12 52.72 54.19 55.24 55.44 55.76 55.73 56.39 57.04 57.62 57.04 57.26 56.82 56.50 56.63 56.79 56.53 57.03 57.67
31.58 29.61 37.50 42.72 40.08 39.00 40.69 37.50 29.04 23.96 25.64 31.90 38.27 33.43 39.23 45.73 47.93 47.94 48.71 47.80 48.23 49.07 49.81 50.94 51.94 52.11 53.02 54.11 54.96 55.19 54.86 55.19 56.27 56.62 57.36 57.00 57.57 56.37 56.57 57.03 57.19 56.75 56.91 57.47
32.13 33.14 41.17 42.56 43.81 43.40 38.90 34.91 39.35 33.01 34.90 31.04 33.33 38.90 43.89 45.87 47.13 47.42 47.07 47.38 47.25 48.76 49.51 50.58 51.37 52.05 52.78 53.88 54.54 54.69 54.19 54.64 55.30 55.43 57.31 57.03 57.86 56.72 57.16 57.69 57.57 57.03 57.53 58.49
36.27 31.23 39.69 41.25 42.50 44.13 39.88 41.61 33.64 33.12 26.18 24.81 31.63 34.60 37.30 41.72 44.60 46.70 46.65 45.89 46.60 48.97 50.05 50.59 51.11 51.62 52.76 53.77 54.13 54.63 54.34 54.15 54.33 55.38 57.25 58.08 58.28 57.72 57.49 57.85 57.41 57.73 58.17 59.18
36.52 33.81 35.58 39.48 37.40 36.45 35.59 34.34 33.77 35.83 30.94 27.17 26.41 32.61 41.38 43.84 45.25 46.37 46.57 46.57 46.83 49.31 50.58 51.27 50.87 51.73 52.39 53.08 53.13 53.69 54.49 54.46 53.94 55.91 56.13 59.06 59.14 58.77 57.51 58.04 57.86 58.18 58.31 58.70
36.04 32.26 30.76 35.79 39.84 42.94 40.87 36.85 36.06 32.87 30.61 32.87 32.77 33.76 44.40 44.88 44.47 46.38 46.97 47.68 47.65 49.61 50.59 51.43 51.51 50.51 51.45 52.10 51.85 52.35 54.04 54.36 54.25 56.24 56.58 59.19 59.55 59.25 58.52 58.31 58.07 58.49 58.47 59.23
37.05 31.67 27.47 29.92 35.63 38.02 38.21 39.55 39.19 35.48 33.55 33.36 30.99 33.29 45.38 46.19 45.78 46.75 46.55 47.75 48.85 49.78 50.15 50.16 50.07 50.23 51.33 51.10 51.25 51.42 53.28 54.56 54.58 55.52 55.87 59.44 59.09 58.39 58.32 57.73 58.47 58.68 58.73 59.41
38.52 31.51 30.86 29.82 32.06 36.31 34.50 38.29 39.38 36.13 29.51 32.55 36.37 36.76 41.79 46.08 45.47 45.26 47.01 47.56 48.40 49.86 50.98 51.07 50.36 49.79 50.31 51.13 50.98 52.16 53.59 54.08 54.33 54.92 58.20 58.29 58.49 58.94 58.23 58.40 58.97 58.84 59.76 59.74
33.09 27.55 32.46 33.35 36.94 38.43 37.96 38.17 38.79 36.45 38.02 34.51 36.61 38.35 41.02 44.12 46.18 46.14 47.30 47.83 49.18 49.86 50.41 51.28 51.20 50.09 49.59 49.96 50.81 52.81 54.10 53.78 54.36 55.29 57.92 57.78 58.10 58.87 58.50 58.82 58.99 59.54 60.00 60.02
36.16 28.10 31.66 31.02 38.37 39.06 37.41 38.71 38.86 39.24 39.19 39.00 38.54 39.01 43.77 45.55 48.28 48.09 48.44 49.04 49.52 50.34 51.73 52.25 52.30 51.55 50.34 50.88 50.97 52.43 54.15 53.44 54.38 55.72 57.58 58.02 58.55 59.06 58.51 58.56 59.06 59.34 59.66 60.08
34.24 29.72 27.70 25.37 33.15 36.21 32.87 38.23 38.69 39.23 40.39 40.30 37.23 42.59 44.02 45.94 48.64 48.43 48.44 49.76 50.61 51.43 52.45 52.55 52.60 52.50 52.05 51.80 52.50 51.96 53.53 53.31 53.81 55.69 57.97 58.22 59.22 59.08 57.99 58.67 58.77 58.52 58.23 59.21
33.59 30.41 29.11 25.73 31.15 25.23 36.85 42.09 42.73 40.31 41.13 42.04 42.54 43.16 45.44 46.90 51.17 50.73 51.67 51.19 51.35 52.36 53.11 53.43 53.61 53.02 52.58 52.74 52.21 52.78 53.20 53.36 53.55 54.85 57.25 57.77 58.84 59.21 58.11 58.43 57.44 56.09 56.84 57.96
37.60 34.33 29.82 26.13 26.81 34.01 38.67 40.12 38.72 38.33 37.65 41.95 43.82 45.52 45.42 46.55 49.76 50.30 52.63 53.39 53.11 53.75 54.67 54.58 54.66 53.63 51.70 52.93 53.19 53.30 52.41 53.11 53.58 53.89 56.28 56.60 58.37 58.15 57.40 57.60 56.08 55.47 55.65 55.87
38.64 37.74 33.14 28.57 25.99 26.33 35.19 40.07 43.55 43.75 34.28 40.91 41.78 41.75 45.25 46.27 43.84 47.63 52.20 53.84 52.89 53.66 55.05 54.54 54.58 53.57 52.47 53.01 53.50 53.15 52.02 52.99 53.28 53.98 55.79 55.79 57.95 58.04 57.22 57.04 55.64 55.44 55.46 56.01
33.84 32.71 30.04 27.96 25.78 34.11 39.21 40.79 43.38 35.15 33.18 40.76 42.01 41.62 40.99 44.19 47.66 49.10 52.10 54.29 54.55 54.30 54.64 55.06 54.49 53.46 53.30 53.02 53.97 53.12 52.03 52.88 54.73 55.28 55.34 55.23 57.68 57.14 57.44 56.61 55.84 55.13 54.74 54.95
32.68 30.74 29.31 28.09 28.10 30.37 41.28 40.24 34.49 38.15 41.08 42.10 42.52 42.57 42.31 43.78 45.51 49.91 50.58 53.79 53.41 52.79 53.92 54.94 54.49 53.84 53.52 53.67 54.33 53.28 51.85 54.80 54.81 55.06 54.84 54.51 57.29 57.87 57.00 56.99 55.66 55.05 54.37 53.55
31.91 34.22 31.82 35.57 36.02 42.07 44.08 41.93 43.60 41.95 40.90 41.88 42.17 44.03 44.50 44.09 47.89 49.69 50.41 52.64 53.73 53.83 54.77 55.54 55.24 53.77 53.07 53.98 55.03 53.49 53.65 53.37 54.27 54.55 54.08 53.22 56.57 57.83 56.87 56.63 55.43 54.46 54.06 53.28
36.23 38.81 35.95 35.74 38.64 39.55 40.89 44.79 43.86 42.81 42.01 43.63 44.62 45.46 45.82 45.12 48.09 50.22 49.94 52.11 53.31 54.26 54.66 55.44 54.74 52.98 52.36 54.02 55.23 55.70 53.73 54.30 54.63 54.03 53.41 52.56 54.79 56.38 56.80 57.28 56.71 55.67 54.07 53.24
34.63 36.90 35.58 36.58 39.02 39.69 42.31 42.72 43.78 43.70 44.52 44.23 45.37 46.55 46.58 47.29 48.20 51.35 49.59 52.67 53.94 54.28 54.86 55.51 54.64 53.46 53.47 53.99 55.10 55.29 53.96 53.98 53.70 53.77 53.52 52.75 53.89 55.95 57.19 57.46 56.82 57.51 57.14 54.63
36.60 34.85 34.27 33.52 38.97 38.93 39.86 43.35 44.60 43.17 43.46 43.88 44.57 45.66 48.03 49.42 52.60 53.30 52.11 53.85 54.72 54.21 55.06 55.34 54.97 54.16 54.05 54.49 55.05 54.70 54.59 53.83 53.51 52.60 52.06 52.74 53.55 54.48 56.98 56.93 53.78 41.93 45.84 47.17

GFSCGP_sfc_wetblb_018.txt.gz
Wetbulb
47.46 43.46 42.89 46.22 48.08 48.67 48.44 48.21 47.87 50.62 52.91 51.27 50.45 50.93 53.17 55.80 54.90 54.90 56.11 56.91 57.76 58.65 61.60 63.72 64.44 64.70 64.49 65.75 66.23 66.87 67.58 69.05 68.12 66.58 65.30 65.16 64.66 66.10 66.95 67.84 68.90 69.00 68.89 68.56
45.07 41.54 46.78 48.66 48.88 47.83 47.21 46.35 46.86 50.02 51.96 51.65 51.04 49.86 52.82 54.23 54.84 55.73 56.29 56.62 57.67 59.47 60.40 63.03 63.68 63.59 64.38 64.99 65.89 66.58 67.42 68.14 67.48 66.36 66.36 66.02 65.57 66.03 67.45 68.03 68.95 69.14 68.49 67.93
43.00 44.56 47.32 46.70 46.46 45.58 46.21 45.19 46.11 46.30 49.45 51.38 49.29 47.18 49.81 53.29 55.17 56.00 56.48 57.79 58.67 58.78 58.94 62.57 62.86 63.27 64.54 64.54 65.46 66.24 67.21 67.50 67.46 68.11 67.38 67.17 67.49 67.76 65.67 66.84 67.06 68.11 68.14 67.63
43.71 47.59 46.07 45.45 44.84 46.35 43.72 47.72 46.78 45.84 45.65 41.95 48.98 42.09 48.58 51.82 52.95 54.32 55.45 56.56 57.62 58.54 61.25 62.31 62.98 63.19 64.35 64.52 65.73 66.60 66.98 67.24 67.67 68.30 66.84 66.58 64.08 63.27 66.21 66.80 68.18 67.34 67.17 66.48
42.38 43.91 44.42 44.42 45.08 47.32 45.31 47.55 46.41 46.03 44.89 44.85 45.10 42.73 46.79 51.02 49.97 52.28 54.96 56.74 58.12 59.08 61.55 62.24 62.82 63.40 64.17 64.66 65.28 66.41 67.15 67.25 67.68 67.60 67.37 65.92 65.68 66.16 67.36 66.65 66.28 67.08 67.05 66.25
44.19 48.12 46.21 46.33 47.45 47.51 48.33 46.06 46.21 47.15 45.58 39.56 44.42 44.01 44.69 48.05 50.68 52.86 55.68 55.95 57.41 60.15 61.13 62.46 63.23 63.50 63.61 64.97 65.62 66.46 66.61 66.79 67.44 67.25 67.25 67.04 66.78 66.34 65.37 65.54 65.12 66.13 66.77 66.81
42.58 43.24 46.35 47.25 45.32 47.59 46.71 44.80 39.53 38.26 38.96 38.53 46.51 44.41 46.17 51.52 53.35 54.18 54.55 56.14 59.30 60.74 61.48 61.53 61.93 62.42 63.36 63.93 64.99 65.69 66.03 65.88 66.80 66.47 66.71 67.68 67.17 66.59 65.59 65.43 65.67 64.82 65.41 66.22
35.94 36.03 43.44 46.58 45.51 44.20 44.78 45.47 41.01 34.86 37.38 40.75 46.81 42.19 46.82 52.46 54.12 55.27 55.34 57.05 58.75 60.60 61.84 62.00 62.35 62.88 63.25 63.89 64.93 65.11 65.53 65.24 65.80 65.85 66.69 67.77 67.79 66.47 66.63 66.16 65.99 66.05 65.62 65.14
37.64 38.68 46.36 46.19 46.83 47.99 45.18 43.66 48.39 43.73 44.76 42.46 45.30 47.79 51.23 53.04 53.14 55.27 56.29 56.41 58.70 60.90 61.72 61.89 62.63 63.16 63.59 64.26 64.90 65.28 65.27 65.06 65.18 65.89 67.23 67.33 67.68 66.73 66.08 65.64 67.12 65.41 66.02 65.25
42.00 37.78 45.50 45.24 47.15 47.92 47.98 49.42 42.69 43.74 38.27 36.40 42.44 44.56 46.96 50.37 51.79 53.79 56.21 57.54 59.57 61.24 61.41 61.90 62.35 63.07 64.17 64.96 65.53 65.89 65.59 64.27 65.17 66.49 66.74 66.81 67.14 66.87 66.32 66.09 65.27 65.20 65.69 65.44
43.01 41.59 42.94 44.91 43.51 43.71 45.58 45.03 46.14 46.61 44.67 39.67 39.00 43.16 50.78 51.65 53.99 55.03 56.62 59.37 59.90 60.71 61.08 61.55 62.45 63.44 64.28 64.99 65.12 65.35 64.27 64.28 65.04 65.53 66.66 67.00 66.77 67.09 66.39 66.12 65.59 65.44 65.97 65.88
43.47 42.03 38.54 42.58 46.29 48.74 48.73 46.99 47.21 42.15 41.32 43.89 42.98 43.27 53.24 54.40 56.40 56.83 57.02 59.04 60.58 61.46 61.56 61.77 62.39 63.06 63.65 64.14 64.29 64.29 63.67 63.69 64.64 65.52 66.17 66.64 66.93 66.81 66.35 65.72 66.13 65.78 65.46 65.59
39.91 39.76 37.63 40.66 44.17 46.55 45.35 46.51 48.25 47.77 48.05 42.93 39.68 41.65 52.78 54.98 55.38 56.50 58.23 59.10 60.26 61.05 61.15 61.62 62.11 62.24 62.84 63.49 63.65 63.11 63.37 63.61 64.42 65.22 65.46 66.38 66.63 66.31 66.28 65.87 65.83 65.87 65.57 65.32
41.36 40.29 40.16 37.22 41.01 44.56 42.94 44.52 46.75 46.73 42.84 43.48 43.11 45.28 50.00 53.37 54.98 56.79 58.40 59.34 60.19 60.80 60.95 61.44 61.68 62.15 63.02 63.19 63.02 62.23 62.77 63.83 64.00 64.38 65.11 65.70 65.81 66.17 66.07 66.12 65.79 65.70 65.88 65.66
40.78 38.04 40.94 41.72 41.96 42.66 44.65 43.90 45.13 44.92 45.86 42.97 44.54 45.35 48.89 53.53 53.99 55.20 57.36 59.28 59.65 60.20 60.61 60.99 61.34 62.10 62.98 62.87 62.60 61.90 62.60 63.58 63.90 63.47 65.15 65.72 66.47 66.51 65.87 65.95 65.55 65.54 66.11 65.81
41.97 38.39 41.01 39.26 42.40 42.70 42.09 44.75 45.24 45.72 46.13 45.95 46.09 46.26 51.70 52.99 53.51 54.27 56.31 57.63 59.23 60.18 60.54 61.03 61.72 62.40 62.63 62.46 61.86 61.55 61.92 62.91 63.76 63.68 64.58 65.76 65.95 65.57 65.68 65.75 65.83 65.75 65.71 65.62
37.77 37.71 39.08 36.11 42.48 41.39 38.93 44.04 44.96 45.72 47.13 47.13 44.22 48.31 51.24 51.16 52.24 54.00 56.36 57.89 59.19 60.69 61.15 61.36 61.90 62.63 63.26 62.60 62.20 61.38 62.24 63.22 63.12 63.52 64.72 65.26 65.26 64.92 65.33 65.50 65.38 65.41 65.85 66.38
37.51 37.33 40.09 38.29 41.06 32.73 44.84 49.17 48.57 46.70 47.36 48.49 48.65 49.52 51.01 52.41 55.24 56.14 57.01 56.01 59.41 61.37 61.91 62.42 62.81 63.37 63.93 63.46 62.52 62.38 62.68 62.40 62.37 63.23 64.19 65.35 64.79 64.80 65.65 66.05 65.73 66.03 66.21 66.40
40.78 37.22 34.82 36.38 37.32 41.65 44.70 45.82 46.22 46.51 45.00 48.29 48.70 50.83 51.74 53.28 54.33 54.22 58.51 60.00 59.25 62.34 63.55 63.93 64.22 64.41 64.46 63.35 62.87 62.17 62.05 61.79 61.71 62.21 64.01 65.08 65.05 65.11 65.61 65.59 66.23 66.76 66.51 66.53
40.72 40.06 35.56 39.10 35.56 33.48 43.49 46.45 48.39 49.77 43.83 48.68 49.20 49.97 50.72 52.23 48.64 54.16 57.32 58.07 60.78 62.85 64.51 64.45 64.73 64.88 64.25 63.65 63.17 62.17 61.53 61.15 60.98 61.88 63.60 65.63 65.41 65.50 65.27 65.54 65.73 67.27 67.32 65.94
34.10 34.83 32.94 34.69 38.14 41.39 45.10 47.50 48.72 41.20 42.84 49.07 49.84 50.40 50.90 50.55 53.83 55.87 57.58 58.52 60.16 62.96 64.03 65.32 65.15 64.46 64.50 63.90 63.27 61.76 61.42 60.98 61.73 62.38 63.86 65.46 66.34 65.78 66.60 66.16 66.04 66.51 66.39 66.02
36.97 35.40 33.16 35.23 35.44 34.65 46.57 46.83 43.27 45.94 49.56 49.90 50.57 51.51 51.47 53.26 54.67 56.11 57.43 58.68 59.65 61.00 63.20 64.59 64.39 64.42 64.85 64.04 63.13 61.65 61.34 62.42 62.10 62.37 63.08 64.92 66.28 66.05 66.20 66.37 65.44 66.00 66.22 65.68
35.14 36.97 36.58 37.10 36.44 44.22 46.21 46.09 49.56 50.18 49.28 50.15 50.78 51.84 52.82 53.81 55.19 56.64 57.92 59.19 59.83 60.82 62.82 64.30 64.55 64.48 64.75 64.11 63.26 61.85 62.55 62.59 61.93 62.19 62.63 63.58 65.89 65.98 66.11 65.77 64.99 64.51 65.28 64.76
38.10 40.21 37.70 38.08 39.76 42.84 45.23 48.27 49.04 49.98 50.34 51.30 51.96 52.57 53.61 54.00 56.11 57.23 58.59 59.79 61.30 61.82 61.90 64.02 64.26 64.03 63.72 64.07 63.41 63.23 63.31 62.85 62.21 61.94 62.42 63.26 64.13 65.20 65.77 65.41 65.02 63.45 63.22 62.89
39.46 40.80 39.02 37.82 39.00 42.64 44.47 46.38 47.74 48.22 50.77 51.45 51.92 52.64 53.22 54.76 56.23 58.02 59.42 60.64 61.51 62.49 62.28 63.69 63.94 64.05 63.90 64.04 63.61 63.90 63.29 62.99 62.29 62.38 62.42 62.81 63.09 64.81 65.13 65.34 64.84 64.06 65.21 61.23
41.06 39.34 38.03 36.71 40.76 40.62 42.65 45.40 47.30 47.35 48.36 50.84 50.80 51.93 53.58 54.99 55.85 57.90 59.93 61.91 62.50 62.69 62.42 63.04 64.25 64.79 64.34 64.00 63.63 64.12 63.46 62.90 62.89 62.19 62.17 61.97 61.70 62.81 63.78 64.36 64.24 43.94 49.28 48.12

GFSCGP_sfc_wetblb_021.txt.gz
Wetbulb
49.58 45.13 42.91 46.11 48.76 49.79 49.67 49.16 48.88 51.53 54.50 52.66 52.24 52.73 54.91 56.20 56.28 56.34 57.42 58.38 58.77 59.08 61.75 63.09 64.19 65.98 67.25 68.26 69.47 70.89 70.43 73.77 72.90 71.02 68.87 67.72 66.13 67.47 67.27 68.03 69.02 69.01 69.02 69.41
46.64 43.07 47.48 48.61 49.03 48.62 48.25 47.56 48.22 51.60 53.75 52.73 52.63 52.20 54.81 55.98 55.95 57.01 57.08 57.96 58.66 59.44 60.84 61.97 63.59 67.39 67.10 67.81 68.81 69.10 69.61 71.91 72.24 70.47 70.15 68.55 68.13 67.12 67.29 67.83 69.20 69.14 69.02 69.54
43.05 46.17 48.75 47.47 46.87 46.53 47.61 46.89 47.81 48.45 51.72 53.21 51.57 49.68 51.53 54.58 56.13 56.55 57.15 58.26 58.94 59.51 59.89 61.67 62.48 66.90 67.06 67.17 68.05 68.44 69.49 70.79 71.48 71.69 70.22 68.79 68.11 68.15 66.89 66.25 66.87 68.44 68.41 68.68
44.86 47.54 47.32 46.58 45.64 47.19 44.51 49.76 49.40 49.04 48.08 44.31 50.89 43.30 49.70 52.65 53.70 55.14 56.34 57.90 58.94 59.54 60.70 61.52 63.11 66.22 66.57 67.07 68.13 68.66 69.52 69.50 69.68 71.34 69.97 70.35 66.43 64.47 65.77 67.66 66.99 68.09 68.09 67.41
42.28 45.02 44.86 45.16 46.11 48.20 46.53 49.73 49.39 49.41 47.14 46.98 46.76 44.28 47.60 51.81 51.23 53.53 56.03 57.24 58.74 59.33 60.19 60.74 64.64 66.04 66.77 67.20 67.61 68.50 68.90 68.71 69.46 69.57 70.68 66.87 67.23 65.45 66.36 66.40 67.13 68.03 68.14 67.52
43.68 48.18 47.76 46.58 48.61 49.17 49.71 48.25 48.86 49.34 47.33 41.45 45.72 44.73 45.92 49.09 51.85 54.26 56.29 57.36 58.46 59.60 60.46 62.72 66.05 66.34 66.10 66.84 67.46 67.90 67.80 67.98 68.68 68.25 68.36 68.40 67.38 66.36 65.78 65.98 66.48 67.40 68.23 67.37
41.16 43.21 47.29 48.92 45.96 48.96 48.66 46.37 40.71 39.87 39.74 40.10 46.94 45.18 47.42 52.87 54.64 55.19 55.86 56.84 58.19 60.72 62.45 63.92 64.41 64.31 65.24 65.90 66.60 66.96 67.33 67.15 67.62 67.49 67.36 67.42 67.57 67.47 66.98 66.32 66.48 66.24 66.19 66.95
36.21 34.53 42.94 47.80 46.36 45.58 46.44 46.34 41.37 35.42 38.57 41.25 47.49 43.49 48.26 54.81 55.00 56.18 57.40 57.79 60.42 62.05 63.31 63.72 64.16 64.53 65.02 65.60 66.27 66.48 66.70 66.35 66.56 66.57 66.75 67.68 68.25 66.93 67.10 66.72 66.07 66.74 66.37 66.97
38.18 37.20 44.39 46.82 48.32 47.62 45.96 44.24 48.79 44.76 46.99 43.60 46.88 49.52 53.16 54.98 55.09 54.71 56.14 57.07 59.97 62.19 63.19 63.50 64.28 64.95 65.08 65.64 66.09 66.61 66.50 66.26 66.27 65.94 67.35 67.51 67.85 67.22 67.09 66.92 67.14 66.21 66.94 65.73
40.70 36.77 42.88 46.16 47.99 48.21 47.71 49.71 43.08 45.58 38.55 39.08 44.43 46.79 47.76 51.37 52.66 54.52 56.48 56.82 60.00 62.62 62.97 63.59 64.23 64.81 65.49 65.98 66.61 66.97 66.63 65.82 65.44 66.61 67.03 66.94 67.36 67.23 67.33 66.72 66.16 66.72 66.12 65.92
42.07 39.28 42.10 44.33 44.66 43.69 44.79 45.18 46.49 47.25 45.88 41.52 40.94 45.20 54.18 53.41 54.25 55.07 57.44 59.14 61.26 62.14 62.73 63.51 64.08 64.90 65.58 66.12 66.30 66.45 65.94 65.07 65.32 66.33 66.57 67.39 66.77 67.07 66.99 65.98 65.60 66.00 65.94 65.52
43.62 40.36 38.48 42.14 47.34 48.44 47.54 46.84 47.20 43.89 43.32 45.73 46.07 45.21 54.18 55.20 56.44 56.56 57.71 60.50 62.20 62.86 62.90 63.47 63.93 64.62 65.01 65.45 65.81 65.53 64.97 64.28 65.35 65.95 66.16 66.36 67.16 67.20 66.80 66.19 66.63 66.23 65.62 65.32
42.18 39.91 35.69 38.53 45.22 46.99 45.21 47.34 49.23 49.09 49.58 45.24 43.51 45.73 54.86 56.09 56.59 57.78 58.94 60.63 61.64 62.08 62.55 63.25 63.79 63.97 64.49 65.20 65.27 64.24 63.99 63.95 64.99 65.74 65.74 66.77 66.93 66.86 66.38 66.40 66.62 65.86 65.20 64.84
41.17 40.16 39.16 34.62 41.21 44.98 43.47 45.74 48.36 48.52 45.03 45.82 46.03 47.94 50.91 54.30 55.74 57.53 59.62 61.11 61.27 61.73 62.30 63.03 63.21 63.80 64.58 64.99 64.27 63.23 63.31 64.17 64.79 65.21 65.26 65.60 66.59 66.23 66.00 66.33 66.41 65.18 65.37 64.90
40.19 37.40 40.77 39.85 41.85 43.96 45.43 45.78 47.60 46.77 48.30 46.24 47.71 47.96 51.43 55.27 56.13 57.97 60.02 60.49 60.78 61.28 61.59 62.45 62.86 63.52 64.34 64.20 63.72 62.86 63.42 63.69 64.59 64.22 65.26 65.95 66.59 66.43 66.05 65.75 65.97 66.25 65.23 66.29
42.36 38.42 40.28 36.09 40.43 43.85 44.30 45.81 47.23 48.20 48.27 48.62 49.11 48.53 53.71 56.48 56.24 56.43 57.43 59.43 60.22 61.00 61.68 62.56 63.21 63.79 63.86 63.49 62.73 62.46 63.15 63.58 64.32 64.28 65.23 65.65 65.84 65.61 65.61 65.68 65.61 66.04 66.02 66.13
38.14 40.24 37.08 33.21 40.52 42.18 40.66 45.70 46.80 47.52 49.67 49.30 46.27 50.04 53.10 52.79 53.81 55.69 57.70 58.16 60.06 61.51 62.12 62.64 63.16 64.02 64.24 63.56 63.16 62.19 62.90 63.73 63.78 64.49 65.49 65.28 65.40 64.82 65.14 65.55 65.36 65.74 65.68 66.48
38.02 38.58 38.21 35.82 38.21 33.06 44.57 50.10 49.40 48.19 49.71 51.03 50.88 51.53 52.74 54.41 55.99 56.45 57.48 59.29 59.10 62.02 62.70 63.42 63.99 64.71 64.93 64.29 63.12 63.02 63.37 63.06 63.29 64.37 65.09 65.31 65.10 65.00 64.61 65.14 65.18 66.24 67.86 66.68
43.56 38.74 35.49 33.32 35.74 42.67 44.44 48.46 47.69 47.48 47.88 52.29 51.38 51.59 53.98 55.19 55.06 55.35 59.30 60.02 61.88 63.57 64.24 64.77 65.31 65.85 65.56 63.87 63.33 62.42 62.91 62.33 62.84 63.85 64.91 65.26 65.45 65.48 65.39 65.39 65.93 67.44 67.26 67.34
42.53 41.68 35.92 37.14 35.06 32.55 41.45 49.32 51.79 52.32 44.66 51.97 52.27 52.61 53.38 54.01 49.98 55.41 58.84 60.16 61.52 64.54 65.21 65.32 65.76 66.14 65.46 64.14 63.73 62.35 62.38 61.77 62.31 63.61 65.15 65.70 65.64 65.63 65.05 66.32 66.56 67.22 67.83 66.86
37.37 37.66 35.25 36.37 38.00 40.93 44.79 50.49 51.31 42.93 43.54 51.81 53.01 53.50 53.51 52.76 55.44 56.95 59.08 59.91 61.73 63.49 65.23 66.42 66.22 65.68 65.67 64.50 63.54 62.07 62.41 61.20 62.90 64.15 65.71 66.15 66.62 66.51 66.92 66.90 67.39 67.43 67.03 66.81
34.60 34.51 36.93 39.45 36.95 34.58 47.75 49.28 46.03 48.04 51.93 52.72 53.26 53.59 53.07 55.10 56.44 57.52 59.30 60.05 61.13 62.07 64.65 65.94 65.66 65.71 65.94 64.53 63.29 62.24 62.07 62.76 63.32 63.91 65.15 66.17 66.61 66.51 66.63 66.64 66.53 66.98 67.37 66.38
35.34 37.34 35.00 37.62 35.16 42.30 47.19 46.32 49.86 51.03 51.97 52.56 53.08 54.08 54.76 55.56 56.56 58.16 59.64 60.74 61.90 62.26 64.04 65.60 65.77 65.89 65.94 64.56 63.61 62.19 62.96 63.02 62.82 63.47 64.79 65.95 66.58 66.40 67.13 66.02 65.87 65.47 66.45 64.46
39.69 41.39 37.65 39.67 39.78 42.45 45.43 47.72 48.78 50.45 51.08 53.90 54.13 54.50 55.16 55.44 57.25 59.09 60.70 61.65 62.11 63.46 63.25 65.13 65.65 65.53 65.02 64.57 63.93 63.56 63.60 63.13 62.63 62.99 64.20 65.54 65.82 65.60 66.33 65.86 64.84 64.68 64.45 64.20
39.43 40.30 38.87 37.96 39.85 44.74 46.30 47.91 48.59 50.00 51.89 53.13 54.27 54.79 54.70 55.51 56.98 58.78 60.36 62.52 63.23 63.81 64.12 64.83 65.28 65.74 65.38 64.83 64.03 63.84 63.80 63.00 62.95 63.53 63.48 64.16 65.60 65.64 65.43 65.66 64.03 63.67 66.22 61.89
41.56 38.77 37.60 36.63 42.05 42.23 44.72 48.10 50.29 50.07 50.80 52.26 52.87 53.94 55.68 56.20 56.41 58.43 59.53 62.10 64.03 64.33 64.70 64.02 65.31 66.02 66.19 65.09 64.16 63.49 63.87 63.10 63.65 64.03 63.00 63.19 63.83 65.22 65.08 64.65 64.23 43.98 47.34 46.63

GFSCGP_sfc_wetblb_024.txt.gz
Wetbulb
46.65 43.78 41.80 43.80 46.56 47.54 47.75 47.73 46.79 50.41 53.29 52.19 52.18 52.62 54.28 56.78 56.75 57.11 57.98 58.03 58.85 60.00 63.43 64.96 65.70 66.94 69.44 70.22 72.48 73.93 74.07 75.31 73.12 72.09 70.93 70.17 68.18 68.39 68.65 69.45 70.09 69.96 70.05 69.58
43.61 41.64 46.62 47.31 46.74 45.86 45.42 45.38 46.19 50.27 52.04 51.84 51.45 51.51 54.61 56.34 56.79 57.52 58.04 58.18 59.01 59.89 61.14 63.11 65.47 67.12 69.71 69.95 71.15 72.80 72.77 72.86 73.00 72.36 71.22 70.14 68.71 67.48 67.75 68.83 69.75 69.99 69.29 69.42
41.17 43.79 47.33 46.68 45.36 44.58 45.10 44.71 46.19 46.28 49.69 51.26 50.81 49.27 52.09 54.94 56.50 57.47 57.74 58.53 59.12 59.17 59.18 60.88 63.06 68.31 68.42 68.86 69.95 70.31 71.25 72.76 72.50 72.72 71.25 72.05 69.07 70.04 67.96 69.08 68.28 68.84 69.00 68.80
42.64 46.34 44.50 45.11 44.41 45.62 43.08 47.54 47.16 46.80 46.14 43.40 50.18 42.30 50.44 53.17 53.76 55.22 56.45 57.47 58.65 59.22 60.48 61.20 63.16 66.79 67.45 67.76 68.98 69.81 71.20 71.64 72.04 71.41 69.91 69.00 66.42 65.90 67.37 66.94 67.64 67.73 69.05 68.08
38.41 42.60 43.35 42.08 44.68 47.14 44.59 48.10 47.08 46.94 45.83 46.44 46.28 44.36 47.61 51.93 50.40 52.68 55.54 57.41 58.60 59.92 60.78 61.52 63.26 66.95 67.20 67.73 68.18 69.47 70.43 70.26 70.91 70.33 69.62 68.72 68.53 68.02 68.93 68.11 68.45 68.62 68.58 68.09
41.06 44.32 43.86 45.36 46.41 47.21 48.82 46.59 46.67 47.18 46.23 40.85 45.43 44.86 44.83 48.33 51.02 52.94 56.00 57.62 58.82 59.50 60.23 61.96 66.16 66.72 66.60 67.29 67.83 68.90 68.70 69.09 69.05 70.41 70.31 69.07 68.49 68.68 67.71 67.12 67.13 67.24 68.09 68.11
41.04 40.63 43.24 44.71 43.60 46.72 46.31 45.70 38.88 37.59 38.47 37.91 46.45 44.28 46.38 51.76 53.17 54.60 55.86 57.30 58.93 60.23 60.30 64.55 64.72 65.01 65.32 65.96 67.14 67.72 67.67 67.20 68.37 69.05 68.55 69.59 69.09 68.98 68.10 68.05 66.74 66.93 66.36 66.22
33.75 34.35 40.70 44.16 43.32 43.47 44.20 45.17 39.83 32.90 35.66 39.54 45.96 42.00 46.35 53.58 55.34 56.79 55.97 58.23 59.01 61.24 63.71 64.31 64.74 64.56 65.01 65.96 66.45 66.52 67.13 66.78 67.50 67.67 67.78 69.37 69.72 67.61 68.46 68.32 67.11 66.08 65.99 66.40
34.35 36.26 45.36 43.88 45.62 45.80 44.07 41.36 47.10 42.76 44.13 40.59 44.26 47.76 51.58 53.70 54.61 55.71 55.03 57.81 60.58 62.29 63.71 63.94 64.38 64.48 65.02 65.48 66.15 66.66 66.65 66.50 66.66 67.21 68.42 68.77 69.04 67.84 67.18 68.50 68.21 66.75 67.35 65.89
38.32 32.39 41.34 45.31 45.08 45.61 45.20 47.68 41.14 43.76 36.13 36.32 42.39 45.00 46.50 51.81 53.48 55.08 54.94 57.60 61.21 63.10 63.14 63.52 63.71 64.63 65.25 66.05 66.81 67.10 66.92 66.24 66.67 66.66 67.77 67.52 65.53 68.16 67.39 66.51 66.25 66.48 66.78 64.73
40.57 37.45 36.47 42.26 42.27 40.30 43.04 42.75 44.47 46.03 43.91 39.00 38.30 43.17 55.75 54.34 54.93 55.51 57.02 57.67 61.48 62.06 62.48 62.93 63.94 65.04 65.62 65.98 66.12 66.46 66.27 65.79 65.48 66.96 67.67 67.27 66.98 67.54 65.11 65.84 64.75 66.32 66.88 64.11
41.79 38.23 34.01 37.21 46.07 45.15 45.77 44.01 45.15 41.48 40.45 44.12 43.88 44.45 56.13 57.03 56.11 57.67 57.71 59.61 62.00 62.48 62.54 63.34 64.02 64.36 64.70 65.26 65.51 65.77 65.52 64.41 65.64 66.15 66.50 66.67 67.40 67.10 66.42 65.87 65.12 66.21 65.68 65.71
39.73 37.53 31.96 34.71 41.71 46.28 43.49 45.29 46.89 48.09 48.46 43.69 41.24 44.17 55.38 55.50 56.75 57.35 59.10 61.04 61.65 62.10 62.38 62.90 63.35 63.79 64.22 65.01 65.23 65.02 64.60 64.27 64.99 65.32 66.19 65.19 66.58 66.49 66.32 65.82 65.39 65.32 66.35 65.10
41.35 37.14 35.05 31.99 35.67 41.06 41.08 43.72 45.92 47.06 42.72 44.09 45.62 47.40 51.85 53.94 55.28 57.67 60.23 61.44 61.30 61.47 62.19 62.41 63.07 63.83 64.29 65.04 64.74 63.62 63.49 64.35 64.69 65.24 65.35 66.07 66.90 65.64 66.10 65.43 66.74 65.54 65.21 64.15
39.34 33.82 37.75 37.54 37.88 40.15 40.73 42.93 44.32 44.95 46.84 43.97 46.72 47.52 50.95 54.94 56.19 59.04 60.69 60.84 60.57 60.75 61.40 62.38 62.82 63.50 64.44 64.54 63.80 63.14 63.36 63.94 64.95 65.16 65.87 65.54 66.57 65.84 65.52 65.02 65.75 66.54 65.51 64.34
41.66 34.93 37.27 35.35 38.37 37.93 37.68 43.42 45.53 45.98 47.17 48.11 48.41 49.20 55.45 56.81 58.21 58.54 59.80 59.90 59.79 60.53 61.44 62.32 63.16 63.92 64.14 63.95 62.58 62.68 63.41 63.57 64.71 65.16 65.18 65.49 64.63 64.77 64.84 65.29 65.44 66.16 65.92 65.35
38.45 37.02 35.16 31.91 37.91 36.56 35.66 43.08 45.20 47.05 49.53 49.57 46.70 52.30 56.03 54.59 55.82 58.19 59.50 60.45 60.51 61.07 61.72 62.54 63.30 64.06 64.35 63.63 63.40 62.61 63.42 63.77 63.91 64.99 64.77 64.98 65.15 64.67 64.68 65.03 64.80 65.35 65.37 64.44
37.97 37.11 36.68 34.16 35.36 27.76 43.44 49.38 48.75 47.91 50.52 51.49 52.05 53.35 54.89 55.06 56.73 57.48 58.96 59.22 61.46 61.83 62.60 62.98 63.93 64.82 65.05 64.20 63.24 63.65 63.56 63.07 63.22 64.75 63.97 64.59 64.32 64.09 63.75 63.89 63.50 64.83 65.37 65.15
42.87 38.18 34.55 33.20 32.59 36.51 42.51 45.96 47.04 46.90 47.15 51.40 51.41 53.00 53.83 54.93 57.65 56.94 59.08 59.45 60.67 63.31 64.29 64.24 65.44 65.94 65.45 64.02 63.43 63.07 62.66 62.55 63.07 63.95 63.92 64.20 64.46 64.10 64.63 64.56 64.54 64.97 64.54 63.78
42.61 41.90 36.80 34.91 29.98 33.19 42.11 47.54 50.71 50.94 43.35 51.56 53.40 53.09 53.42 54.31 50.90 52.93 58.12 59.29 60.90 63.01 66.09 64.89 65.77 66.33 65.31 64.45 63.64 62.83 62.16 61.99 62.55 63.84 64.70 65.02 64.64 64.78 64.70 65.97 66.11 66.14 65.91 66.01
36.85 37.95 33.93 33.16 32.27 36.24 44.09 45.07 51.44 41.27 42.32 52.45 53.57 53.44 53.57 52.65 54.48 57.12 59.05 59.92 61.78 63.04 64.77 66.35 66.20 65.57 65.33 64.80 63.51 62.32 62.22 61.57 63.58 64.77 65.45 65.73 65.66 64.94 66.03 67.12 66.64 66.86 65.56 65.61
34.67 34.74 34.73 36.38 33.09 31.41 43.73 46.07 42.56 45.38 52.40 52.90 53.19 53.80 53.93 55.68 57.10 58.13 58.87 59.82 60.87 61.78 63.87 65.88 65.64 65.98 65.59 64.79 63.20 62.25 62.46 63.17 63.92 64.81 65.26 65.77 66.49 65.78 66.41 66.84 67.16 66.37 65.78 64.43
33.81 37.12 35.16 37.32 34.50 40.83 45.34 45.82 47.70 49.71 50.30 52.28 53.00 54.28 55.29 56.06 56.95 58.37 59.28 60.38 61.17 62.15 63.22 65.58 65.71 66.09 65.37 64.48 63.46 62.46 63.73 63.52 63.49 64.31 65.83 65.83 66.25 65.98 66.63 66.16 66.11 65.07 65.31 64.12
38.94 41.46 37.57 38.69 39.83 41.63 44.84 47.91 49.16 51.10 50.57 52.71 54.26 55.05 55.58 55.46 57.23 58.19 59.96 61.49 61.66 62.89 62.60 64.95 66.05 65.64 64.59 64.41 63.85 64.23 64.05 63.29 63.19 64.25 65.99 65.61 65.25 65.75 66.00 65.45 66.10 64.72 64.25 63.75
40.11 41.18 38.40 38.37 41.03 43.91 44.67 46.50 47.68 49.85 51.26 52.22 53.95 55.23 55.22 55.76 56.11 57.79 59.00 61.18 62.94 63.35 64.04 64.86 66.00 65.98 65.26 64.77 64.05 64.38 63.67 63.28 63.35 64.36 65.46 65.88 65.62 65.61 65.62 65.16 63.36 64.67 61.87 60.25
42.71 40.12 37.40 37.20 42.83 43.02 43.68 46.96 49.49 49.58 50.47 52.06 52.60 53.92 56.13 56.01 55.78 57.71 58.10 59.85 61.59 63.11 64.63 64.25 66.07 66.73 66.12 64.97 64.28 63.92 63.96 63.48 64.22 63.41 64.36 64.81 64.87 65.52 64.65 63.55 61.26 43.50 46.97 45.19

GFSCGP_sfc_wetblb_027.txt.gz
Wetbulb
41.47 36.95 36.08 39.10 41.37 43.21 43.97 44.06 43.14 46.02 49.48 48.34 47.52 48.05 50.48 52.97 52.64 52.58 53.64 53.23 54.72 55.22 57.00 57.46 60.34 59.87 58.66 63.28 65.30 66.40 67.43 69.19 70.12 69.23 68.23 66.39 64.61 63.89 64.35 65.14 65.02 66.15 66.03 66.28
39.43 34.85 40.81 43.97 43.75 42.52 42.18 40.20 40.54 45.28 49.03 47.59 47.34 47.21 50.56 52.43 52.36 53.20 53.80 54.06 53.77 54.16 55.24 57.26 57.69 58.73 61.67 61.92 65.45 66.62 69.20 69.46 69.24 69.30 67.43 66.35 63.88 63.75 64.33 63.38 64.31 64.86 65.56 64.96
36.64 39.68 43.95 42.71 42.13 41.19 40.49 39.43 40.21 40.52 44.71 46.51 45.21 43.40 46.30 49.90 51.68 52.98 53.54 53.57 54.36 54.62 54.56 55.87 56.50 59.94 62.16 63.57 64.87 66.48 67.70 68.60 68.49 68.25 67.38 65.02 63.37 62.50 61.94 62.13 63.14 64.04 64.69 64.91
36.62 41.73 42.96 41.14 39.94 42.37 37.87 43.79 43.35 42.66 41.15 36.55 44.26 35.96 43.92 47.01 48.91 51.39 52.74 52.44 52.74 53.25 54.87 55.11 55.34 60.88 62.39 63.56 64.74 65.42 67.72 67.88 68.07 66.73 64.82 62.88 60.64 60.18 60.90 61.20 62.15 63.09 64.48 65.72
34.80 37.28 38.23 38.78 40.52 43.53 40.17 45.35 43.44 43.37 40.74 39.81 41.19 37.48 42.35 46.23 46.45 47.80 50.26 51.55 52.48 53.74 54.77 54.79 55.55 62.32 63.09 63.96 64.19 66.32 67.06 66.62 65.97 64.51 63.77 61.95 60.01 61.18 61.76 62.60 62.02 62.76 62.76 63.52
39.24 42.49 39.73 38.62 41.55 44.21 44.78 43.00 42.60 42.09 39.74 33.13 39.47 39.04 39.72 42.78 45.71 48.50 50.82 51.95 52.79 53.29 54.69 56.78 62.50 63.19 63.06 64.45 65.50 66.08 65.65 64.81 64.75 63.98 63.45 61.87 61.22 61.65 60.19 61.28 61.55 61.15 61.94 62.51
39.29 40.32 41.44 42.29 37.86 40.42 40.89 36.89 30.60 29.59 31.01 31.01 40.59 39.15 41.52 45.22 48.92 50.40 50.18 51.13 52.66 54.06 56.59 60.71 61.12 61.53 62.56 63.82 64.81 64.72 64.25 62.77 63.59 64.68 62.51 63.75 61.17 61.42 61.37 60.84 60.62 61.33 61.21 61.15
31.61 29.49 39.94 44.42 38.49 35.77 36.57 37.47 31.62 24.92 28.32 32.66 40.98 35.43 40.67 48.32 50.76 51.92 52.32 51.60 55.56 59.06 60.01 60.27 60.70 61.32 62.78 63.78 64.03 63.66 63.05 62.71 63.34 62.08 62.79 63.02 62.30 61.45 62.20 61.41 60.96 60.61 60.15 61.14
31.04 31.78 42.19 42.39 42.39 40.46 36.62 33.69 40.84 35.39 37.45 33.23 36.81 41.13 45.49 47.90 48.52 51.08 51.07 52.76 57.18 58.59 59.48 59.96 60.19 61.56 62.62 62.88 62.24 63.03 62.70 62.37 62.61 61.86 62.85 62.68 62.33 62.15 62.16 61.74 61.59 61.08 61.19 61.04
35.76 28.91 38.17 40.17 41.96 42.15 40.26 40.98 33.62 35.71 27.76 27.05 35.60 37.76 39.31 44.87 47.57 49.30 50.77 52.56 57.00 58.35 59.12 59.76 60.61 61.46 62.22 62.56 62.90 62.79 62.50 61.85 61.98 62.28 62.59 62.58 62.72 62.33 62.28 61.32 60.88 61.17 61.04 61.84
36.76 32.13 33.17 38.11 35.93 34.81 37.60 35.69 36.31 36.15 35.81 30.97 29.75 35.54 46.04 47.53 48.79 48.87 50.63 56.68 57.07 57.55 58.59 59.50 60.84 61.64 62.10 62.82 62.79 62.24 61.69 61.56 60.96 62.08 61.98 62.47 61.11 62.33 61.35 61.56 62.54 60.69 60.12 63.09
38.43 34.40 30.50 33.45 39.89 42.08 40.45 37.52 37.64 32.44 32.84 36.67 34.92 36.70 49.23 52.10 50.40 50.88 55.73 57.43 57.60 58.70 59.11 60.45 60.83 61.46 61.45 61.73 61.64 61.11 61.01 60.55 61.08 62.40 62.50 63.65 62.23 61.49 61.56 61.05 62.65 60.31 59.75 60.44
37.41 32.05 26.64 30.51 36.55 39.63 37.34 41.05 40.26 38.20 38.11 35.28 34.21 37.18 48.02 50.80 51.34 52.55 56.07 57.40 58.00 58.46 59.14 60.08 60.58 60.72 61.06 61.24 61.38 61.07 60.21 59.81 61.72 62.48 62.46 63.74 62.07 61.68 60.96 60.54 62.39 61.38 60.81 62.44
40.61 33.38 30.54 26.42 31.83 36.90 35.14 38.13 40.36 39.24 34.77 35.82 38.84 41.09 44.39 48.25 49.71 55.24 56.72 57.42 57.90 58.39 59.38 59.83 59.90 60.30 60.99 61.43 61.41 60.42 59.32 60.42 60.45 63.96 62.88 62.20 61.72 61.92 60.83 60.93 60.90 62.62 62.48 61.55
38.42 32.88 33.85 34.94 37.64 38.25 35.80 36.04 37.46 36.20 39.82 36.93 40.39 42.11 45.83 50.04 54.86 56.07 56.96 57.45 57.59 58.06 58.85 59.18 59.49 59.89 60.66 60.00 59.63 59.69 59.11 60.00 60.00 63.47 63.07 62.74 61.64 61.70 61.19 61.17 61.30 63.01 62.01 62.52
39.84 34.13 35.29 33.81 37.31 37.26 34.27 36.57 37.84 38.47 39.75 42.08 41.87 42.95 49.36 53.21 57.72 56.62 56.96 57.38 57.22 58.02 59.06 59.77 60.06 60.40 60.68 59.95 58.83 58.67 58.72 59.34 62.86 63.36 62.80 63.34 62.56 61.63 60.83 60.69 60.40 61.51 61.11 62.66
36.41 33.64 32.56 28.74 37.21 35.25 30.48 35.58 37.01 39.48 42.13 43.14 39.84 44.40 51.47 52.59 55.18 54.48 56.07 57.14 57.38 58.42 59.51 59.92 60.43 60.69 60.35 58.97 58.24 57.27 58.29 59.97 62.37 62.48 64.36 63.56 63.33 62.73 61.37 61.39 60.79 60.32 59.84 61.67
34.23 33.03 35.03 32.43 34.95 23.54 35.91 44.73 44.91 42.20 44.85 49.09 47.53 48.82 53.38 53.01 54.07 54.28 55.34 54.95 57.33 59.34 59.62 60.10 60.41 60.29 59.78 58.45 58.01 58.23 58.65 59.32 61.82 61.90 63.22 63.51 62.95 62.18 62.70 62.28 60.39 60.63 59.72 61.01
38.33 35.76 31.49 31.60 30.97 34.92 37.90 41.37 41.51 41.40 45.23 50.20 49.43 50.04 51.29 53.98 54.08 52.51 55.52 56.67 56.86 57.83 60.08 60.42 61.53 60.86 59.24 58.64 58.36 58.70 57.63 58.08 61.44 62.16 61.76 62.03 62.87 61.97 62.32 61.65 60.15 60.50 60.60 60.45
40.12 38.74 33.53 33.51 28.64 28.39 35.60 41.70 45.34 45.33 41.34 50.44 50.88 50.76 52.39 53.11 47.03 49.96 54.11 55.99 57.27 58.40 60.17 61.36 61.82 60.88 59.06 58.46 58.14 57.63 56.81 57.19 57.78 62.08 61.98 62.11 62.00 62.49 61.26 60.63 60.28 61.02 61.41 60.56
34.69 35.12 31.74 31.99 31.28 34.20 39.91 42.27 45.21 38.90 40.91 49.18 50.83 50.50 51.75 49.50 50.33 52.10 54.35 55.29 57.41 58.98 60.57 62.52 61.96 60.07 59.23 58.80 58.29 56.72 56.43 56.19 58.82 62.46 63.17 62.29 61.62 63.35 61.84 61.84 62.05 61.47 60.64 60.47
32.75 32.17 32.14 33.84 30.59 29.52 41.88 43.07 40.27 44.81 48.15 49.76 51.16 51.60 51.98 52.02 53.05 54.81 55.69 56.29 57.98 58.62 59.75 62.43 61.31 60.09 59.60 59.15 58.49 56.54 55.76 57.39 59.53 61.28 63.11 62.24 62.36 64.34 63.69 62.02 62.13 61.77 60.38 59.63
32.84 35.76 32.76 35.54 33.95 40.46 43.07 44.29 46.80 48.08 47.99 49.04 50.90 52.04 51.80 52.62 53.50 54.80 55.51 57.17 58.27 59.62 59.38 61.75 61.72 59.98 59.63 59.10 58.63 56.85 56.97 58.00 59.57 61.04 62.56 62.09 62.43 63.50 63.07 62.36 61.30 61.46 60.37 59.91
38.72 41.34 37.05 38.27 39.81 41.46 43.75 46.14 46.88 47.31 48.66 50.62 51.30 52.20 51.44 50.97 52.58 53.40 55.80 57.30 58.96 59.27 59.88 60.35 61.56 59.95 58.80 59.06 58.93 58.26 58.93 58.95 59.49 61.81 61.75 61.89 62.26 61.33 62.31 63.37 62.29 60.98 60.42 59.59
39.05 40.13 38.03 37.24 40.83 42.92 44.36 45.39 46.11 47.05 49.95 50.85 51.07 51.34 52.04 51.64 51.94 53.31 54.32 55.53 57.18 57.81 59.51 60.65 61.55 60.44 59.79 59.68 59.09 59.85 59.37 58.63 59.17 61.98 61.41 61.12 62.37 61.86 60.44 58.11 58.08 61.21 61.24 61.17
41.19 38.15 36.74 34.52 41.69 41.62 42.23 45.93 47.41 46.86 48.09 50.56 49.73 50.90 53.12 52.89 52.16 53.24 53.84 55.68 55.91 57.25 59.39 59.80 61.27 61.17 60.87 60.45 59.86 60.13 59.92 58.70 59.60 61.38 61.46 61.12 62.20 61.58 60.40 55.16 52.16 43.90 43.53 44.63

GFSCGP_sfc_wetblb_030.txt.gz
Wetbulb
38.70 33.46 32.85 37.17 39.44 40.42 41.63 40.47 40.44 43.37 46.84 45.93 45.66 46.09 48.43 50.95 51.49 50.48 51.75 52.90 53.67 53.85 55.89 57.18 57.24 56.83 56.95 56.90 57.17 60.30 65.11 65.86 68.06 66.91 66.81 65.73 63.83 63.04 62.95 64.01 65.33 65.40 65.08 65.37
35.13 32.34 38.20 40.52 41.04 39.94 38.92 37.43 37.57 41.52 44.82 45.33 44.94 44.81 48.27 50.16 50.57 51.29 51.73 52.25 52.78 52.72 53.70 54.89 55.44 56.70 57.97 60.31 62.25 61.84 65.04 67.34 67.78 68.31 66.47 65.02 63.49 62.45 62.81 63.21 65.33 65.96 65.12 64.93
33.16 37.44 42.08 39.60 38.51 38.13 38.39 36.62 37.91 38.26 42.30 43.85 41.28 40.04 42.78 46.71 48.35 49.31 50.37 51.89 52.36 53.13 53.18 53.69 55.08 55.70 57.61 60.33 62.97 64.93 66.55 66.82 66.89 66.42 65.48 62.69 61.93 61.58 60.58 60.65 61.29 63.26 64.63 64.20
34.62 38.46 37.87 38.13 37.02 38.38 34.63 41.50 41.17 39.84 38.00 33.12 41.06 32.39 40.38 44.06 45.54 47.60 48.96 49.20 51.20 51.92 52.69 53.89 54.08 56.45 59.17 61.71 64.46 66.44 67.00 67.14 67.11 66.77 64.57 63.37 59.98 59.23 59.83 60.48 60.80 62.05 63.32 63.65
33.41 35.48 35.39 35.65 37.65 41.55 36.44 42.30 41.35 40.83 37.42 36.20 37.12 33.13 39.25 43.18 43.26 46.01 48.30 49.89 51.59 52.01 51.26 51.73 53.20 57.87 60.71 63.16 63.62 66.53 66.49 66.78 65.55 64.62 63.88 61.90 59.59 59.62 59.14 60.45 60.80 61.69 61.78 62.73
36.64 40.20 38.37 36.86 39.05 39.45 40.40 39.93 39.24 39.22 35.21 28.79 35.94 35.05 36.38 39.71 42.62 45.43 48.28 49.33 50.72 50.84 50.63 54.74 56.59 61.20 61.63 63.17 64.94 65.45 65.01 63.22 63.59 63.06 61.73 59.96 59.76 59.17 59.89 59.83 59.83 59.75 60.37 61.52
37.46 38.46 42.11 43.27 36.55 38.69 36.51 30.63 26.10 24.17 25.99 28.24 37.93 35.10 38.36 42.23 44.80 46.37 47.29 49.10 50.40 49.97 51.77 58.51 59.38 60.89 62.42 63.66 64.55 63.81 63.48 62.07 62.17 60.99 60.70 60.49 60.37 59.57 59.88 59.59 59.23 59.84 59.81 59.85
30.15 28.55 38.27 43.13 38.98 33.20 32.69 31.51 25.87 21.02 23.40 29.32 38.41 32.09 37.35 45.04 47.75 48.85 49.64 50.09 50.54 53.87 56.35 58.42 59.70 61.24 63.05 63.62 63.49 62.83 62.14 61.90 61.42 61.30 60.61 60.46 60.52 60.41 60.07 59.81 59.77 59.67 59.37 59.92
29.89 30.58 40.87 41.27 40.83 38.61 34.07 30.20 34.63 29.78 33.64 28.79 33.78 37.67 42.45 46.07 46.35 47.41 47.37 50.18 54.46 55.81 57.26 58.32 60.46 62.15 62.52 62.05 61.87 61.66 61.33 60.92 60.35 61.23 60.68 60.60 60.96 60.67 59.88 59.41 59.56 59.42 59.54 59.58
33.83 27.13 36.99 39.15 40.72 39.64 36.90 39.14 28.60 28.63 23.78 22.53 31.07 33.85 36.44 41.21 43.62 45.94 45.93 52.58 54.74 55.97 57.53 59.06 60.66 61.45 61.70 61.49 61.69 61.32 61.04 59.96 60.22 61.03 60.94 60.94 60.54 61.06 60.60 60.37 59.93 59.73 59.34 60.59
34.39 30.55 31.68 36.92 34.55 32.33 32.78 32.50 32.19 31.48 30.20 27.65 25.23 31.41 41.16 42.94 44.53 45.65 45.85 54.64 55.21 56.65 57.48 59.16 60.23 60.99 61.26 61.93 61.56 60.67 60.35 60.01 60.33 60.87 60.49 60.75 60.65 61.07 60.22 59.48 59.73 59.82 59.43 60.61
37.68 32.15 28.54 30.92 37.55 40.91 37.15 33.81 33.03 26.61 26.60 31.35 30.81 33.38 45.36 45.88 46.02 49.35 50.82 55.86 56.13 56.92 58.18 59.40 59.93 60.60 61.14 61.26 61.06 60.06 59.89 59.49 60.15 60.85 60.42 59.97 60.66 59.98 59.55 59.98 60.13 58.87 58.89 59.52
36.65 29.48 24.03 26.04 32.90 37.68 35.79 37.52 38.25 34.78 33.03 30.79 29.41 32.42 44.76 45.85 46.34 53.07 54.76 55.52 56.53 57.16 58.27 58.91 59.70 60.24 60.75 60.88 60.71 60.02 59.64 59.08 59.91 61.14 61.46 60.32 59.78 59.79 59.19 59.39 59.44 58.48 58.80 59.24
40.77 32.29 28.46 21.74 28.76 34.58 33.68 36.41 37.82 34.91 28.73 32.04 33.32 36.54 42.15 44.29 44.49 53.74 53.66 55.74 56.51 57.63 58.41 58.80 59.32 59.79 60.73 60.88 60.79 60.03 58.72 59.27 60.47 61.61 61.37 60.25 59.83 60.06 59.58 59.39 59.41 60.60 60.50 61.62
36.69 31.04 32.85 33.03 34.71 35.26 35.44 35.81 36.64 34.44 34.89 31.67 36.03 37.68 42.19 44.34 46.03 51.51 54.83 55.96 56.42 57.03 57.83 58.55 58.82 59.24 60.02 59.84 60.17 59.61 58.93 59.01 60.04 61.77 62.22 60.78 60.32 60.26 59.89 59.47 60.58 61.01 61.68 61.53
37.38 30.83 34.93 31.32 35.41 35.59 34.13 36.94 37.04 36.76 36.69 36.87 37.77 39.04 45.72 46.13 52.08 53.65 55.40 56.07 56.35 57.05 58.04 58.96 59.40 59.98 59.75 59.83 59.03 58.93 58.73 57.96 61.30 62.86 62.45 62.57 61.16 60.23 59.59 59.23 61.34 61.20 61.14 61.57
34.99 33.59 31.80 26.72 34.37 34.88 29.84 35.32 36.73 39.20 39.57 39.70 35.39 41.61 46.70 51.24 53.59 54.35 55.62 56.55 56.83 57.50 58.34 58.93 59.40 59.97 59.86 59.63 58.86 57.05 57.47 60.24 61.23 62.89 63.01 62.30 61.58 60.29 59.66 59.38 59.36 60.17 60.46 61.14
33.60 31.05 31.97 28.72 32.01 23.48 36.91 42.09 43.33 43.19 41.97 45.81 47.70 48.90 50.46 52.32 52.91 54.30 55.35 56.89 57.37 58.28 58.97 59.62 60.07 60.14 59.71 58.90 57.01 56.32 59.85 60.96 61.29 62.06 62.91 61.85 62.43 60.39 59.65 59.44 59.02 58.06 58.36 60.86
37.40 33.80 28.60 28.05 29.82 34.30 38.49 39.32 40.13 40.33 41.33 48.00 46.77 49.22 51.28 52.39 51.59 52.56 56.05 56.06 56.50 58.86 59.88 60.44 60.80 60.09 58.68 57.66 56.67 57.81 59.64 60.56 60.85 62.49 61.55 61.57 61.46 60.17 60.58 59.19 58.58 58.47 58.11 57.88
36.57 36.77 32.09 31.09 27.51 27.03 34.78 39.11 42.14 43.01 39.34 47.97 47.26 47.69 49.61 50.46 46.13 49.70 54.72 56.62 55.21 57.54 60.24 60.20 60.23 59.82 58.33 56.59 57.48 57.56 58.41 59.52 59.75 61.14 61.50 61.71 61.03 60.76 59.92 59.53 59.08 59.01 60.78 59.51
33.97 33.82 30.28 29.84 30.31 33.50 37.70 39.44 43.43 37.96 40.55 47.04 47.62 47.87 50.16 49.15 51.00 52.14 56.26 57.08 56.47 57.14 59.41 60.78 59.81 58.74 57.92 57.25 57.50 56.45 56.36 57.81 60.21 62.28 61.26 60.63 60.41 60.66 59.75 59.54 59.46 59.56 59.56 59.67
32.08 30.42 32.28 33.68 29.76 27.78 38.70 39.17 39.06 42.43 46.50 47.87 48.42 50.45 51.16 52.37 53.50 54.18 56.26 57.04 57.89 58.30 60.15 60.47 58.99 57.74 57.26 57.59 57.51 55.80 55.12 56.74 57.97 60.65 60.96 59.98 60.91 61.67 61.16 60.20 59.92 59.33 58.42 58.15
32.19 35.15 31.90 33.62 33.11 39.08 39.29 41.94 46.41 46.86 46.03 46.43 47.99 49.51 52.72 52.46 52.53 53.30 54.75 56.16 57.95 58.64 59.35 60.02 58.43 57.12 56.91 57.09 57.68 55.58 55.84 55.78 58.68 60.24 60.30 60.77 61.55 61.70 60.87 60.71 59.67 58.23 57.67 58.56
37.79 40.69 36.33 36.99 39.55 39.05 43.30 45.71 46.64 47.33 46.80 47.70 49.73 50.14 52.05 51.37 52.22 52.54 53.18 53.90 55.11 57.43 59.61 59.64 57.82 56.90 56.00 55.82 57.52 57.49 55.96 56.97 61.05 60.01 59.97 61.19 61.20 60.26 60.91 61.10 60.38 59.28 58.09 58.00
37.79 38.74 37.42 36.54 40.49 42.70 43.93 45.15 46.38 46.96 48.24 48.13 49.74 50.78 51.80 51.81 51.97 52.08 52.66 53.40 55.85 57.86 58.73 60.80 58.45 57.38 56.64 56.49 56.89 57.38 57.11 59.37 60.54 60.11 60.48 60.76 60.96 60.73 60.03 57.89 57.91 60.30 59.36 58.89
37.71 37.79 34.86 35.39 41.65 41.38 42.59 45.62 47.30 47.02 47.53 48.28 48.67 49.88 51.57 51.42 50.63 51.92 52.29 53.87 55.14 56.50 57.93 59.35 59.22 58.30 57.66 57.46 57.18 58.53 57.43 60.28 60.41 59.64 60.47 60.88 60.71 60.19 58.40 54.82 52.00 43.59 45.33 44.30

GFSCGP_sfc_wetblb_033.txt.gz
Wetbulb
37.60 32.28 31.45 36.19 38.41 39.23 37.66 37.28 36.61 40.93 44.75 44.04 43.06 43.70 46.11 48.66 49.28 49.54 50.65 51.75 52.23 52.70 54.26 55.33 55.78 56.48 55.19 54.78 54.73 55.52 58.99 62.27 65.05 65.20 64.78 63.97 64.71 63.54 63.43 65.29 65.84 65.46 65.49 65.63
33.25 31.60 37.08 38.64 38.62 37.87 36.95 34.85 34.58 39.68 43.15 41.28 41.76 41.88 44.89 47.17 48.10 49.42 49.84 50.07 50.55 51.54 52.95 53.96 54.25 53.95 54.14 55.86 55.51 54.06 57.90 63.02 65.11 65.80 65.65 63.27 62.86 61.51 63.21 64.51 65.53 65.69 65.25 64.87
30.50 34.79 40.08 37.98 36.09 35.48 35.13 34.36 35.26 35.84 40.62 41.83 39.57 38.28 40.85 44.28 45.41 47.42 48.67 49.82 49.77 50.14 51.26 51.74 52.83 53.06 53.51 54.75 56.82 58.32 59.94 63.89 64.98 64.24 62.99 62.02 61.63 60.83 60.34 61.26 62.61 63.39 64.24 63.91
32.19 36.64 36.30 34.81 34.74 35.93 31.04 38.69 39.01 38.34 35.50 30.89 38.62 30.06 38.47 41.90 43.04 45.19 45.87 47.01 48.21 49.63 50.42 50.92 52.43 52.36 53.21 55.28 61.13 62.78 63.99 64.88 65.10 64.76 62.60 62.55 61.37 60.22 58.91 59.94 60.52 61.87 63.44 63.42
31.57 33.39 33.02 33.33 34.75 37.96 34.28 38.54 37.59 38.17 35.14 31.82 33.80 29.80 36.84 39.17 39.72 42.41 44.89 46.34 47.89 49.49 50.15 49.94 51.28 51.19 54.61 60.75 62.94 64.13 65.26 65.25 64.67 63.78 63.14 61.32 59.94 59.17 58.98 59.59 60.04 60.16 61.04 62.43
35.77 39.00 37.17 35.33 37.82 37.79 38.67 35.88 35.76 35.40 32.14 24.87 33.32 31.83 33.70 37.15 40.07 42.12 45.00 46.49 47.79 48.11 48.83 49.45 51.52 52.66 58.40 61.78 64.22 64.85 64.71 62.81 63.17 62.63 61.30 60.93 59.90 58.79 58.88 58.34 58.72 58.94 59.40 60.66
35.90 34.34 38.35 39.06 34.10 37.21 34.72 28.35 22.59 21.50 22.46 25.01 35.15 32.40 35.58 39.26 42.18 43.18 43.78 45.49 46.86 47.53 47.38 50.19 56.32 57.98 60.44 62.31 62.95 63.75 63.50 61.32 61.56 60.99 60.16 60.08 59.47 59.40 58.96 58.71 58.82 58.60 58.92 58.96
28.97 26.92 36.43 41.72 36.93 33.40 31.25 29.52 22.89 19.99 22.29 26.17 35.93 30.15 35.66 42.24 45.21 46.51 46.74 45.94 46.48 46.86 49.52 51.34 57.14 59.40 61.79 62.44 61.96 62.47 62.24 59.93 60.08 59.92 59.37 59.62 59.43 59.34 59.14 58.81 58.92 58.94 58.72 58.94
29.82 30.11 40.25 40.84 40.66 37.64 32.26 27.77 33.52 26.91 28.80 25.16 30.83 35.04 40.60 43.87 44.25 44.62 44.87 44.83 44.89 48.99 54.79 56.56 59.53 61.19 61.72 61.51 60.27 61.59 60.92 59.75 60.13 59.53 59.39 59.39 59.76 59.50 58.95 58.84 58.95 58.70 58.55 59.56
33.19 26.86 36.44 38.96 39.66 39.36 34.81 37.15 26.87 25.15 21.21 20.78 27.70 30.60 33.88 38.59 41.75 43.02 43.99 44.35 46.83 53.96 56.16 58.79 60.45 60.77 61.05 60.89 60.05 60.55 60.30 60.17 59.74 59.72 60.27 60.09 59.64 59.43 59.06 58.73 58.45 58.47 58.25 59.26
32.87 29.66 31.33 35.28 32.72 29.54 31.59 30.22 31.37 29.63 27.03 22.77 22.96 27.90 38.59 40.45 41.92 42.43 43.83 46.70 50.29 54.37 56.74 59.01 59.89 60.26 60.60 60.11 60.26 59.30 59.69 60.08 59.60 60.03 59.32 59.64 59.57 59.70 59.22 59.01 58.97 58.80 58.39 59.73
35.72 30.43 27.18 29.85 35.25 38.42 35.41 33.44 32.30 25.63 25.47 28.80 27.06 29.46 42.46 40.55 40.93 43.53 46.00 50.53 53.81 55.50 57.56 58.94 59.28 60.08 60.43 59.81 59.93 58.89 59.17 59.94 59.80 59.64 59.51 59.16 59.30 58.90 58.28 58.52 58.92 58.43 58.69 59.58
34.96 28.15 23.71 24.79 31.14 35.80 32.53 35.48 34.32 32.21 30.11 27.56 24.80 28.99 42.26 41.79 43.07 49.44 51.74 53.44 54.92 56.79 57.81 58.51 59.19 59.84 60.10 59.68 59.79 59.16 58.69 59.32 59.46 59.48 59.08 58.69 58.41 58.30 58.26 58.66 58.24 57.76 58.38 58.22
39.09 32.53 27.36 23.15 26.81 32.62 29.75 34.14 36.42 33.61 27.02 29.38 31.46 33.18 38.90 40.80 42.08 44.26 50.24 53.35 53.89 56.91 57.80 58.41 58.80 59.43 59.97 60.06 59.64 59.31 58.23 58.79 59.90 60.26 59.45 58.59 58.05 58.30 58.08 58.38 57.54 57.54 58.28 58.76
35.47 29.03 30.85 32.04 33.51 34.11 33.24 33.03 33.98 33.50 34.04 29.49 33.22 33.62 39.26 41.27 44.07 45.92 48.25 53.86 55.36 56.23 57.23 58.17 58.29 58.96 59.58 59.11 59.14 59.18 58.19 58.38 59.70 60.50 59.42 58.53 58.94 58.88 58.65 58.03 58.48 59.45 60.22 60.94
34.66 28.00 32.80 30.59 34.21 33.67 32.12 34.41 35.38 35.53 36.35 35.36 35.46 34.73 43.49 44.93 47.33 51.89 51.71 54.54 55.33 56.23 57.60 58.24 58.67 59.27 59.31 59.42 59.00 58.61 57.75 57.92 60.39 60.55 60.76 61.71 61.22 59.27 58.69 58.12 60.00 59.62 60.89 61.54
32.60 31.19 27.70 24.63 32.10 32.81 28.42 34.00 35.03 36.54 37.64 36.52 33.20 38.97 44.85 46.99 50.25 51.96 52.17 55.23 56.12 56.90 57.85 58.17 58.74 59.29 59.57 59.36 59.48 56.86 57.40 57.98 60.05 61.96 62.43 61.71 60.15 59.32 58.76 58.40 58.87 60.29 59.25 60.56
30.04 29.74 30.20 27.28 30.04 20.73 34.03 41.97 40.81 37.75 40.09 41.11 42.01 45.89 48.57 49.19 51.04 52.51 54.12 53.52 56.26 57.55 58.00 58.53 59.33 59.34 59.41 58.76 57.97 56.28 57.31 59.27 60.49 62.30 62.11 60.68 60.03 59.08 58.55 57.82 57.71 56.89 58.23 59.50
35.30 31.66 29.28 26.46 26.89 31.89 36.09 38.13 37.66 36.58 38.27 45.25 44.58 46.51 47.97 51.21 50.31 50.51 55.47 55.87 55.05 56.91 58.69 59.05 60.15 59.73 59.11 56.83 56.48 56.96 58.12 59.67 60.79 61.00 60.65 60.74 60.13 58.64 58.46 57.73 56.93 56.50 57.06 56.40
36.71 35.06 30.63 29.70 24.55 23.99 36.08 38.46 40.81 41.04 34.14 44.65 45.95 45.50 46.19 47.90 43.69 47.41 54.06 56.12 56.68 55.95 59.18 58.73 59.80 59.35 58.01 56.18 56.61 57.40 57.90 58.91 60.00 61.32 60.54 60.74 59.56 59.37 58.62 57.92 57.23 57.37 57.14 57.26
33.52 32.54 28.65 28.44 27.32 32.86 37.76 38.22 39.45 33.59 36.62 44.74 46.46 46.37 46.39 46.86 48.93 52.86 55.17 56.94 57.89 57.26 58.06 58.71 59.15 58.11 57.97 55.87 56.64 56.96 57.84 58.11 59.94 61.27 60.77 59.88 58.99 59.33 59.18 57.95 57.63 58.05 58.56 58.30
31.39 29.52 31.37 31.62 29.43 26.82 38.23 36.38 38.07 41.90 45.30 47.12 46.44 46.65 48.83 50.89 52.68 54.89 56.28 56.82 57.73 56.89 58.21 59.31 58.32 57.70 55.73 56.85 57.01 55.82 57.10 59.20 59.24 60.07 59.72 58.61 58.59 60.22 59.56 58.37 57.87 58.02 57.66 56.98
31.18 34.11 30.82 32.11 31.93 36.05 37.32 37.18 44.60 47.15 46.38 47.03 46.78 47.80 49.00 50.64 51.14 52.88 53.36 54.31 56.20 57.68 58.66 59.28 58.57 55.42 55.99 56.72 57.18 55.02 56.91 55.63 58.47 59.01 58.08 58.65 59.32 59.48 59.23 58.40 57.28 56.66 56.72 57.00
37.13 40.57 35.85 35.98 38.29 39.90 42.12 44.91 45.62 47.01 46.80 48.33 48.92 48.64 51.16 50.32 51.30 51.63 53.99 54.40 55.94 58.38 57.64 57.51 56.28 55.73 54.96 55.67 56.19 56.84 54.49 56.17 58.68 57.99 58.20 59.48 59.41 58.62 59.36 59.49 58.24 57.26 56.66 56.86
36.42 38.27 36.38 36.56 39.88 41.87 42.92 44.89 46.80 46.65 48.38 48.44 49.64 50.33 51.86 51.07 50.92 51.34 52.08 53.85 55.26 56.22 58.45 57.36 56.65 55.76 55.72 55.33 55.51 54.72 55.10 58.49 57.87 58.46 59.29 59.48 59.04 59.30 58.42 57.46 56.72 57.86 57.46 57.28
36.76 37.52 36.29 34.50 40.13 40.87 41.87 45.66 47.56 47.35 47.67 48.86 49.13 49.61 50.36 50.69 50.76 52.21 52.04 54.40 55.18 55.96 56.22 57.45 57.25 56.56 56.39 56.21 55.51 54.92 56.92 59.32 58.52 58.11 59.38 59.71 59.44 59.17 57.80 55.27 52.81 41.34 46.31 48.40

GFSCGP_sfc_wetblb_036.txt.gz
Wetbulb
36.11 31.13 29.85 34.42 37.06 38.23 36.29 34.53 34.29 38.40 42.77 41.45 41.47 42.61 44.97 47.09 47.06 47.53 48.84 49.70 50.62 51.47 53.84 54.43 53.97 54.73 54.37 54.31 54.02 54.37 54.48 58.45 64.74 64.52 63.53 63.17 64.47 64.85 64.81 65.44 65.82 65.80 66.02 65.44
31.68 28.07 35.20 37.81 37.75 36.59 35.54 32.46 32.31 37.15 40.98 39.35 38.52 38.02 41.33 43.30 44.40 46.41 47.75 48.38 48.75 49.37 50.02 51.88 52.34 53.68 52.76 53.49 54.33 53.62 54.11 60.00 64.37 64.88 63.75 63.85 63.74 63.94 64.46 65.22 66.01 66.47 65.98 65.42
29.01 32.23 37.86 36.35 34.87 33.82 33.07 32.19 32.70 33.77 38.72 40.01 37.95 36.74 39.99 43.46 43.60 45.18 46.10 47.25 48.48 49.54 50.36 51.50 51.79 51.58 51.74 51.91 53.24 54.48 54.14 60.32 62.98 63.60 62.63 61.59 61.46 61.62 61.85 63.08 64.05 64.96 65.78 65.60
30.78 35.18 34.77 33.29 32.92 34.87 29.68 36.85 36.87 36.75 33.70 28.84 36.51 27.99 37.14 40.79 42.01 43.36 44.08 44.96 46.59 46.79 48.88 50.10 50.01 50.46 52.28 53.15 53.68 57.57 59.29 62.08 63.56 63.46 62.04 62.72 61.11 60.95 60.85 62.71 63.16 64.02 65.02 64.62
32.05 32.34 31.28 31.24 32.78 36.22 32.17 37.42 35.57 36.22 32.44 30.11 32.46 27.92 35.48 36.99 37.68 39.17 42.65 44.75 45.77 47.24 47.54 47.93 48.57 50.64 52.13 51.58 57.36 61.21 62.81 63.98 63.81 63.28 63.04 61.69 60.18 59.52 60.08 60.81 61.67 62.07 62.94 63.69
36.13 39.31 35.40 34.05 36.64 36.78 38.19 35.17 33.99 32.09 29.95 23.58 30.72 30.27 32.36 35.31 38.10 40.31 41.85 43.70 44.79 44.89 45.57 46.83 48.46 48.68 50.34 57.61 62.01 63.65 63.22 62.56 62.92 62.79 61.54 61.22 59.95 59.70 60.08 59.62 60.16 60.48 61.02 62.03
35.39 34.17 38.05 37.62 32.03 34.48 32.60 27.26 20.86 19.59 19.97 22.08 32.84 29.95 33.76 36.51 40.21 41.11 42.47 43.67 44.77 45.55 45.62 45.91 46.40 52.76 56.48 61.23 62.70 63.71 62.71 61.37 61.63 61.30 60.98 60.83 60.16 60.62 60.13 59.80 59.38 59.40 59.63 60.38
29.80 25.78 33.30 38.70 33.92 30.07 29.42 28.14 21.15 19.70 20.36 22.34 32.90 27.76 33.18 40.66 43.37 43.78 44.16 43.84 44.25 44.36 44.58 45.39 47.88 55.33 60.43 61.79 63.08 62.41 62.00 60.52 60.59 60.91 60.24 60.50 60.52 60.38 59.65 59.65 59.87 59.73 60.22 60.87
29.89 28.99 38.14 39.62 39.02 36.44 30.79 25.98 32.45 25.30 26.66 22.50 27.01 32.14 37.95 41.55 42.42 42.70 42.68 43.54 43.81 44.18 44.53 52.65 58.23 60.17 61.14 61.88 61.64 61.49 60.49 59.80 59.80 59.74 59.89 59.64 59.92 60.03 59.62 59.70 60.06 59.84 60.35 60.91
33.98 26.41 36.18 38.32 40.09 38.91 33.42 34.51 25.05 22.63 19.69 19.46 25.20 27.94 30.77 36.86 38.42 41.77 42.48 42.67 43.89 44.78 53.49 57.92 59.23 60.05 60.39 60.25 60.44 59.90 60.15 59.61 59.69 59.82 60.23 59.92 59.85 60.06 59.64 59.97 59.49 59.79 60.20 60.65
34.82 29.13 31.74 35.38 32.39 30.21 31.80 28.09 28.89 26.48 24.54 21.57 21.78 26.13 36.04 37.71 39.41 40.03 41.93 47.33 48.09 48.15 55.65 58.00 59.35 60.60 59.30 59.86 59.30 59.36 59.39 59.45 59.51 60.18 60.00 59.90 59.61 59.77 59.56 59.48 59.57 59.80 59.55 60.56
35.66 31.06 26.79 29.12 34.69 36.62 33.33 30.84 30.75 24.96 24.15 26.70 24.11 25.68 38.47 38.68 39.43 41.49 44.20 49.24 53.53 53.08 57.25 58.36 58.95 60.23 59.17 58.75 58.99 59.24 59.56 59.65 59.68 60.22 59.99 59.57 59.64 59.21 59.14 59.31 59.82 59.66 59.89 60.81
34.90 29.35 23.86 25.05 30.88 34.33 30.89 32.97 31.94 29.94 28.11 24.68 22.69 26.44 39.33 40.88 41.62 43.23 43.70 48.39 54.30 55.91 57.41 57.91 59.44 59.94 59.09 58.53 58.64 59.32 59.41 59.39 59.55 59.80 59.29 59.06 58.74 58.56 58.66 59.37 59.43 59.52 60.07 60.47
38.42 31.39 27.42 20.67 25.49 30.26 28.65 31.97 33.26 32.63 26.29 26.83 28.54 30.99 36.96 39.68 40.08 42.65 44.59 47.60 53.39 56.01 57.59 58.19 59.33 59.19 59.02 58.88 58.88 59.01 59.01 59.83 59.65 59.67 59.05 58.63 58.54 58.91 59.04 59.43 59.04 58.91 60.18 59.63
33.66 29.38 30.30 30.45 32.42 32.79 32.01 31.41 32.14 31.48 32.04 29.15 31.36 32.28 36.89 39.31 40.87 43.07 45.31 50.52 54.74 55.75 57.61 58.24 58.45 58.68 58.37 58.38 58.71 58.81 58.84 59.50 59.77 59.73 58.95 58.87 58.92 59.01 58.95 58.74 58.63 59.12 59.68 60.65
37.33 30.10 29.91 28.51 32.30 32.93 30.61 32.32 32.77 33.02 33.35 33.28 34.48 34.02 41.31 42.17 43.69 46.55 49.54 52.24 54.51 55.87 57.46 58.26 58.66 59.00 58.79 58.90 58.67 58.43 58.27 58.95 60.28 59.99 59.39 59.92 59.97 59.52 59.04 58.82 59.95 60.42 61.43 61.59
34.50 32.57 25.99 23.08 30.38 30.30 25.08 30.50 32.73 33.30 35.18 34.86 30.94 35.61 41.46 43.41 46.07 46.68 49.52 52.26 54.83 56.53 57.66 58.06 58.66 59.41 59.40 59.16 59.21 57.77 57.41 58.93 60.25 60.66 61.20 61.41 60.44 59.66 59.36 59.39 59.63 60.59 60.87 61.31
33.74 31.90 29.85 24.39 27.30 18.69 30.82 40.18 39.68 35.23 36.10 37.76 37.79 39.42 44.34 47.50 49.02 50.88 53.22 52.73 55.14 57.26 58.19 58.48 59.01 59.23 59.15 58.86 58.11 57.30 57.71 59.21 60.24 61.15 61.80 61.04 60.28 59.49 59.16 58.96 59.82 59.90 60.28 60.00
35.82 32.24 27.15 23.07 24.34 29.95 33.10 37.40 37.13 35.44 34.97 40.55 43.04 45.01 46.98 48.42 49.48 50.08 54.71 55.47 55.01 56.92 58.19 58.72 59.55 58.80 58.61 58.23 57.13 57.48 57.75 59.38 60.64 61.69 60.76 60.49 60.00 59.10 58.74 58.18 58.02 58.76 58.85 58.07
35.90 35.24 29.38 28.59 23.20 20.47 34.26 34.28 39.96 39.91 32.32 44.56 45.50 45.56 46.28 46.33 43.06 46.98 53.58 55.50 55.97 57.20 58.53 58.55 59.06 58.91 57.48 56.66 56.78 57.70 57.90 59.28 60.10 60.78 60.72 60.98 60.20 59.48 58.90 58.41 58.02 58.74 58.78 58.32
32.28 31.32 27.20 27.59 25.81 30.42 37.53 38.21 39.26 32.90 33.09 44.35 46.42 45.67 45.70 44.71 47.26 50.74 54.20 55.44 57.09 57.59 57.71 58.88 59.08 58.19 57.71 55.61 57.20 57.20 57.87 58.78 60.87 61.48 60.98 60.82 59.97 59.68 59.53 58.72 59.05 59.22 59.15 58.79
30.81 28.94 29.63 30.28 27.17 25.66 36.66 36.70 35.84 40.04 41.28 46.02 46.40 46.82 46.75 46.91 49.15 52.83 55.23 55.66 56.11 57.14 57.12 59.03 58.33 57.19 55.97 56.49 57.55 56.81 57.64 59.47 60.54 61.23 60.55 59.93 59.31 60.48 59.52 58.89 59.24 59.22 59.26 58.40
30.31 33.13 30.61 31.00 31.36 37.77 37.16 36.83 39.38 41.13 42.97 46.72 47.09 47.84 47.89 48.41 49.55 52.29 53.77 54.51 55.88 57.51 57.81 59.33 58.77 56.31 55.38 56.70 57.93 56.96 58.14 58.78 59.72 60.11 59.29 59.24 59.44 60.05 59.54 58.88 58.53 58.23 58.44 58.03
35.98 40.00 35.24 35.27 37.82 39.68 40.36 43.08 43.91 46.58 46.31 48.82 48.84 49.56 50.22 50.68 50.60 52.53 54.47 54.55 55.05 57.74 58.01 58.59 56.71 55.67 54.76 56.41 57.22 58.52 57.13 58.69 59.49 58.86 58.68 59.29 59.40 58.94 59.82 59.61 59.02 58.24 57.71 57.86
36.45 36.58 36.42 36.18 38.57 40.93 42.00 43.24 45.60 46.19 48.63 48.89 51.28 51.81 51.79 51.39 51.10 52.84 53.86 54.61 55.55 56.61 58.11 57.10 56.45 55.93 55.82 56.42 56.37 56.02 56.68 58.94 58.53 58.71 59.11 59.53 59.11 59.52 59.29 58.21 57.47 58.98 58.87 58.06
37.67 37.62 35.96 35.12 40.53 41.01 41.61 45.36 46.38 45.79 47.81 48.43 48.38 49.71 51.39 50.33 50.37 51.68 52.23 54.62 55.78 56.80 58.03 56.98 56.12 55.82 55.97 56.26 55.80 55.28 57.25 58.65 58.65 58.41 59.32 59.37 59.53 59.90 59.02 56.95 54.90 41.79 46.04 46.44

GFSCGP_sfc_wetblb_039.txt.gz
Wetbulb
41.34 37.12 34.77 38.23 40.60 41.61 40.83 39.32 39.55 43.24 46.41 45.58 45.17 45.87 48.31 50.94 51.14 51.42 52.56 53.52 54.59 56.11 58.05 59.42 61.03 62.45 63.52 65.66 65.96 67.39 65.57 66.15 65.17 67.03 67.30 67.91 67.87 68.12 68.00 68.70 69.84 69.80 69.82 69.51
37.84 34.56 38.78 39.92 40.01 39.13 39.12 37.92 38.07 41.02 44.09 43.78 44.93 44.46 47.76 48.47 48.98 50.47 51.09 52.29 53.48 54.83 56.00 58.45 60.19 61.85 63.10 64.14 65.11 66.35 64.82 65.12 66.19 67.49 68.75 69.08 69.16 67.38 66.73 68.85 70.00 70.41 69.75 68.94
35.29 38.32 40.18 38.04 37.68 37.00 37.99 37.07 38.02 37.88 42.08 44.04 42.35 41.09 44.14 47.91 49.63 50.33 51.29 52.23 52.83 53.34 54.45 57.32 58.41 60.67 62.17 63.40 64.30 65.22 65.31 64.80 67.11 69.09 69.18 68.94 68.50 66.25 66.19 67.49 67.54 68.30 69.22 69.36
36.78 40.37 37.80 37.23 35.46 37.33 33.79 39.86 39.51 39.12 38.49 34.88 42.78 34.30 42.58 45.69 46.43 48.34 49.64 50.89 51.78 52.81 54.07 55.40 57.25 59.28 61.05 61.75 62.92 62.68 64.56 65.17 67.28 69.27 68.92 68.58 67.99 66.06 67.76 67.84 69.14 68.54 69.97 69.70
35.99 37.46 36.59 35.43 36.28 38.63 35.40 40.51 38.75 38.21 37.22 37.11 37.78 34.95 39.55 44.73 43.45 46.01 48.09 49.52 51.44 53.25 53.49 53.62 54.85 57.13 58.18 60.46 60.32 62.55 66.09 66.79 67.73 68.83 69.38 68.68 68.98 68.63 69.03 68.87 68.72 69.74 69.90 69.51
38.96 43.37 40.40 38.17 39.35 39.19 40.70 38.55 38.60 38.68 36.84 29.86 35.56 35.03 36.84 40.82 43.95 45.84 48.29 49.70 50.88 52.04 52.77 53.40 55.21 56.30 56.93 58.37 61.84 66.14 67.58 68.02 67.96 68.60 69.36 69.55 68.72 67.43 67.49 68.13 68.11 68.12 68.37 68.50
37.41 38.07 41.47 41.91 36.75 38.99 37.67 35.63 28.52 26.77 27.33 27.42 37.21 34.44 37.35 43.66 45.24 46.21 47.40 49.85 51.46 52.46 53.06 54.32 55.49 55.84 57.32 62.16 64.96 65.94 68.09 67.54 68.47 68.70 68.50 68.87 68.58 68.96 68.67 68.64 67.54 66.93 66.83 67.21
31.11 27.22 35.63 40.63 38.23 35.27 36.01 34.98 30.13 22.99 25.74 29.35 36.08 31.73 37.79 45.19 47.26 48.52 48.94 50.71 51.63 52.88 54.21 54.40 54.59 55.83 59.28 63.82 64.60 66.72 67.92 67.55 68.06 67.95 67.63 68.00 68.53 68.18 67.82 68.01 67.29 66.96 66.94 67.43
29.97 29.75 38.97 39.76 41.14 39.29 35.34 32.03 38.12 32.10 33.18 31.08 33.60 37.33 41.80 43.95 44.82 47.06 48.01 51.13 53.88 55.56 56.67 56.78 60.66 61.76 63.24 63.75 64.11 67.92 67.95 67.60 67.61 67.34 67.27 67.22 67.41 67.46 66.64 67.15 67.60 67.18 67.80 67.07
35.06 28.97 37.11 36.47 40.54 41.05 38.30 39.79 31.47 32.99 25.04 24.64 31.91 33.47 36.58 41.84 43.27 46.96 48.67 50.41 53.04 57.61 58.91 58.76 61.78 61.64 62.92 64.36 67.55 68.21 67.78 67.27 66.88 66.97 67.03 66.84 66.95 66.90 66.76 66.95 66.68 67.02 67.14 66.67
37.98 33.49 32.85 37.22 34.56 32.63 35.13 34.23 35.49 35.64 33.77 28.54 29.27 34.24 43.52 43.60 45.03 45.51 47.50 49.22 52.58 57.62 58.27 60.02 60.30 61.90 64.14 66.36 66.81 66.76 66.62 66.14 66.18 66.43 66.20 65.97 65.97 66.21 66.69 66.52 66.62 66.64 66.50 66.11
38.49 34.74 29.11 32.06 38.42 39.76 37.53 35.14 36.05 31.03 29.92 32.98 32.15 33.16 44.35 45.36 46.02 46.94 47.56 48.75 51.11 58.70 58.19 59.53 60.81 62.31 64.57 65.50 65.87 66.02 66.23 65.98 66.03 66.04 65.92 65.80 66.11 66.21 66.15 65.85 65.99 65.73 65.46 65.90
38.36 32.96 26.75 29.33 34.78 37.86 34.12 36.03 36.56 36.88 35.99 31.74 29.80 33.19 44.72 45.34 45.77 47.30 47.59 49.29 52.34 58.78 58.42 59.19 60.72 63.47 64.65 65.11 65.00 64.98 65.19 64.99 65.45 65.56 65.31 65.39 65.42 65.72 65.49 65.43 65.22 65.43 65.63 65.79
41.14 34.54 30.40 26.00 29.87 33.96 31.78 34.08 36.13 35.32 31.23 32.49 33.43 35.81 40.35 42.88 43.72 46.12 47.56 50.14 53.14 58.21 58.47 59.43 60.51 62.92 64.53 64.62 64.29 64.10 64.31 64.94 65.08 65.01 64.94 64.60 64.77 65.36 65.27 65.37 65.34 65.56 65.80 65.36
38.01 31.24 33.42 33.76 34.58 34.82 33.77 33.18 34.27 33.32 34.53 31.14 34.86 36.25 39.97 43.12 44.59 46.37 48.42 50.56 50.22 53.44 58.77 59.32 59.68 62.01 63.63 63.84 64.00 63.91 64.06 64.44 64.95 64.15 64.34 64.43 64.79 65.20 65.12 64.67 64.70 65.07 65.13 64.92
38.23 32.18 33.68 31.48 34.50 34.34 31.76 33.90 34.64 35.11 35.52 35.29 35.86 35.82 43.31 45.31 46.32 46.35 47.81 48.95 49.57 54.77 59.41 59.58 60.18 62.28 63.20 63.29 63.37 63.63 63.92 64.03 64.45 63.96 63.99 64.51 64.39 64.34 64.17 64.01 64.32 64.31 64.51 64.55
35.73 33.11 31.52 26.96 32.66 31.88 28.05 33.18 34.54 35.85 37.65 37.35 33.35 38.67 43.09 43.17 44.84 46.61 49.35 51.40 52.62 56.32 60.18 61.41 61.57 63.05 63.75 63.53 63.68 63.45 63.88 64.32 64.11 64.08 64.31 64.44 64.47 63.75 63.41 64.22 64.38 64.63 63.81 63.40
34.04 33.47 32.18 27.87 29.95 20.44 33.58 40.73 40.28 38.67 40.49 42.26 40.40 41.75 43.25 44.27 46.83 50.60 52.12 52.12 54.93 58.47 60.95 62.70 63.58 63.74 64.19 64.28 64.04 64.22 64.15 63.92 64.00 64.40 64.34 64.50 64.33 63.68 63.62 64.08 64.28 63.88 64.11 63.15
36.84 33.67 28.92 26.42 26.21 30.24 33.27 36.92 35.68 34.28 36.39 43.05 42.04 42.57 44.28 46.02 48.51 49.50 53.06 55.33 58.86 60.68 62.51 63.72 64.54 64.48 64.42 64.04 64.26 63.55 63.06 63.74 64.08 64.35 64.68 64.60 64.39 63.78 63.45 63.39 64.35 65.26 63.87 63.10
36.62 35.86 30.72 29.05 23.83 21.77 34.96 38.23 40.72 37.99 31.94 44.35 44.77 44.56 46.08 47.71 41.95 48.03 56.83 58.96 59.98 61.68 63.36 63.77 64.43 64.47 64.31 64.33 64.14 62.98 62.43 63.19 63.58 64.54 64.96 64.82 64.22 64.07 63.31 64.10 64.53 65.00 65.73 64.15
33.13 31.98 28.39 28.37 27.03 30.82 36.78 37.65 39.37 30.44 35.65 41.01 45.18 47.59 48.07 44.90 47.76 54.30 54.94 57.38 60.67 61.60 63.26 64.41 64.30 63.84 64.07 64.05 63.88 62.55 62.82 62.82 64.38 65.45 65.30 64.47 64.52 64.29 64.37 64.38 64.95 65.12 64.23 63.67
31.68 30.76 30.84 30.67 27.74 26.68 39.19 36.85 32.34 37.35 39.86 40.48 43.00 47.56 48.59 49.33 51.22 52.57 54.11 57.66 60.28 61.09 62.63 63.92 63.61 63.94 64.24 64.21 63.50 62.79 62.91 64.42 65.19 65.48 64.63 64.35 64.78 63.82 63.85 64.04 64.17 62.75 62.91 62.24
32.58 35.02 31.86 31.66 32.37 39.30 40.44 35.93 39.15 41.59 41.76 44.48 45.56 48.41 50.00 50.88 51.35 53.68 56.30 59.05 60.33 61.47 62.57 64.11 63.82 63.42 63.43 64.02 64.05 62.82 64.06 64.45 65.00 65.16 64.37 64.51 64.50 64.30 64.26 64.03 63.91 61.23 62.34 61.65
38.51 40.25 35.54 34.17 38.43 38.58 41.13 40.49 43.07 44.64 45.01 47.49 50.06 51.47 50.82 51.51 53.80 55.48 57.26 58.87 60.39 61.94 62.29 63.57 63.76 62.79 62.40 63.58 64.05 64.35 64.42 64.48 64.76 64.95 64.21 64.34 63.96 63.47 64.19 64.10 64.07 63.92 62.50 61.21
39.01 38.11 36.82 36.06 38.96 40.72 41.33 44.01 44.32 45.83 48.23 49.12 50.84 51.36 52.15 52.97 54.60 56.94 57.84 58.93 60.12 60.81 61.94 63.18 63.00 62.87 62.79 63.53 63.98 64.52 64.10 64.45 64.47 65.05 64.43 64.32 64.33 64.17 64.06 64.03 63.15 63.93 64.16 61.03
40.46 37.47 35.21 35.01 40.93 41.05 41.00 44.78 45.91 45.50 47.09 48.44 48.73 50.07 50.36 52.20 54.70 57.77 58.07 59.37 59.55 59.54 60.69 61.13 61.89 63.14 63.30 63.41 63.51 63.81 64.11 64.39 64.74 64.12 64.10 64.03 64.29 64.25 63.45 62.24 60.64 41.74 46.80 45.64

GFSCGP_sfc_wetblb_042.txt.gz
Wetbulb
45.90 41.59 39.29 41.53 42.94 42.67 42.47 42.36 42.77 45.81 48.46 47.59 47.95 48.56 50.69 53.54 54.10 54.58 55.66 56.58 57.64 58.43 60.32 61.77 62.56 63.66 64.47 66.02 69.07 70.51 70.47 73.05 70.29 68.26 69.06 70.00 70.03 71.71 72.08 72.67 73.04 72.75 72.37 72.06
41.83 38.71 42.72 43.62 42.30 41.28 41.14 40.19 41.25 45.26 46.90 47.33 47.12 47.24 50.50 52.21 53.12 54.43 55.14 55.97 56.98 58.01 58.96 60.06 61.53 62.76 63.91 66.39 68.23 70.56 71.22 72.28 70.52 68.71 70.66 70.82 71.50 71.75 72.27 72.30 72.44 72.41 71.97 71.71
38.88 40.76 43.39 41.33 40.36 38.63 39.33 38.65 39.93 40.92 45.09 47.20 46.10 44.79 47.60 51.30 53.19 54.09 54.92 55.86 56.47 56.85 57.22 58.54 59.67 61.53 62.74 64.87 67.99 68.95 70.35 70.78 70.96 71.18 71.17 72.07 72.55 71.54 69.08 70.20 70.91 70.97 71.08 70.28
40.47 43.04 40.75 40.12 39.34 40.39 36.24 41.40 40.87 40.73 40.90 37.54 46.00 37.10 45.47 48.65 49.75 51.61 53.06 54.45 55.31 56.38 57.27 57.90 58.96 60.11 62.03 62.87 64.52 67.74 69.82 69.17 69.64 71.44 72.69 73.03 70.25 68.69 69.45 71.06 70.20 69.38 70.08 70.47
38.59 40.12 40.16 39.01 39.76 41.73 38.55 41.89 40.40 41.29 39.81 40.68 40.95 38.98 43.46 48.22 47.07 49.70 52.33 53.56 54.86 55.79 56.64 57.14 57.89 59.12 60.29 61.63 62.52 66.06 67.66 68.04 70.00 71.43 72.54 71.27 71.93 71.32 71.77 71.67 69.22 69.78 70.55 70.95
41.64 45.71 43.61 42.31 43.26 43.24 42.92 40.06 40.21 40.43 39.55 33.81 39.59 39.81 40.77 44.18 46.87 49.20 51.72 52.97 54.02 54.73 55.50 56.83 58.63 59.54 59.94 61.19 62.50 63.99 65.81 69.20 70.75 71.72 72.08 72.51 72.33 72.11 71.39 71.36 69.30 69.88 70.62 71.56
40.06 40.66 43.74 44.02 40.13 43.14 40.73 36.77 30.38 29.57 30.88 30.38 40.29 38.42 41.10 47.02 48.64 49.42 50.21 51.34 53.73 55.66 56.31 56.89 58.02 58.73 60.29 61.66 63.67 66.95 68.97 70.21 71.12 71.37 71.59 72.30 72.87 72.74 72.49 71.95 71.45 70.93 70.28 70.38
33.04 30.99 38.25 40.29 39.72 38.10 38.08 36.45 31.27 24.31 28.92 32.46 38.87 35.14 40.61 47.72 49.76 50.81 51.35 53.05 53.90 55.79 58.43 59.47 60.71 60.42 60.12 61.40 65.71 68.24 69.60 70.36 71.20 71.61 72.11 72.93 73.21 72.64 72.62 72.84 71.75 71.14 70.22 69.88
32.85 32.86 41.20 41.80 43.55 42.53 37.90 33.47 40.42 33.22 34.45 32.76 37.17 40.12 44.33 47.29 48.23 49.62 50.82 51.62 54.70 57.28 60.03 62.51 63.34 63.63 63.88 65.51 67.82 69.38 70.65 70.96 71.38 71.94 72.13 72.58 73.09 72.93 72.07 72.18 71.89 69.69 70.69 70.16
37.92 30.37 39.28 39.33 41.78 43.04 40.50 41.71 33.44 34.89 25.34 26.49 35.23 37.01 38.24 43.91 45.58 47.94 50.22 51.43 53.51 57.09 61.21 62.99 63.51 64.96 66.17 67.24 69.06 70.90 71.24 71.13 71.42 71.56 71.75 71.47 71.48 71.54 71.42 70.86 69.86 70.06 70.42 70.25
40.07 36.16 35.63 40.35 36.58 35.20 38.22 36.93 36.87 35.67 35.34 28.25 31.70 36.57 45.88 46.66 48.73 49.11 50.06 51.89 53.80 58.69 62.26 63.23 63.87 63.78 65.34 69.32 70.25 70.81 71.01 70.75 70.84 70.95 70.98 70.88 70.44 70.11 69.88 69.77 69.85 70.20 70.07 69.58
41.53 37.25 32.27 35.02 41.05 42.37 39.69 36.25 34.63 31.84 30.42 35.93 33.75 37.08 48.85 49.44 49.73 49.89 50.48 51.68 53.89 58.52 62.10 61.29 62.05 64.24 68.11 69.10 69.82 70.16 70.49 70.25 70.45 70.45 69.92 69.32 69.31 69.61 69.47 69.28 69.47 69.63 68.23 67.72
40.74 36.06 29.97 31.78 37.80 40.85 37.57 37.59 39.24 38.46 38.82 33.17 31.50 36.82 49.08 49.09 48.34 49.78 50.21 51.58 52.94 54.52 60.91 61.23 61.73 64.25 67.48 68.78 69.27 69.39 69.58 69.43 69.29 68.89 68.46 68.49 68.47 68.71 68.67 68.54 68.39 67.89 67.17 67.03
41.26 37.19 31.85 29.13 33.26 37.11 34.72 36.84 38.62 37.99 33.24 34.28 35.41 38.54 43.90 46.54 47.23 49.03 50.18 51.86 52.34 53.44 58.82 61.06 61.37 63.69 66.89 68.15 68.49 68.62 68.43 68.54 68.11 67.80 67.62 67.50 67.48 67.75 67.85 67.69 67.45 67.10 67.09 66.92
38.15 33.52 36.20 36.61 38.10 37.88 36.85 36.16 37.15 36.56 37.72 34.49 37.46 38.39 42.99 45.86 47.15 48.90 50.59 50.77 51.08 52.36 56.31 61.67 60.93 62.42 64.50 66.34 67.42 67.54 67.31 67.15 67.25 66.19 65.87 66.31 67.26 67.70 67.28 67.05 67.11 66.84 67.11 66.82
40.33 34.76 36.59 34.39 37.73 38.03 35.73 37.72 38.04 37.94 38.22 38.30 39.03 38.80 45.11 46.55 47.33 47.32 48.26 49.78 50.50 52.53 54.99 61.82 61.16 62.23 63.97 64.81 66.36 66.45 66.20 66.03 65.76 65.11 65.54 66.51 66.71 66.74 66.62 66.35 66.29 66.62 66.45 66.72
36.53 34.87 33.49 30.29 36.09 36.08 31.78 36.73 38.32 38.83 40.42 39.89 36.72 41.91 46.21 45.71 45.87 47.29 48.50 49.83 51.36 53.41 55.73 62.13 61.43 64.02 64.50 65.63 66.57 65.75 65.90 65.16 64.86 65.26 66.02 66.21 66.40 65.73 65.36 65.59 65.48 65.67 66.31 67.23
35.31 35.41 35.23 31.61 33.37 24.47 36.79 42.15 42.60 40.26 41.19 42.96 43.16 45.03 46.60 46.69 48.14 49.08 49.94 50.92 53.09 54.77 56.94 62.76 63.64 64.81 65.19 66.44 66.65 66.59 65.16 64.05 64.71 65.12 65.62 66.08 65.66 64.81 64.68 64.84 65.03 66.13 66.84 66.75
37.09 34.99 31.78 28.63 28.46 32.89 35.77 37.98 37.02 37.09 37.58 42.79 42.75 46.61 48.01 49.21 48.45 48.68 51.28 53.04 55.54 57.16 60.62 63.64 65.36 65.74 66.01 66.66 66.83 65.77 63.59 64.26 64.65 64.70 65.30 65.52 65.37 65.02 63.78 63.40 65.24 65.73 65.75 65.89
37.97 36.67 34.02 31.43 27.43 24.03 35.11 40.51 41.71 39.45 32.88 45.05 46.59 47.47 47.79 48.24 42.21 46.24 53.25 59.06 60.30 62.68 63.16 64.81 65.65 66.73 66.54 66.45 66.57 63.97 63.86 64.38 64.53 64.37 64.50 65.18 65.69 65.26 64.42 65.39 65.45 65.97 66.49 66.05
34.71 33.67 29.66 30.20 29.60 32.94 39.68 40.00 40.21 31.06 36.03 41.63 43.94 44.62 45.99 47.72 49.48 53.25 55.46 57.42 59.46 61.95 63.84 65.36 65.88 65.99 66.24 66.63 65.59 63.11 64.04 64.30 64.81 65.25 65.94 65.60 66.04 65.94 65.79 65.98 65.95 65.72 65.91 65.67
33.31 32.42 33.85 34.41 30.15 28.79 40.95 37.66 35.09 40.36 41.79 40.92 43.07 44.49 47.42 51.45 52.89 53.59 54.73 57.11 58.84 60.95 64.15 65.61 65.93 65.87 66.33 66.20 64.05 62.38 64.03 65.93 65.60 65.66 65.54 65.48 66.16 65.55 65.59 65.76 65.90 65.63 65.98 65.31
34.30 36.01 32.78 32.96 34.70 41.57 42.25 38.98 40.33 41.29 39.57 41.66 44.18 47.65 49.24 51.19 52.71 54.09 55.70 57.01 58.74 62.85 64.63 65.41 65.88 65.42 65.78 64.87 63.70 63.47 65.25 66.18 65.32 65.55 65.60 65.81 66.11 66.09 66.14 65.96 65.67 64.71 65.48 64.31
40.36 42.67 35.63 34.91 40.10 40.63 42.49 43.28 43.62 44.18 43.26 45.70 49.40 51.37 51.62 52.55 54.17 55.07 57.05 59.79 61.86 63.22 64.63 66.20 65.86 65.00 64.37 63.80 64.12 65.44 66.13 66.43 66.10 65.40 65.75 66.02 65.68 65.46 66.26 65.82 66.27 65.84 65.40 64.19
40.99 41.62 36.52 36.76 39.67 41.16 41.43 43.00 43.71 44.85 46.52 48.84 51.33 52.68 53.68 54.04 55.41 56.32 57.28 60.60 62.20 63.89 65.29 65.16 65.52 64.39 63.67 63.59 64.04 65.82 66.21 66.21 65.86 65.83 65.96 66.08 65.90 66.03 65.77 66.14 64.40 65.54 66.44 62.85
44.38 40.77 36.88 35.75 41.04 41.19 41.21 44.97 45.57 44.84 45.96 48.30 49.22 50.78 53.31 54.93 55.30 58.22 59.33 61.12 63.06 64.01 65.70 65.68 65.16 63.80 63.01 62.91 63.80 65.28 65.80 66.18 66.28 65.87 65.82 65.38 65.30 65.86 65.48 65.08 63.79 43.38 44.38 45.40

GFSCGP_sfc_wetblb_045.txt.gz
Wetbulb
47.37 43.35 41.94 44.30 45.44 44.98 43.83 42.25 41.61 45.06 48.59 48.29 47.70 48.76 51.06 53.55 54.11 54.36 56.53 58.14 59.84 60.58 62.06 63.37 64.42 65.31 65.65 69.81 71.08 72.39 71.86 73.91 72.16 68.75 68.22 68.21 69.11 71.36 72.75 73.50 75.26 74.79 74.10 73.65
43.89 40.94 44.81 45.21 44.74 43.34 42.43 40.75 41.18 44.25 46.45 47.31 47.91 47.52 50.40 52.39 53.70 54.69 55.44 56.65 58.11 59.45 60.49 61.85 63.73 65.00 67.34 68.74 70.44 71.23 72.37 73.22 74.03 70.28 71.44 69.83 71.96 71.14 72.43 73.41 75.08 74.48 73.72 73.94
40.68 42.55 44.98 43.40 42.15 40.97 41.56 40.20 40.35 40.75 44.63 46.81 46.31 45.06 47.67 51.51 53.05 54.18 55.61 56.63 57.69 58.53 59.30 60.82 61.58 65.01 65.63 67.41 69.50 70.00 71.83 73.35 74.61 73.94 72.43 73.60 73.12 73.50 72.19 73.37 73.16 73.02 73.07 73.37
41.67 44.13 42.59 41.71 40.41 41.80 38.33 43.66 42.28 40.93 39.97 36.62 45.19 38.12 45.92 49.08 50.43 52.69 54.25 55.79 56.63 57.81 58.97 59.90 61.74 63.56 65.38 65.42 66.41 69.49 71.33 73.15 73.93 75.55 71.42 73.95 71.01 70.29 71.86 72.13 72.41 72.05 72.38 71.63
39.66 41.07 40.98 40.33 41.27 43.63 40.64 43.80 42.25 41.88 39.75 39.46 40.03 38.85 43.26 48.49 48.16 50.43 53.13 54.58 55.85 57.09 57.83 58.23 59.37 61.14 61.77 64.23 66.01 68.57 70.45 72.23 73.10 73.81 73.18 71.09 72.78 71.73 71.78 71.95 72.52 70.92 71.29 70.91
42.82 46.48 44.76 43.17 44.32 45.03 44.75 42.28 42.23 41.56 39.54 33.30 38.40 38.90 40.27 44.44 47.50 50.30 52.93 54.37 55.56 56.50 57.59 58.53 59.59 60.27 60.66 61.66 62.58 66.89 69.50 71.42 72.68 72.99 74.34 75.27 74.94 74.96 71.85 72.44 69.45 69.12 70.03 71.18
40.84 41.79 42.68 45.24 41.47 45.12 43.07 38.66 31.46 29.83 31.79 31.20 39.94 37.80 41.20 47.12 49.73 51.02 51.58 53.38 55.23 56.25 56.63 57.29 57.96 58.37 60.21 61.53 62.52 63.77 66.50 68.08 70.89 71.72 72.59 73.63 75.88 77.19 75.94 71.30 70.07 70.10 70.42 70.64
34.50 32.43 40.31 43.68 41.66 39.65 39.23 39.53 31.91 24.14 27.63 31.36 39.62 35.34 39.69 48.77 51.20 52.49 52.75 53.30 54.69 55.38 56.61 57.50 58.82 59.83 61.11 62.06 62.92 64.67 66.96 69.14 71.09 71.59 72.26 73.98 75.28 73.00 73.54 73.23 72.42 71.47 71.59 71.86
34.55 34.39 42.70 44.01 44.58 43.51 40.18 37.85 41.38 33.17 35.58 30.63 34.66 39.37 45.31 47.22 49.01 50.69 51.68 53.21 54.09 56.46 58.47 59.98 61.96 63.02 63.83 62.69 63.86 66.52 68.89 70.41 71.48 71.95 72.96 73.63 73.77 75.45 73.65 76.02 75.51 72.43 72.69 71.55
39.67 32.96 40.61 42.65 44.79 44.74 42.40 43.48 34.14 35.97 26.98 25.61 33.62 37.06 38.13 43.38 45.64 49.56 50.98 52.46 54.32 56.04 58.51 61.59 63.00 63.76 65.85 65.37 67.72 69.73 71.32 71.44 72.00 72.94 73.21 73.30 74.36 74.85 73.92 73.94 73.97 73.72 73.25 71.22
41.80 38.26 37.26 40.89 39.53 38.77 39.58 38.52 37.92 38.04 35.25 29.08 27.75 34.46 44.79 46.45 47.10 48.92 51.19 53.02 54.04 57.75 61.76 63.89 65.72 66.86 67.81 68.21 68.84 70.49 71.30 71.69 71.74 72.51 73.23 72.64 71.80 72.17 72.37 71.36 70.73 70.71 70.97 70.24
42.40 38.42 33.70 36.24 42.61 44.75 43.08 40.23 38.81 31.36 29.82 36.12 34.28 34.26 47.01 46.10 51.45 50.42 52.39 52.58 54.53 55.94 62.94 63.97 63.39 65.55 67.53 68.82 70.11 70.49 71.25 71.21 71.88 71.73 71.20 70.91 71.42 70.84 70.90 70.23 70.36 70.39 69.61 69.46
41.77 36.71 30.81 33.87 38.50 40.66 37.83 40.62 40.10 40.00 37.86 33.80 29.25 32.30 46.52 49.28 51.05 51.83 51.73 52.75 53.85 55.05 61.33 63.80 64.56 67.35 68.35 69.04 69.74 69.87 70.67 70.73 71.19 71.16 70.64 70.13 69.85 69.58 69.95 69.56 69.74 69.21 68.56 67.87
43.18 38.31 32.98 30.17 33.68 35.42 33.13 37.20 40.10 39.03 34.31 35.10 34.57 36.55 39.04 41.30 45.38 50.06 51.25 52.97 52.79 54.00 58.75 64.34 63.75 66.67 66.22 67.10 68.11 68.65 69.39 69.89 70.07 69.57 69.07 68.67 68.89 68.91 68.79 68.59 68.50 67.98 67.63 67.17
39.96 34.87 37.26 38.29 39.33 38.53 38.06 38.21 38.44 37.21 38.35 35.14 37.29 37.07 40.50 42.96 45.32 48.45 51.06 51.66 51.18 52.94 56.04 63.60 62.47 65.82 65.38 66.18 67.30 68.08 68.62 68.90 68.94 68.02 67.84 67.70 68.07 68.11 67.59 67.61 67.55 67.52 67.26 67.09
41.70 34.61 37.70 35.63 39.05 39.19 37.57 39.51 39.55 39.39 39.51 39.31 39.13 38.66 43.87 46.01 47.89 48.20 49.33 49.80 50.34 52.54 55.03 62.16 63.90 63.34 64.23 66.18 66.59 67.82 67.68 67.54 67.82 66.70 66.02 66.52 66.64 66.80 67.23 67.32 66.87 66.88 67.04 66.95
36.99 35.86 34.32 30.56 37.82 38.24 34.11 38.66 39.39 39.77 41.70 40.68 37.47 41.68 45.52 45.63 47.00 48.71 49.95 50.29 50.61 51.94 55.02 58.88 64.10 63.04 65.00 65.16 65.94 66.84 66.79 66.70 65.83 65.33 65.56 65.90 66.33 66.03 65.54 66.31 65.57 66.14 66.53 67.74
35.61 36.17 34.71 31.70 34.98 25.00 38.14 43.87 43.17 41.40 42.78 44.09 44.56 45.64 46.86 47.53 49.15 50.34 51.09 51.08 51.49 53.23 55.74 58.02 64.58 64.20 65.59 66.66 66.51 67.23 66.10 65.19 65.14 65.06 65.41 65.88 65.11 65.31 65.89 65.56 65.78 67.18 67.39 67.57
40.69 35.58 33.08 30.98 30.42 33.98 36.67 39.69 38.97 36.78 38.94 44.72 44.11 45.63 46.79 48.65 49.99 50.84 51.78 52.74 53.08 55.25 60.66 60.88 66.05 66.58 66.55 65.70 66.64 66.05 64.75 64.72 64.61 64.78 65.33 64.35 65.23 64.36 64.01 64.70 66.19 66.49 66.75 67.53
41.23 38.17 33.57 32.55 28.06 25.71 35.38 41.00 42.02 42.80 34.64 43.93 43.90 44.68 47.53 50.25 45.69 47.40 52.62 53.92 58.85 59.90 59.00 63.67 66.21 66.04 65.68 65.70 66.91 65.12 63.70 64.27 64.10 64.98 64.23 64.92 65.48 64.23 63.82 65.23 65.70 66.55 66.94 66.76
36.99 36.22 31.84 31.88 30.67 34.98 40.35 41.18 40.90 32.19 36.54 43.76 43.54 46.36 47.94 47.68 51.03 53.97 56.43 56.86 58.52 60.07 59.56 65.15 65.87 66.15 65.42 67.28 66.53 63.75 63.86 63.91 65.55 65.25 65.08 66.05 64.67 63.73 64.23 65.76 66.48 67.00 66.55 66.22
35.74 33.15 34.19 34.29 31.63 30.56 44.26 39.71 34.37 40.31 43.10 42.05 43.52 46.24 47.21 50.17 52.36 53.79 55.71 56.32 58.12 58.78 58.89 65.02 64.09 65.81 66.98 66.98 65.16 63.75 63.96 66.26 65.96 64.96 65.84 65.59 65.62 64.85 65.52 66.15 66.23 66.32 66.85 66.03
35.75 38.08 33.35 33.53 36.31 43.80 44.41 41.48 43.87 43.60 41.22 42.26 42.53 45.60 48.32 50.29 51.36 53.16 55.19 57.17 57.99 58.39 60.71 64.76 64.60 64.50 66.40 66.15 64.67 63.75 65.55 66.40 64.81 65.24 65.30 65.14 65.48 65.20 65.59 65.44 65.94 65.69 66.12 66.66
42.93 44.51 39.06 36.64 41.15 42.01 43.01 44.37 43.86 44.51 43.65 44.93 46.15 47.66 50.53 49.79 52.09 54.20 56.57 56.98 58.06 59.77 64.10 64.83 63.76 64.93 64.93 65.20 63.68 65.27 66.41 65.81 64.82 64.38 64.92 64.28 64.40 63.70 66.05 66.44 67.67 66.99 66.82 65.82
43.15 43.73 40.43 39.35 41.39 41.73 42.44 43.31 44.61 44.65 45.20 45.54 49.85 51.63 52.97 51.61 53.79 56.13 57.18 57.28 58.68 62.21 62.62 64.26 64.00 64.87 64.31 63.39 64.00 65.78 66.57 65.89 63.93 65.12 64.25 64.70 64.89 65.92 65.97 63.75 63.36 66.41 60.06 63.38
44.82 42.63 38.87 36.72 41.41 40.54 41.84 44.63 45.41 43.22 42.83 46.45 47.46 50.04 54.31 54.96 55.67 57.24 57.77 60.37 61.93 61.11 63.41 64.14 64.76 64.52 62.95 63.34 64.65 65.75 66.35 66.79 65.76 63.42 64.10 63.75 64.53 65.09 65.21 64.46 62.65 43.98 44.28 42.77

GFSCGP_sfc_wetblb_048.txt.gz
Wetbulb
47.26 42.79 40.94 43.67 45.42 45.15 43.85 42.00 41.28 43.94 46.43 45.12 45.01 46.88 49.63 52.89 52.73 52.31 54.11 56.06 57.94 59.57 62.28 64.29 65.05 66.61 66.69 70.72 71.11 71.79 71.87 73.30 73.88 73.59 70.54 69.29 68.94 69.72 70.94 72.75 74.77 75.31 74.64 73.79
43.41 40.47 44.74 45.64 45.11 43.45 42.35 40.58 40.21 43.15 45.27 44.54 44.23 44.11 48.04 51.17 51.93 53.92 54.03 54.40 56.18 58.37 61.36 61.56 62.87 67.78 69.18 70.67 70.63 71.38 71.36 72.57 73.56 71.25 70.34 69.80 69.75 69.65 70.64 72.96 74.60 75.18 74.69 73.82
40.26 42.29 44.87 43.46 42.14 41.01 41.16 39.67 39.86 39.88 43.17 44.19 42.64 41.62 45.49 48.78 51.66 53.40 54.45 56.01 56.95 56.82 57.73 60.97 63.42 66.02 68.13 69.21 69.45 70.65 70.95 70.21 70.98 70.23 70.86 71.71 71.33 72.08 72.28 73.96 74.37 74.34 74.15 73.66
41.71 43.81 42.26 41.45 40.56 41.67 37.57 42.59 41.83 40.82 39.55 35.29 42.88 34.44 42.89 46.32 48.32 51.42 52.64 53.98 55.89 57.19 59.03 59.96 62.17 65.10 67.27 68.28 69.67 70.59 70.92 70.40 70.58 72.32 70.84 70.23 68.02 67.66 70.02 73.32 73.86 73.44 73.95 73.05
39.82 41.39 41.35 40.42 41.41 43.60 40.22 43.85 42.03 41.44 39.69 38.51 38.57 35.99 39.70 44.73 44.81 48.67 52.29 53.77 55.26 57.57 58.49 58.78 59.98 62.04 63.44 63.89 65.20 66.61 68.79 70.72 70.53 70.55 70.75 69.36 70.68 70.89 74.72 74.03 73.58 73.25 72.81 71.34
42.70 46.23 44.31 43.48 44.79 44.25 44.89 41.74 41.12 41.13 39.35 32.28 37.14 36.73 37.57 41.10 44.51 47.13 51.46 53.88 55.22 56.46 57.18 58.32 59.87 60.87 61.18 63.20 63.83 65.61 66.65 67.48 70.42 71.26 71.78 71.29 71.07 70.27 71.54 71.14 71.38 70.37 69.96 69.59
40.67 41.04 44.37 45.39 40.96 43.78 42.09 38.27 30.58 29.79 30.60 30.54 38.70 36.15 39.25 44.24 46.30 48.12 49.48 52.54 54.84 56.72 57.20 58.33 58.84 59.36 61.15 62.00 62.76 65.76 68.87 68.64 70.50 70.67 71.63 70.56 69.76 71.91 74.24 71.96 70.38 69.15 68.22 68.47
34.58 32.27 40.28 43.97 41.14 38.32 39.62 38.25 30.25 23.89 26.59 30.64 38.11 32.69 38.46 46.11 48.63 49.81 50.83 53.26 54.39 55.45 56.39 57.52 59.01 60.41 59.93 61.52 63.39 64.15 67.04 67.63 69.91 69.81 69.72 71.88 71.39 72.26 73.34 71.39 69.84 68.91 69.07 69.70
34.26 34.18 42.25 42.79 43.19 42.92 38.96 35.66 40.21 32.32 33.69 31.68 34.69 37.70 42.51 45.46 46.89 48.75 49.70 51.60 54.23 55.63 56.95 58.68 59.84 63.64 64.70 64.86 68.10 65.58 67.53 67.54 68.36 68.69 71.23 71.91 73.22 74.18 72.53 72.58 71.08 70.49 71.07 71.36
39.71 32.72 40.48 41.93 43.35 43.28 41.36 43.59 34.93 36.19 24.63 23.96 31.70 33.35 35.30 42.24 44.92 47.61 48.79 51.83 53.71 55.92 56.87 58.06 59.12 61.72 64.43 65.31 67.81 68.35 70.02 69.90 71.59 71.85 72.48 72.78 73.74 74.61 73.47 73.03 71.64 71.76 72.31 71.49
41.58 37.80 36.55 40.64 38.23 37.09 38.68 38.01 38.67 35.49 33.94 27.22 26.46 31.81 43.30 42.85 43.86 43.54 46.23 51.47 54.35 54.95 56.31 59.97 62.58 66.64 67.27 68.07 66.45 69.87 70.42 71.29 71.14 71.93 72.34 72.68 73.09 73.78 73.29 72.16 70.58 71.17 71.39 70.57
42.40 38.24 32.21 35.49 41.84 43.48 40.64 38.85 37.49 32.78 30.48 34.48 32.91 33.44 45.20 43.00 43.55 44.98 43.36 51.46 54.15 55.59 56.37 62.73 63.79 65.06 66.29 67.75 68.00 69.09 70.88 70.68 71.80 71.05 71.39 71.02 71.05 70.97 70.94 70.47 70.42 70.48 69.69 69.36
41.45 36.17 29.53 31.96 37.69 39.70 36.57 38.25 39.41 39.65 38.35 32.80 29.19 31.86 44.89 43.03 42.76 44.98 44.66 47.40 53.04 53.91 54.26 63.56 63.52 63.69 64.85 66.48 67.79 69.74 70.83 69.97 69.56 69.61 69.12 68.83 68.71 69.36 69.85 69.75 69.89 69.72 69.41 69.46
43.99 37.71 33.43 28.76 32.57 36.52 32.50 36.54 39.13 38.46 33.83 33.75 33.99 35.22 40.48 39.79 42.01 43.21 44.81 48.18 52.37 52.72 54.03 63.27 63.40 65.72 67.68 67.62 68.04 67.89 68.39 68.69 68.68 68.51 68.29 68.75 69.28 69.47 69.30 69.00 69.29 68.38 68.41 67.62
41.44 34.93 36.25 36.91 38.22 38.53 37.55 37.32 38.15 37.15 37.66 33.65 35.76 36.35 39.63 41.91 42.16 43.01 45.53 47.85 50.37 51.11 53.38 62.48 62.91 65.60 66.52 65.61 66.76 66.96 67.81 68.25 68.16 67.51 67.44 68.41 68.96 68.96 68.36 67.91 67.87 68.09 67.65 67.17
42.50 34.91 37.24 34.74 38.27 37.49 36.02 38.33 38.62 38.74 38.93 38.42 38.53 37.81 44.01 45.43 45.88 45.94 47.18 48.86 49.21 50.40 52.29 58.98 63.47 64.57 66.13 66.01 64.74 65.59 66.55 67.41 68.54 67.34 67.49 67.78 67.38 66.98 67.07 67.68 67.68 68.06 66.02 66.30
38.10 36.86 34.14 30.08 36.79 36.62 32.72 37.81 38.75 39.88 41.34 39.94 36.18 40.53 45.56 45.70 45.69 47.00 48.69 49.27 50.28 51.03 52.31 56.29 62.22 64.14 65.42 63.81 65.48 65.20 67.17 67.68 67.08 66.55 66.34 66.09 66.04 65.46 65.84 66.34 65.92 64.65 65.25 66.66
38.67 35.94 34.74 30.89 34.19 25.36 37.09 42.89 42.03 40.29 41.13 42.83 42.41 42.93 44.90 46.11 48.12 49.07 50.69 50.93 50.96 51.90 53.06 58.76 62.24 63.89 64.86 65.67 64.48 65.42 66.89 65.99 65.35 64.83 64.81 65.27 64.96 64.96 64.97 64.46 64.45 64.97 66.36 66.93
43.01 36.04 33.25 30.51 29.91 33.86 36.17 39.61 38.75 37.16 37.32 43.64 42.65 44.58 45.80 48.29 49.86 48.45 52.72 53.70 52.56 54.26 59.40 61.37 62.47 65.01 66.09 66.65 64.85 65.01 64.92 64.72 64.33 64.14 64.56 65.07 64.19 63.63 63.91 63.47 64.87 66.34 65.69 65.79
41.07 39.69 34.67 31.86 27.83 25.76 36.67 39.56 41.85 40.07 33.00 41.51 41.70 42.75 44.57 47.38 42.95 47.31 54.36 55.66 54.59 59.43 59.87 60.70 61.05 64.25 65.62 66.39 64.48 64.89 64.09 64.02 63.66 64.10 64.12 64.59 64.01 64.69 63.29 64.57 65.48 65.92 65.70 65.62
37.24 36.62 32.22 31.81 30.76 34.44 39.05 41.38 41.80 30.54 34.15 42.06 42.57 42.88 43.53 42.62 46.30 49.20 53.79 54.67 57.69 59.33 59.73 61.53 60.81 62.94 64.58 66.34 64.33 63.98 64.07 63.47 65.15 65.19 65.02 64.49 63.61 63.98 65.65 66.12 66.54 65.47 65.01 65.24
36.63 34.07 33.88 33.85 30.57 28.91 42.21 41.41 34.43 39.08 41.46 42.14 42.52 42.31 42.69 45.25 47.52 49.88 52.73 54.49 56.85 57.91 58.56 60.22 60.81 63.21 65.06 65.16 65.03 63.63 63.99 65.25 65.61 65.08 65.01 64.82 64.21 64.08 64.75 65.84 65.82 65.85 65.45 64.31
35.98 39.21 34.12 34.98 36.77 43.60 45.61 43.40 44.58 44.90 42.12 42.90 42.32 43.89 44.50 45.01 46.69 49.41 52.27 53.92 55.61 58.65 58.96 60.45 60.15 63.01 63.93 65.80 64.95 63.62 64.31 65.74 65.32 65.49 63.07 64.40 64.06 63.17 64.91 63.84 64.22 64.64 64.70 63.97
42.06 45.11 40.52 38.53 41.18 41.27 41.70 44.70 45.27 45.00 44.41 44.48 44.70 44.47 44.98 46.83 48.42 49.61 52.45 54.54 57.15 59.17 59.96 60.21 62.29 63.27 63.48 64.51 65.10 66.16 65.84 65.96 65.73 63.01 64.09 64.82 63.81 63.27 64.60 65.18 65.88 65.01 64.83 64.30
42.57 44.10 41.38 40.84 42.55 42.98 42.32 43.10 43.34 43.03 43.72 43.62 44.36 45.01 48.67 51.11 52.04 51.93 52.81 54.77 57.50 58.90 59.73 62.28 62.73 62.61 63.74 64.16 64.56 65.59 66.12 65.94 64.09 63.48 63.72 63.54 63.57 64.77 62.82 57.62 57.19 63.76 57.42 60.22
44.80 40.93 39.48 36.81 41.89 38.70 39.90 42.84 43.34 41.90 41.91 43.20 43.89 46.56 48.83 51.49 52.69 53.87 54.83 58.52 59.09 59.05 60.38 63.05 62.99 62.78 63.29 62.99 64.42 65.69 64.98 66.37 63.84 63.87 63.07 62.92 63.63 64.85 63.70 61.95 58.41 42.34 42.50 42.55

GFSCGP_sfc_wetblb_051.txt.gz
Wetbulb
43.01 36.91 33.60 38.15 40.10 41.11 40.13 38.47 37.42 40.69 43.63 41.24 40.17 40.99 43.22 45.98 46.47 48.23 49.76 50.64 52.13 54.53 56.43 58.13 59.70 60.57 61.13 63.31 64.03 64.30 64.57 65.19 68.58 67.58 68.54 66.80 66.47 65.34 66.29 67.38 68.17 69.30 72.34 71.12
38.40 34.30 40.87 42.66 42.06 40.45 39.14 36.88 36.05 39.97 42.84 41.51 40.14 39.87 42.85 44.44 45.19 46.56 47.16 50.22 51.19 53.71 54.89 57.21 58.08 58.91 61.35 61.88 64.70 64.60 64.99 65.85 65.75 65.93 65.18 64.00 63.22 63.53 64.37 65.34 67.83 69.79 71.30 71.50
35.34 39.15 43.46 41.30 39.16 38.25 37.45 36.06 36.49 36.67 40.63 41.48 39.24 37.32 39.92 43.43 45.03 46.53 48.28 48.97 51.17 51.86 53.09 54.61 56.00 58.08 60.70 62.72 63.27 64.31 64.38 65.38 65.88 65.16 64.90 64.69 63.84 63.76 64.53 65.95 67.60 69.93 71.13 71.23
37.48 41.68 41.33 39.32 38.32 39.78 34.56 41.11 40.27 38.88 36.12 30.35 38.44 28.90 36.94 40.81 42.12 44.40 46.12 47.56 48.59 50.00 51.77 54.22 54.51 55.56 60.33 62.10 63.28 63.96 64.01 64.29 65.36 65.24 63.53 63.50 63.99 62.22 62.45 64.18 69.24 69.53 70.44 70.29
36.33 38.42 38.65 38.15 39.87 41.96 37.61 42.22 39.48 38.70 35.23 33.94 34.88 30.66 35.38 39.43 39.50 41.45 43.85 46.17 47.86 50.03 50.45 52.11 53.81 55.89 58.55 61.13 62.26 63.21 64.98 64.51 64.22 65.41 65.07 64.51 63.30 63.69 63.99 66.28 68.71 68.49 68.94 69.48
38.82 43.63 42.07 40.68 42.93 42.68 42.93 38.90 37.82 36.19 32.96 26.48 32.53 32.38 33.06 36.46 39.35 42.05 44.45 46.12 47.73 49.14 52.07 51.90 53.65 55.00 56.10 57.48 57.54 59.66 63.17 64.39 64.77 64.65 66.03 65.06 64.44 64.33 65.92 66.84 67.89 67.08 66.85 67.58
37.88 38.03 42.62 44.30 38.91 40.93 38.02 31.60 23.82 21.94 22.81 24.27 34.90 32.11 34.20 39.63 42.64 43.80 44.31 45.74 47.43 48.23 49.11 51.77 53.00 53.46 54.14 53.57 54.73 56.44 59.21 59.81 63.68 64.88 65.24 65.38 63.58 64.63 65.81 66.97 67.51 66.85 65.56 65.59
27.68 26.95 37.79 43.84 39.11 34.91 34.35 33.47 28.09 20.25 21.30 24.95 35.22 29.86 33.39 41.46 43.37 46.12 46.63 47.06 47.88 48.12 48.93 50.30 52.12 54.45 54.96 55.81 56.47 56.70 58.15 59.91 62.14 64.75 67.01 66.59 65.41 67.36 67.39 68.78 67.80 66.85 66.42 66.13
29.59 31.17 41.39 41.89 41.79 40.14 33.98 31.99 36.74 31.47 31.13 28.32 30.07 33.90 39.50 42.76 42.66 44.01 44.22 45.68 45.66 46.23 49.62 51.49 52.07 52.12 53.95 54.27 54.84 55.86 56.52 61.97 64.75 65.48 65.35 66.88 65.78 66.52 68.45 67.58 67.69 66.99 66.84 67.32
36.60 29.84 39.02 40.57 41.85 41.04 36.55 38.81 29.47 28.57 22.92 21.40 27.55 29.57 31.32 37.08 39.05 41.44 42.06 43.47 44.97 47.71 49.75 51.01 52.78 53.47 55.01 56.17 58.13 58.19 59.99 61.51 62.08 62.89 65.22 66.93 67.88 69.97 69.24 67.94 66.68 67.24 67.69 67.97
37.23 33.26 34.13 37.90 34.78 33.36 35.01 32.16 35.31 33.68 31.47 24.14 22.97 26.80 39.08 38.12 40.33 40.00 41.41 43.71 45.21 48.04 48.86 51.93 52.08 56.73 62.06 61.99 57.58 59.44 61.78 64.52 64.95 66.43 67.84 68.62 69.37 70.58 70.23 68.27 67.98 68.41 68.84 68.58
38.78 34.20 28.82 32.52 38.99 41.30 39.14 35.23 33.43 29.46 26.81 31.76 29.07 26.72 42.09 40.23 40.80 41.41 42.28 44.26 46.15 47.45 49.57 49.14 52.16 58.99 61.23 62.15 62.42 62.88 65.72 67.00 67.55 68.32 68.47 68.98 69.36 70.29 69.39 68.71 69.05 68.14 68.00 67.52
38.66 31.31 26.48 28.21 32.53 37.09 34.05 36.52 36.54 34.53 33.29 28.34 25.28 26.93 42.42 42.16 42.93 43.19 43.05 43.78 45.83 47.97 48.96 49.51 50.73 59.06 60.49 61.72 63.25 65.82 67.01 67.49 68.73 69.15 68.63 68.56 67.85 67.43 66.94 66.75 67.59 67.11 65.86 65.29
41.59 33.99 30.15 25.71 30.01 34.07 31.52 34.88 36.46 33.47 26.44 29.34 29.95 33.11 38.18 40.28 41.82 42.87 43.54 45.32 45.85 47.09 49.06 49.56 53.62 54.81 59.57 61.49 62.89 66.39 66.72 67.85 68.71 68.78 67.78 67.29 67.29 67.16 66.39 65.05 64.77 65.07 65.51 63.09
36.97 32.51 34.25 35.37 36.82 36.92 35.69 35.32 35.51 33.58 33.99 30.31 33.40 34.02 37.09 39.88 41.79 43.06 45.47 45.16 46.03 46.50 47.34 48.68 54.76 58.86 60.65 61.70 62.86 67.06 66.77 67.69 67.56 67.42 66.83 66.57 66.60 66.04 64.61 64.15 63.40 63.55 62.58 62.70
39.09 33.86 35.64 33.03 36.91 36.66 34.46 36.71 36.41 36.54 37.62 37.24 36.82 35.33 42.40 44.28 44.03 43.63 44.44 44.74 45.53 46.62 47.69 48.98 59.88 61.05 61.98 63.90 65.74 65.83 66.19 66.73 67.48 67.06 66.34 66.21 65.01 64.37 63.21 62.81 62.77 62.86 62.11 62.66
37.32 35.53 31.93 27.17 34.56 34.07 29.64 35.54 36.78 37.76 39.03 37.85 33.03 37.63 41.87 41.75 43.47 43.91 44.52 45.20 47.25 48.53 49.14 50.05 58.60 61.96 62.48 63.84 65.05 64.83 65.71 66.49 66.23 65.96 65.81 64.72 64.02 63.63 62.92 63.01 62.45 61.63 61.76 63.01
35.42 35.41 34.20 28.41 30.49 23.25 35.08 40.36 39.82 36.88 38.11 39.40 40.47 41.26 43.03 43.46 45.33 47.14 48.91 46.69 49.19 51.46 52.02 56.51 58.91 60.17 58.43 61.94 63.67 64.81 65.58 65.65 64.81 64.15 63.77 63.58 63.07 62.80 62.49 61.60 62.24 62.81 62.48 61.30
39.13 36.28 31.65 27.62 23.62 31.57 35.73 37.91 35.99 34.57 33.64 40.89 39.18 40.03 41.41 43.03 44.06 45.46 48.46 48.56 48.88 50.72 54.70 56.29 60.39 59.03 58.68 58.44 63.51 63.76 63.89 63.32 62.68 62.25 62.39 62.51 62.30 61.29 62.61 61.91 62.75 62.48 60.63 60.83
39.57 39.31 33.32 29.20 25.17 23.35 35.20 39.32 41.96 39.38 30.80 41.05 39.82 39.19 39.94 40.45 36.10 39.89 45.91 47.38 48.80 51.02 55.16 57.48 60.33 61.16 58.87 58.74 62.54 62.39 61.06 61.11 60.83 61.39 62.49 63.33 63.47 62.90 62.21 62.61 62.27 60.51 60.83 61.34
34.26 33.94 30.36 30.26 27.87 31.22 39.33 40.51 41.98 28.44 30.49 39.65 41.12 41.00 39.86 37.94 39.75 42.80 45.66 46.81 48.96 50.82 56.13 58.32 59.47 59.37 60.33 62.63 62.06 60.54 60.26 59.56 61.12 62.99 62.81 62.73 63.07 62.45 62.51 62.65 60.79 60.44 60.71 61.29
33.26 31.48 28.72 29.07 29.57 24.88 41.34 40.21 34.27 37.96 41.39 42.20 42.54 42.39 41.71 42.29 43.44 44.13 45.04 46.03 47.87 49.35 53.10 58.55 58.66 59.46 62.06 63.38 61.92 59.06 58.97 61.51 62.28 62.29 61.84 62.09 62.93 63.79 62.38 61.23 60.55 60.64 60.97 60.25
27.99 34.05 32.94 33.70 31.17 41.59 42.57 41.23 43.58 43.43 42.39 42.32 42.91 43.54 42.91 42.90 43.36 43.65 44.35 46.34 47.27 49.22 53.39 59.80 59.12 59.90 61.89 63.31 61.67 60.30 61.04 61.81 61.91 61.33 60.65 61.31 61.20 62.65 62.09 60.30 60.04 60.38 60.84 60.16
37.56 40.71 37.42 37.28 39.71 40.88 43.22 43.99 43.44 43.11 41.63 42.52 42.84 43.11 43.66 42.69 43.90 44.73 46.59 47.80 48.18 50.35 56.86 59.03 59.46 60.75 61.15 61.61 62.47 62.06 62.62 62.29 61.74 60.74 61.17 61.51 60.70 61.81 60.65 61.46 61.12 60.49 60.44 60.32
37.42 39.97 38.21 37.88 40.43 40.40 42.91 42.29 42.74 42.41 43.25 42.69 43.27 43.74 43.85 44.77 46.50 48.53 50.02 50.53 50.69 52.25 55.00 59.75 58.74 58.48 60.22 61.98 62.17 63.21 63.33 62.15 61.65 62.42 61.55 60.64 61.89 59.62 56.14 52.74 53.25 60.01 57.84 58.34
39.87 40.26 37.40 36.28 41.62 38.98 40.07 40.44 42.43 41.31 41.52 42.64 42.91 43.66 46.00 46.99 47.02 49.80 51.91 53.79 53.03 55.43 59.78 59.66 59.70 58.85 60.07 62.58 62.84 63.01 62.54 62.11 61.81 60.42 61.19 61.74 61.61 59.09 57.04 56.04 53.61 41.67 44.01 44.59

GFSCGP_sfc_wetblb_054.txt.gz
Wetbulb
40.33 34.68 32.03 35.86 36.90 38.55 37.79 35.76 34.26 37.58 41.27 38.68 37.79 38.92 41.09 43.36 43.26 42.91 44.13 46.25 47.63 49.96 53.42 55.78 57.24 58.51 58.42 60.35 60.87 62.15 63.61 67.54 70.02 69.51 69.55 69.53 69.73 69.92 67.90 67.93 68.34 68.26 70.12 69.56
35.76 31.70 38.55 40.91 39.89 37.91 36.49 33.55 33.08 37.31 40.88 39.35 37.89 37.98 41.19 41.90 41.95 42.68 43.41 44.66 45.78 48.04 50.71 52.98 55.39 55.46 57.17 57.56 61.56 61.79 63.63 67.71 69.99 70.13 70.58 68.02 68.62 64.59 67.33 67.05 67.12 67.07 69.21 69.83
32.56 37.03 41.99 40.23 37.65 36.71 35.47 34.08 35.17 35.19 39.35 39.12 37.08 35.58 38.09 41.54 42.65 43.71 44.22 44.64 45.83 46.85 48.77 51.05 53.17 54.77 55.56 56.71 60.08 62.04 63.71 64.46 68.90 69.58 67.19 62.70 62.13 62.03 62.19 62.82 63.32 64.89 68.39 70.32
35.48 39.81 39.82 38.06 37.63 38.88 32.80 40.11 39.18 37.85 34.16 27.25 36.52 26.46 35.35 38.81 39.65 41.38 42.65 42.16 43.20 45.19 47.29 48.82 51.18 52.29 52.75 56.46 60.50 63.08 63.73 63.85 65.93 64.84 65.53 62.94 62.25 60.26 60.43 60.15 63.89 65.39 68.85 70.21
34.52 36.69 36.19 35.65 38.51 40.62 36.20 40.69 38.14 37.40 33.43 29.27 32.00 26.92 33.59 38.10 37.50 40.13 42.28 43.77 44.71 44.71 45.34 46.91 49.31 51.63 53.82 55.91 59.73 61.95 62.98 63.24 64.40 64.10 63.31 63.01 58.91 60.33 60.38 61.59 62.94 65.48 67.04 69.42
37.06 40.64 40.10 39.37 41.71 41.10 42.01 36.84 35.00 33.46 30.38 23.11 29.93 28.92 30.58 33.43 36.78 40.21 43.20 44.70 46.07 46.72 47.36 48.31 48.65 50.27 52.15 53.89 58.31 59.32 61.37 61.36 61.48 62.21 62.01 61.50 60.64 60.81 61.44 63.10 64.46 65.43 65.99 67.94
35.55 36.04 40.91 43.17 36.74 39.11 36.37 28.92 21.93 20.43 20.44 21.63 32.52 29.52 31.71 37.59 40.43 41.59 42.99 44.21 45.64 45.89 46.64 47.85 48.88 49.65 49.69 51.03 55.44 57.95 61.10 61.77 62.06 61.99 62.22 62.86 62.25 62.15 62.53 64.37 65.59 65.02 64.61 65.00
25.83 24.76 36.26 43.15 37.11 32.84 31.60 30.66 22.27 18.31 20.76 23.71 33.12 26.77 31.05 40.74 43.52 44.32 44.96 44.41 45.42 45.16 46.04 48.18 49.35 50.80 51.75 51.60 51.75 55.80 56.74 59.86 60.83 61.79 61.69 63.48 63.46 63.92 63.67 65.48 67.12 67.22 67.08 66.59
28.41 29.92 40.32 41.41 40.31 37.26 31.75 28.36 33.44 26.92 27.83 24.41 27.91 32.59 37.16 41.25 41.58 42.55 42.52 43.98 43.56 44.81 45.62 47.26 49.41 50.96 51.63 51.93 52.70 51.93 54.85 58.13 58.99 61.41 62.54 62.35 63.63 63.33 64.35 66.36 67.13 66.58 65.48 66.48
34.46 27.86 38.18 40.22 40.41 39.12 34.65 35.97 25.17 25.28 20.63 20.07 25.46 28.12 28.64 36.47 38.07 40.41 40.65 41.11 42.79 44.64 45.59 47.14 48.62 50.32 50.70 53.63 53.25 51.89 52.96 55.10 58.37 59.98 62.59 64.52 63.87 65.06 66.55 66.97 66.43 66.07 66.20 66.57
35.36 31.08 32.21 36.40 33.32 31.01 31.64 30.07 32.14 30.98 30.32 23.87 23.53 26.90 37.15 37.80 38.59 38.39 39.60 41.46 42.23 43.52 45.22 46.44 48.49 50.17 50.53 57.00 59.47 55.88 54.56 56.17 60.52 62.61 63.17 65.00 64.93 66.86 66.92 66.77 66.30 66.48 66.48 66.52
37.21 32.17 27.92 31.12 37.94 39.63 36.41 32.80 31.33 21.91 21.22 30.29 28.69 26.00 40.82 40.32 39.26 39.76 40.04 42.46 44.09 45.03 46.06 47.43 48.43 47.33 50.15 54.44 58.99 58.79 57.96 59.02 61.15 63.63 64.90 65.38 67.20 67.80 66.59 66.18 66.41 67.04 66.86 67.47
36.40 29.22 25.89 26.69 31.16 34.56 32.40 35.38 34.36 33.16 31.28 26.35 24.95 26.33 39.41 41.28 40.78 41.65 40.11 42.26 44.40 45.80 46.95 48.16 46.65 47.56 50.11 51.90 56.05 62.35 61.77 62.38 64.25 65.73 66.15 66.45 67.98 68.48 66.92 67.15 67.91 67.89 67.58 67.20
42.36 32.55 29.18 25.38 28.05 31.48 30.88 34.35 35.92 32.51 28.06 27.65 28.55 30.68 35.86 38.15 40.05 40.71 41.15 43.51 44.40 45.03 46.80 47.88 48.10 48.44 49.84 50.70 54.36 62.55 65.08 66.17 67.14 67.55 67.13 66.16 66.49 67.22 67.01 67.26 67.17 66.57 66.68 66.29
36.54 28.49 32.41 33.81 35.44 36.01 34.97 34.86 35.46 33.16 32.63 28.28 31.02 32.14 36.13 37.72 39.61 41.21 42.44 44.08 45.02 45.66 47.07 48.34 48.12 49.13 49.59 50.62 54.67 63.64 65.25 66.82 67.38 66.59 65.55 65.35 65.33 65.49 64.55 64.48 64.83 64.90 64.81 64.03
35.66 29.72 34.48 31.42 35.04 35.61 33.43 35.61 36.21 35.75 35.54 34.42 35.05 34.22 41.15 40.96 41.58 41.57 42.86 44.70 45.48 46.28 47.41 49.31 52.96 54.05 54.67 53.84 55.31 62.88 65.06 65.88 66.61 65.57 65.23 64.95 65.01 65.25 64.36 62.48 62.93 62.60 62.07 62.59
31.95 30.93 31.72 27.76 33.67 32.97 28.38 34.90 35.40 35.52 37.04 35.09 30.84 35.93 40.24 39.42 40.72 41.37 42.58 45.69 45.93 47.41 49.08 51.03 54.01 54.75 53.57 54.98 56.93 56.69 65.08 66.23 65.61 65.28 65.00 64.84 64.87 63.76 63.07 62.51 61.01 60.46 60.71 60.61
33.64 32.41 34.06 28.82 29.29 22.44 33.42 40.37 38.90 35.87 37.06 38.46 37.37 38.76 39.12 39.08 40.82 42.11 43.85 44.44 44.44 45.51 47.41 48.87 51.87 55.54 55.00 55.41 56.50 58.58 62.73 65.35 65.30 64.40 64.32 64.52 63.80 62.78 62.05 60.90 59.98 60.01 61.84 60.92
38.75 34.47 31.77 28.09 20.88 29.68 34.50 37.54 36.29 33.91 33.44 39.97 38.09 38.59 39.28 40.57 40.62 40.83 45.40 45.14 44.12 45.27 47.12 48.93 52.23 57.15 57.23 57.34 58.29 58.88 57.74 64.34 64.24 63.40 63.29 63.15 62.72 61.35 60.66 60.12 60.12 61.73 61.73 59.98
37.88 34.83 29.65 30.14 25.62 21.48 30.76 39.54 41.38 40.22 28.90 40.54 38.81 38.27 38.54 40.24 34.41 37.27 42.37 44.12 44.43 45.96 47.05 48.24 50.60 56.67 56.95 57.77 58.80 58.47 59.25 62.94 62.57 62.47 62.07 62.32 62.05 60.85 60.51 61.04 61.30 61.47 61.32 59.40
31.66 33.94 30.52 29.73 28.01 31.18 37.88 40.52 41.66 27.36 29.77 39.04 40.11 40.20 41.04 38.84 40.06 43.05 44.78 44.39 45.73 45.98 47.07 49.39 50.55 56.20 57.56 58.19 57.77 56.63 59.62 61.20 61.95 62.35 61.88 61.39 61.35 60.90 61.77 61.67 61.11 60.62 60.46 59.42
29.98 29.74 30.37 31.50 27.90 23.32 40.83 39.81 34.72 37.90 41.32 41.92 41.28 40.82 40.35 41.60 43.63 42.89 43.26 43.89 44.76 45.47 48.13 49.56 49.92 56.68 59.16 58.03 57.43 56.11 59.12 60.88 61.97 62.06 61.90 60.85 61.86 61.84 61.58 60.79 59.77 60.56 59.50 58.08
25.16 33.80 32.17 31.73 30.80 38.40 42.59 41.61 41.55 43.81 41.62 40.74 39.62 40.47 41.38 41.91 41.54 42.82 43.50 44.47 45.47 46.99 48.77 50.48 53.01 57.35 59.73 60.21 61.77 59.32 59.38 61.62 61.38 60.75 60.25 61.35 61.79 60.68 60.48 59.84 59.64 59.63 58.76 57.90
34.41 37.44 33.85 36.01 36.79 40.02 41.51 41.67 40.91 40.36 40.14 42.18 42.23 42.47 42.20 40.91 42.52 43.44 44.89 46.37 48.41 50.77 50.92 51.28 53.91 57.96 58.42 61.18 62.05 59.98 61.25 61.92 60.95 60.48 59.54 60.74 59.99 59.10 59.61 60.39 60.81 60.10 58.56 57.58
34.66 36.94 37.11 37.37 39.88 41.23 40.41 41.18 40.48 40.13 41.92 42.03 42.89 42.97 42.90 43.41 43.50 44.93 46.23 47.10 49.35 51.71 53.08 53.05 56.25 59.21 57.73 60.12 61.00 61.78 62.01 61.50 60.45 59.82 59.76 59.84 59.70 58.13 55.73 51.99 55.37 59.92 59.25 57.99
38.66 39.28 36.50 34.69 40.86 40.10 39.67 39.62 41.51 40.80 41.10 42.63 42.08 42.41 44.06 45.07 45.57 46.52 47.01 48.36 50.61 52.23 56.24 57.31 59.03 58.01 59.15 59.33 61.07 61.68 62.20 61.72 60.40 59.11 59.16 59.23 58.07 56.29 54.92 54.14 51.44 41.07 43.46 45.27

GFSCGP_sfc_wetblb_057.txt.gz
Wetbulb
38.33 33.41 30.71 34.82 35.34 36.57 35.48 33.28 32.09 35.58 39.38 36.91 36.03 37.62 40.35 41.62 41.36 41.35 42.51 44.12 45.11 46.34 49.05 51.21 52.79 55.93 57.18 57.48 60.17 61.89 62.48 62.14 62.48 65.66 66.38 67.03 67.40 68.89 69.60 69.76 69.15 68.40 68.32 67.95
34.31 30.09 37.07 38.90 37.90 36.22 34.75 31.62 31.78 35.88 39.96 38.10 36.54 36.90 39.75 40.67 40.80 41.19 41.85 42.59 43.70 45.17 47.03 49.00 51.11 52.38 54.44 55.40 58.24 59.83 61.57 63.45 63.42 65.76 67.09 66.70 67.82 69.24 69.44 69.04 68.03 68.51 68.97 68.91
31.20 35.75 40.36 38.76 36.83 36.41 33.93 33.01 33.27 33.71 37.94 37.87 35.52 34.65 36.67 39.47 40.90 42.25 42.77 42.93 43.64 43.70 44.72 46.77 48.50 49.73 51.52 53.17 53.98 58.74 60.51 62.03 63.57 66.28 65.55 62.70 63.16 62.57 64.52 64.23 65.14 66.62 67.36 68.33
33.64 38.09 38.34 35.68 36.28 37.11 30.80 38.29 37.79 36.21 32.63 25.98 35.31 24.96 32.68 37.10 38.12 39.57 41.16 41.26 42.38 42.96 44.51 45.05 46.03 46.72 48.40 50.38 52.50 55.99 59.58 61.39 63.34 67.11 66.73 65.42 66.54 65.57 62.01 63.26 66.25 64.78 65.14 66.47
33.86 34.41 34.28 34.01 36.28 39.01 34.11 39.27 36.26 35.59 30.96 27.44 29.87 24.94 30.19 37.22 35.33 37.69 39.56 41.87 43.48 45.04 45.11 46.22 47.92 48.93 49.62 48.91 50.01 52.52 58.41 60.56 62.33 64.79 67.76 67.26 66.56 64.26 59.82 58.75 60.96 61.93 63.70 66.48
35.92 38.96 37.95 37.78 40.31 39.46 40.13 34.95 32.83 30.68 28.13 21.29 28.20 27.12 26.36 30.39 33.60 36.86 40.84 44.00 45.11 45.13 45.74 46.88 48.29 49.30 49.82 50.78 49.94 50.41 55.26 59.46 61.66 63.09 65.68 65.86 65.48 61.10 58.71 59.25 59.82 60.77 63.41 65.83
34.01 33.94 38.96 41.57 35.59 37.00 34.05 27.29 20.42 18.97 19.01 20.73 29.81 27.45 30.22 36.31 39.65 40.74 41.32 42.99 44.15 44.84 44.27 44.87 46.15 48.19 49.73 50.27 51.36 51.31 52.86 57.62 60.10 61.74 63.60 63.33 63.51 62.12 60.73 60.50 61.04 62.16 63.34 64.60
24.42 24.25 35.49 41.92 36.20 31.82 30.95 28.96 21.13 16.20 18.63 22.27 30.36 23.48 29.62 39.42 42.45 43.12 43.93 43.73 44.19 44.01 42.82 43.32 45.70 47.11 48.82 50.11 50.76 50.97 49.99 55.47 58.73 60.63 62.08 63.07 62.36 61.44 60.31 60.44 62.42 63.83 64.69 65.48
27.45 29.06 38.53 39.90 38.88 36.53 30.45 27.28 31.02 24.48 24.46 19.74 24.80 30.10 36.30 39.91 40.40 41.93 41.33 42.48 41.93 42.42 43.24 43.89 45.09 46.68 48.17 49.37 50.44 50.19 52.76 52.52 57.86 59.94 60.96 59.03 60.43 59.83 60.36 61.63 64.13 65.23 65.10 65.95
33.48 27.07 36.32 38.78 38.71 37.69 33.43 34.75 23.60 23.87 18.59 18.07 23.32 25.63 27.89 34.08 36.80 39.97 40.24 40.31 41.31 42.38 43.03 44.67 45.75 47.01 48.57 49.19 49.55 54.53 55.13 50.93 55.99 59.05 59.77 59.63 60.62 60.99 61.56 64.23 64.76 65.01 64.30 65.98
34.96 30.27 31.14 35.25 32.49 30.01 29.99 28.08 29.51 27.25 25.35 17.25 16.54 23.74 34.23 35.62 38.49 38.84 39.99 41.37 40.82 41.26 43.04 44.53 45.91 47.47 48.22 48.13 49.48 52.94 55.69 51.90 51.21 54.64 56.80 59.25 60.78 61.90 63.90 64.63 65.21 65.30 65.39 65.85
36.79 30.79 27.17 30.10 36.36 37.82 34.10 30.82 30.09 19.77 18.72 27.97 24.28 25.22 38.41 38.92 38.60 39.44 39.85 42.44 42.58 43.21 43.74 45.20 46.50 47.17 48.12 46.53 49.31 50.50 53.50 56.95 53.20 55.42 57.48 60.36 61.86 63.92 64.49 64.74 65.16 65.21 65.42 66.09
35.86 28.72 24.99 25.92 29.23 32.91 31.14 34.04 32.96 31.35 27.45 25.61 23.38 25.35 38.14 38.81 39.32 40.53 40.48 41.94 42.86 43.19 44.43 46.33 47.10 47.54 48.06 47.26 48.66 50.98 54.60 60.46 57.58 60.44 61.34 63.23 64.34 64.69 64.83 64.85 65.27 65.66 65.64 66.18
41.67 30.52 28.72 24.62 27.17 28.62 29.19 32.82 35.08 34.00 28.36 27.17 27.46 29.37 34.63 36.98 37.28 39.35 40.94 41.59 41.38 43.22 46.56 47.23 47.37 48.94 49.91 49.00 51.95 56.12 56.93 62.52 61.53 63.17 63.55 64.77 65.73 65.17 64.94 65.34 66.11 66.18 66.66 66.25
34.86 28.44 31.15 32.59 34.09 34.55 33.55 33.34 34.24 32.67 33.43 29.98 31.08 30.65 34.48 36.72 37.01 39.03 41.43 42.72 43.54 46.39 47.87 48.81 48.89 49.49 52.79 51.48 52.64 53.40 55.47 62.13 64.38 64.59 64.39 65.08 66.70 66.13 66.18 66.18 66.67 67.02 66.32 65.77
33.50 27.31 31.52 30.50 33.70 33.57 31.30 33.85 34.45 34.18 34.37 34.45 34.13 32.69 38.76 39.80 40.22 40.18 40.32 41.53 42.22 46.17 46.39 46.83 47.68 49.50 52.11 53.14 53.20 54.39 55.39 59.77 64.90 64.87 64.52 65.56 65.70 65.84 65.48 65.30 65.22 65.22 63.46 62.92
30.41 28.13 27.34 25.33 32.42 32.09 27.60 32.31 34.20 35.44 37.25 36.13 30.98 35.54 38.84 38.33 38.62 38.85 39.96 40.79 41.95 44.55 44.41 45.25 46.96 48.60 50.81 55.06 55.35 53.72 54.98 59.33 64.26 64.31 64.22 64.50 63.94 63.33 63.36 63.50 63.04 62.61 62.06 60.96
30.37 30.45 33.31 28.19 27.98 22.17 31.73 39.11 38.37 35.34 36.85 38.00 37.26 38.55 38.97 39.04 40.02 40.69 41.89 41.04 42.61 43.05 43.88 44.94 47.30 47.65 49.33 51.81 56.66 56.56 57.72 58.85 64.33 64.04 64.10 63.84 63.07 62.48 62.00 62.13 61.40 61.31 60.73 59.29
35.69 33.41 31.59 27.93 23.03 28.14 32.62 36.11 34.79 33.22 32.95 38.78 38.02 38.70 39.47 40.46 40.47 39.78 42.67 43.41 43.33 43.69 44.44 45.64 47.61 48.12 50.01 51.17 56.80 57.39 58.61 57.12 63.56 63.42 63.42 63.20 62.99 61.39 60.76 60.18 60.84 60.46 58.61 57.19
36.60 36.52 32.68 30.00 25.82 19.32 29.37 38.49 40.93 39.36 29.59 39.28 38.94 38.17 38.53 39.82 33.90 36.50 41.69 43.03 44.27 44.58 44.70 45.52 46.97 48.93 51.10 54.00 57.33 57.23 57.33 55.41 63.21 63.05 63.14 63.22 62.43 61.64 60.33 59.93 60.03 59.06 58.55 57.11
31.74 33.45 29.75 28.73 26.84 28.77 36.28 39.79 40.87 28.82 29.90 39.54 39.76 40.00 38.74 37.38 38.96 40.97 42.06 43.09 43.90 44.29 45.15 46.88 47.55 49.03 51.31 54.54 56.83 55.81 57.68 56.09 62.70 63.22 62.72 62.35 62.20 61.19 60.33 60.01 60.28 59.40 58.71 56.91
26.40 24.47 25.25 30.11 27.82 22.19 40.14 39.57 34.80 38.68 41.57 42.07 40.78 39.78 38.81 39.63 40.47 40.81 41.85 42.32 42.83 44.16 45.85 47.51 48.14 50.19 51.42 57.07 56.85 56.03 56.55 58.37 58.85 61.96 62.10 61.22 60.87 61.20 60.45 60.19 60.12 59.76 57.73 55.87
23.66 32.55 31.18 28.88 26.85 35.23 40.03 40.74 43.64 43.83 41.60 38.94 38.27 38.76 40.71 40.23 40.33 41.55 41.64 42.45 43.80 45.32 46.51 49.21 51.24 51.00 53.32 58.46 56.97 55.51 57.26 58.54 59.97 61.06 60.00 59.70 60.18 60.19 60.36 60.48 59.55 57.96 57.17 56.35
33.89 35.21 30.48 32.76 34.57 37.89 41.49 41.99 43.26 42.17 37.99 39.00 40.45 40.75 41.41 40.72 41.70 42.27 43.10 43.97 44.53 46.23 47.63 50.17 52.48 52.49 55.93 57.63 57.83 58.13 58.01 59.23 60.63 58.77 59.43 59.74 59.23 59.44 60.53 60.63 59.67 58.17 56.87 56.29
34.93 35.86 34.98 35.74 38.55 40.71 41.76 42.39 40.94 38.74 40.11 41.10 42.19 42.43 42.14 41.83 41.97 42.97 43.66 45.13 46.39 47.16 48.42 51.03 53.64 54.00 57.07 57.34 59.14 59.81 58.16 60.93 59.73 59.82 59.91 59.51 59.03 58.80 55.65 52.47 55.93 58.39 57.37 56.45
36.07 34.84 35.22 33.61 40.48 39.78 40.56 40.81 40.93 40.44 40.73 41.41 41.64 41.11 42.67 42.97 42.74 44.70 44.91 45.97 46.87 47.80 49.62 50.98 54.57 57.67 58.74 59.41 60.12 60.78 61.20 61.26 60.45 59.51 58.71 58.44 56.91 56.31 54.99 54.51 51.96 41.57 43.62 46.70

GFSCGP_sfc_wetblb_060.txt.gz
Wetbulb
36.76 33.22 30.36 33.86 34.61 34.57 33.51 31.62 30.87 34.13 37.87 36.60 35.34 36.03 38.32 41.69 41.04 40.62 41.93 43.25 44.48 46.93 48.88 50.01 51.55 52.49 52.75 54.29 55.16 58.11 61.73 63.10 63.88 64.32 65.81 65.76 65.86 66.53 67.11 67.72 68.30 67.72 67.42 67.00
33.32 29.44 35.46 37.91 36.92 35.07 33.21 30.32 30.46 34.87 38.43 36.14 35.36 35.45 38.69 39.88 40.55 40.97 41.30 42.25 42.78 44.47 47.03 48.49 49.17 50.56 50.38 51.60 52.33 54.64 57.62 61.19 61.18 64.84 66.85 67.25 67.35 67.83 68.86 69.27 69.08 68.59 68.06 68.03
30.40 34.46 39.11 37.41 35.74 35.05 32.52 31.33 31.68 32.58 36.30 35.71 34.12 30.71 33.68 38.43 40.04 41.31 42.31 42.30 42.65 42.75 43.20 46.38 47.47 48.19 48.90 49.47 50.36 51.86 54.40 56.98 59.49 62.53 63.70 64.01 64.52 63.97 65.45 66.22 68.14 68.68 68.91 68.77
32.33 36.40 36.91 34.17 34.85 35.96 29.45 37.33 36.51 34.48 30.56 24.25 33.59 22.35 29.52 34.13 35.73 38.45 39.42 39.35 40.72 43.20 45.61 45.93 47.43 48.22 49.13 50.45 49.53 49.41 51.73 54.60 57.76 59.75 62.28 63.86 65.07 65.06 66.71 67.45 67.31 67.62 68.68 68.90
32.95 33.65 33.04 32.55 34.61 37.61 32.56 37.90 34.56 33.88 29.14 26.06 27.70 22.96 27.33 33.22 32.60 34.78 38.26 40.20 43.12 44.55 45.26 45.71 46.28 47.76 49.04 50.33 49.45 49.19 49.92 52.15 56.31 58.62 61.90 63.71 63.99 65.36 66.28 62.46 65.33 65.38 65.51 66.58
34.62 37.44 36.12 35.81 38.86 38.04 37.73 33.60 30.88 28.09 26.00 19.83 25.83 25.20 23.75 29.28 33.18 36.07 39.90 42.11 43.34 44.23 44.84 45.52 46.66 47.60 47.43 48.82 49.51 49.87 49.47 49.81 54.79 58.23 60.93 63.71 64.87 65.24 61.00 60.95 61.75 62.79 63.29 64.93
33.56 32.89 37.71 40.18 34.25 35.13 32.63 26.30 19.62 18.58 18.27 19.15 27.76 25.29 27.47 34.23 37.42 38.10 40.46 42.13 43.31 43.21 43.13 43.50 43.68 45.32 47.02 47.66 48.64 49.56 50.41 49.61 51.35 56.81 59.34 62.02 64.95 65.78 63.61 63.95 62.78 61.08 62.13 64.22
27.32 25.98 35.53 40.35 34.62 31.11 29.18 27.64 20.34 15.71 17.55 18.25 28.35 22.42 27.01 36.05 39.06 41.05 42.55 42.63 43.39 43.57 42.92 42.08 43.23 44.27 46.19 47.76 48.46 49.13 49.45 48.77 51.35 53.62 58.55 61.40 63.81 65.32 64.56 63.83 61.88 61.67 62.40 64.14
29.50 30.14 38.46 39.39 38.28 36.17 28.99 26.04 28.83 23.34 21.81 17.61 22.66 27.62 34.26 37.84 37.73 39.52 41.01 41.74 41.46 42.49 42.52 42.52 43.81 43.99 45.57 46.98 48.09 49.40 49.01 49.84 54.77 53.02 57.57 60.31 62.42 63.32 62.23 60.57 61.69 61.84 64.09 65.16
33.97 28.01 37.07 38.86 38.20 35.94 32.40 33.79 23.48 21.92 17.54 17.69 21.48 23.75 26.06 32.32 35.06 36.73 38.69 39.14 41.29 42.61 41.59 43.17 44.31 45.92 47.79 47.95 48.45 49.40 49.13 51.87 54.33 54.46 55.31 59.82 60.82 61.43 61.16 60.54 61.89 63.54 64.79 66.38
35.69 32.24 31.75 35.86 32.83 29.96 28.91 27.13 28.28 25.33 21.65 15.96 15.54 22.72 31.95 32.79 35.59 35.91 36.50 39.66 41.30 42.39 42.10 42.10 44.00 46.65 47.46 47.81 48.56 48.92 49.01 50.79 52.53 55.29 53.84 58.32 59.12 60.47 60.91 61.92 63.12 64.33 64.95 66.31
37.08 32.40 28.26 31.04 36.04 37.07 32.72 29.85 29.01 19.84 19.18 27.40 25.01 25.16 36.65 37.10 35.16 37.09 37.80 40.27 42.56 43.72 42.67 42.59 44.09 46.02 47.68 50.97 51.81 50.04 49.23 50.58 53.28 57.74 53.37 57.12 59.12 60.73 61.81 62.95 64.03 64.90 65.38 66.49
37.25 29.99 25.25 26.23 29.04 31.59 30.10 32.70 30.95 28.84 26.60 25.76 23.43 25.39 37.03 37.32 37.35 39.33 38.03 40.27 41.94 43.04 42.81 43.41 45.68 47.86 49.23 50.00 52.15 52.28 52.69 54.73 56.71 60.61 54.96 56.58 59.93 61.63 62.24 63.20 64.43 65.32 65.71 66.56
40.45 31.49 29.45 23.39 25.70 27.34 27.28 31.42 32.82 31.21 28.01 26.33 27.71 29.41 34.68 36.56 36.74 37.47 39.37 40.65 41.23 42.00 45.36 46.92 47.32 46.91 48.26 49.48 50.49 53.23 54.40 55.11 56.30 61.72 58.90 58.58 60.51 62.18 63.17 64.14 64.87 65.54 66.20 66.40
35.67 29.86 31.16 31.38 33.21 33.46 32.20 32.24 32.93 30.82 31.64 28.33 30.49 30.83 34.70 37.29 37.56 38.42 40.05 40.34 41.01 41.66 42.66 46.01 45.89 47.09 48.56 48.79 50.04 51.76 55.31 56.14 57.19 63.14 61.42 61.95 63.33 63.95 64.46 65.03 65.58 66.07 66.60 66.70
32.83 27.17 29.66 29.33 33.21 33.23 30.89 32.63 32.84 32.97 33.17 32.97 33.08 32.09 39.50 39.92 39.65 38.87 39.09 40.23 40.54 41.53 43.10 44.50 45.47 46.55 47.87 48.96 49.73 50.78 52.19 56.46 57.19 63.46 63.39 64.98 65.07 65.34 65.45 65.56 65.51 65.74 66.06 65.80
32.35 28.74 28.24 25.23 30.73 30.80 26.92 31.20 32.49 33.32 35.64 34.37 30.11 35.26 37.52 37.17 39.00 39.51 39.91 40.74 40.62 41.60 43.67 43.59 44.91 45.86 46.64 48.94 50.13 49.39 51.04 56.46 57.86 62.74 64.36 64.72 64.76 64.96 64.34 65.00 65.18 65.01 64.37 64.52
28.88 28.93 30.14 25.94 28.31 21.44 30.08 37.75 37.34 35.06 36.37 36.88 36.60 37.03 38.24 38.58 40.34 41.92 43.06 41.28 41.39 42.41 42.70 43.42 45.22 45.64 46.59 48.42 49.31 50.90 52.36 57.03 57.74 63.22 63.66 64.43 64.78 64.47 64.35 64.55 63.97 62.77 62.87 62.10
33.59 31.79 29.55 27.05 24.07 26.70 31.47 34.44 33.31 31.65 32.77 38.98 37.19 37.76 39.21 41.53 40.81 40.00 42.66 42.93 41.80 42.35 43.09 44.22 46.14 45.55 46.62 48.12 49.71 51.40 55.04 57.89 57.04 61.63 63.87 63.91 64.23 63.70 63.10 62.23 61.45 61.21 60.33 59.31
36.49 35.61 31.81 28.80 18.96 13.43 28.97 37.16 40.05 37.62 29.76 38.95 39.60 39.30 39.96 39.94 33.60 35.74 40.52 42.04 42.68 43.24 43.37 44.07 45.11 46.12 47.16 48.41 50.01 51.78 55.55 56.58 56.98 60.97 63.65 63.46 62.97 62.56 61.95 61.27 60.64 60.26 59.60 57.95
30.84 32.13 28.51 28.76 26.31 26.38 34.71 38.93 39.84 27.29 28.60 39.14 40.78 40.82 38.85 35.38 36.80 39.13 41.07 41.85 42.88 42.89 43.46 44.67 44.93 46.38 47.87 49.70 50.77 51.46 55.73 55.81 58.45 63.81 62.89 62.41 62.15 61.63 61.72 60.69 59.74 58.62 57.77 57.43
23.96 26.73 25.79 28.78 26.21 21.52 38.77 37.85 32.29 35.64 41.67 41.63 41.32 39.34 36.53 37.23 38.92 39.94 41.93 42.32 43.19 43.13 44.11 45.27 45.74 47.08 49.33 51.36 52.88 52.00 55.17 58.43 59.16 63.04 62.43 61.27 61.10 61.51 61.20 59.91 59.25 58.36 57.45 56.09
24.35 28.64 24.34 26.42 24.99 32.72 37.63 38.04 41.02 43.59 41.97 39.95 39.26 37.84 38.50 39.53 39.65 40.74 41.43 42.73 43.26 44.56 45.13 46.56 47.12 48.40 51.08 53.31 53.98 56.31 56.12 59.01 60.21 61.90 60.80 60.89 61.00 61.02 60.55 59.08 58.11 57.05 57.37 56.55
32.76 34.36 31.00 32.12 32.80 35.60 38.75 40.92 42.63 42.73 40.60 39.45 38.78 40.20 40.64 40.08 41.53 41.40 42.06 42.85 43.60 44.85 45.58 47.34 48.27 48.90 50.45 54.77 57.01 57.57 58.33 59.58 60.89 60.54 60.41 60.41 59.82 59.91 59.96 59.62 58.81 57.60 56.87 56.15
34.56 35.08 31.88 32.11 35.43 38.95 40.18 41.91 42.76 40.58 39.35 39.57 41.71 41.32 41.45 41.35 41.17 41.72 42.08 43.11 44.65 46.05 46.76 47.79 48.34 49.40 51.18 54.72 57.19 58.20 59.00 61.08 59.88 60.04 59.83 59.32 59.64 59.39 55.43 52.48 56.49 58.44 57.91 56.59
36.72 34.77 33.95 32.54 38.03 38.70 39.76 41.91 41.79 38.38 38.41 40.08 40.79 41.03 41.31 42.10 41.48 42.75 43.10 44.61 45.51 46.55 48.21 49.06 50.06 51.43 52.71 55.78 58.02 59.87 59.76 60.80 60.14 58.84 58.68 58.45 57.60 56.54 55.45 54.93 52.68 41.45 43.64 44.20

GFSCGP_sfc_wetblb_063.txt.gz
Wetbulb
42.31 40.38 37.97 39.93 41.00 40.47 38.94 37.48 36.66 39.43 42.18 41.53 41.12 41.21 42.99 45.48 45.46 45.38 45.88 47.15 48.50 49.05 52.56 53.64 54.77 56.81 57.53 59.43 60.55 61.17 62.48 68.44 71.98 70.73 69.50 68.62 66.69 67.30 67.56 68.35 68.83 69.32 69.56 68.08
39.82 37.49 41.31 41.50 40.52 39.11 38.50 36.92 36.82 40.39 42.44 41.26 40.67 40.00 42.78 44.36 45.21 46.49 46.49 46.50 47.36 48.39 49.45 51.06 53.93 55.68 57.34 57.84 59.21 60.46 61.08 62.51 67.05 70.04 71.49 71.61 71.31 70.62 69.63 69.78 71.36 71.25 70.45 70.14
37.12 39.23 41.59 40.60 39.52 38.46 38.13 37.39 37.32 36.67 39.90 41.10 39.68 37.67 39.65 42.75 44.27 45.61 46.76 47.39 47.45 47.28 47.63 51.55 53.03 54.45 55.82 56.44 58.12 58.83 59.70 60.82 62.38 65.86 68.83 71.15 71.74 71.46 71.31 71.41 71.21 71.85 71.78 71.76
38.78 40.90 40.04 39.08 38.43 40.66 36.22 41.48 39.44 37.56 36.21 32.32 38.88 30.63 37.49 40.43 41.77 43.78 45.82 47.77 48.79 48.88 50.73 51.49 52.24 52.93 54.11 55.10 56.52 57.76 59.26 60.11 61.07 62.74 64.93 69.13 67.49 68.00 70.24 71.82 72.44 72.91 72.16 71.86
37.82 38.92 38.71 37.88 38.97 41.64 37.50 41.65 39.18 38.09 36.57 34.68 35.10 32.23 36.72 39.83 39.38 42.41 44.87 46.64 49.71 50.49 50.59 51.00 51.59 52.44 53.48 54.90 55.50 56.51 58.56 59.58 61.09 61.66 63.10 64.05 67.30 67.83 70.46 71.04 73.41 72.33 72.24 72.99
40.36 42.05 40.77 40.40 42.38 41.91 41.90 39.21 37.06 36.32 35.65 29.37 33.16 32.83 34.08 37.27 40.01 42.38 44.47 46.21 48.28 50.62 51.05 52.13 52.91 52.92 53.40 54.91 55.60 56.17 56.68 58.58 60.22 60.52 61.39 63.59 66.35 67.89 67.67 69.21 69.08 70.30 70.53 71.93
38.14 37.99 41.23 43.44 39.43 40.83 39.64 36.28 30.41 28.32 28.34 28.63 34.14 32.05 34.98 40.12 42.58 43.67 43.69 45.58 48.21 50.60 50.78 50.81 51.23 51.84 52.97 54.18 54.89 55.53 56.45 57.03 59.33 59.19 59.36 61.94 65.28 67.44 68.18 68.78 68.43 68.39 67.71 69.02
33.38 31.32 38.75 42.90 39.89 37.71 37.22 36.50 31.19 21.85 25.11 28.99 33.91 29.62 36.11 41.66 43.88 45.11 46.05 47.58 48.84 48.76 50.33 50.33 50.99 51.81 52.76 54.58 55.19 55.29 55.64 56.42 57.98 58.19 59.52 62.18 64.33 64.48 67.35 69.21 68.94 67.39 67.33 69.88
33.24 32.60 40.11 41.38 42.04 41.05 35.70 33.72 37.06 31.71 30.61 27.82 31.92 35.27 39.58 42.33 42.62 43.77 44.82 46.56 46.95 48.23 50.31 50.69 50.95 51.74 53.01 55.31 55.75 56.08 55.85 56.46 57.78 57.89 60.24 61.66 63.22 65.86 66.90 69.97 71.10 69.23 70.27 70.02
37.82 31.55 38.74 39.70 41.51 40.37 38.97 39.88 31.31 33.26 23.54 22.23 29.54 31.05 32.99 38.13 40.03 42.62 44.49 45.11 46.57 48.43 50.20 51.29 51.40 51.98 53.67 55.44 56.47 57.97 57.82 57.13 57.53 58.11 59.23 60.59 62.51 65.10 67.34 69.21 69.78 69.46 70.12 70.10
38.27 34.79 34.76 38.00 35.74 35.03 36.14 34.75 34.85 34.28 32.23 25.61 24.36 30.74 39.54 39.50 41.70 42.19 43.68 45.36 46.23 48.12 49.71 51.08 51.25 52.28 54.29 55.52 56.35 57.43 59.09 58.73 58.66 59.70 59.77 60.85 62.22 64.55 65.97 67.35 67.57 68.79 69.70 69.74
39.25 36.71 32.01 33.75 39.06 40.09 38.46 36.86 36.95 30.19 28.16 31.63 30.41 30.58 42.32 42.89 43.08 43.51 44.51 46.01 47.51 48.89 49.89 50.49 51.93 53.26 54.32 54.46 54.61 55.58 57.54 58.71 60.35 60.81 60.36 61.01 63.48 64.68 65.08 65.94 66.94 68.18 68.67 69.59
40.04 34.89 28.68 29.99 33.67 36.91 34.86 36.60 37.40 36.69 34.42 30.28 27.48 31.44 42.01 42.80 43.87 45.07 44.91 46.08 47.18 48.30 48.93 49.42 50.17 51.12 52.74 53.62 54.26 54.31 56.04 57.18 58.31 60.56 60.74 61.27 65.91 64.70 65.12 65.90 67.29 68.19 69.03 69.42
41.56 36.27 32.36 27.34 31.13 34.66 32.57 35.12 36.84 35.93 30.95 31.64 32.11 34.35 38.93 41.35 42.42 44.47 45.47 46.62 47.32 47.50 47.98 48.37 48.68 50.74 51.61 52.07 52.33 53.51 55.01 56.94 57.06 57.86 60.22 60.12 65.43 64.92 64.71 66.11 67.66 68.49 69.10 69.40
39.52 31.69 34.06 35.31 36.33 36.44 35.29 35.20 35.97 34.38 35.33 30.98 33.80 34.26 38.79 41.83 43.42 44.63 46.22 46.34 46.05 46.55 47.49 47.59 48.22 49.84 50.22 50.30 50.92 52.28 53.60 55.45 56.34 56.34 58.12 59.54 64.85 65.13 64.58 66.11 67.52 68.56 69.10 69.62
39.48 32.74 34.65 32.56 35.69 35.95 33.87 35.38 35.78 35.81 36.08 35.91 36.30 35.78 42.75 44.70 45.59 44.72 45.02 45.38 45.36 46.00 46.84 47.55 48.45 49.23 49.03 49.78 50.12 50.71 51.97 53.86 55.22 56.05 56.15 59.35 64.24 65.60 64.71 66.78 67.55 68.12 68.62 69.39
35.59 34.55 31.84 27.51 33.30 33.30 28.99 34.35 35.94 36.84 38.61 37.95 34.47 39.82 44.23 42.82 43.32 44.08 44.70 45.09 45.27 45.83 46.28 46.94 47.33 48.33 48.96 50.00 51.00 50.13 51.28 53.68 54.33 54.98 56.86 59.01 63.99 64.18 65.19 65.93 66.14 67.00 66.85 68.09
33.77 33.02 32.60 28.26 31.18 22.87 35.50 40.57 40.80 38.75 39.99 41.40 41.21 42.60 43.57 43.29 44.99 45.54 45.94 45.51 45.61 45.76 45.90 46.63 47.26 47.82 49.19 49.64 50.49 50.62 51.59 53.11 54.37 54.88 58.56 59.41 64.44 63.75 64.70 65.75 66.53 66.20 67.11 68.27
37.40 33.70 30.02 27.45 27.87 32.51 35.06 38.25 38.07 36.66 37.20 42.33 41.21 41.63 42.73 44.04 44.45 42.62 45.56 46.39 45.17 44.95 46.03 45.98 47.18 47.71 49.00 49.18 49.87 49.86 50.73 52.94 54.36 55.64 58.59 60.19 63.81 63.89 64.52 65.17 65.60 65.86 65.90 65.54
34.69 34.87 32.51 31.48 27.18 23.86 34.37 40.09 42.30 41.46 32.76 41.56 41.77 40.82 40.70 41.52 34.16 37.61 43.56 44.61 44.46 45.19 45.99 46.61 47.55 47.92 48.44 49.25 50.26 50.46 50.79 52.32 54.19 55.84 58.75 60.60 64.00 64.11 64.05 64.56 64.15 64.76 65.82 61.15
32.58 31.80 28.63 28.86 26.60 32.49 38.88 41.33 42.59 31.10 33.92 43.06 43.50 42.07 40.75 37.28 39.89 43.51 44.29 43.53 44.12 44.35 45.66 47.28 47.68 47.44 48.75 50.14 50.86 50.91 51.51 52.51 55.97 58.03 60.07 62.12 64.42 64.80 64.42 63.84 62.95 63.05 61.80 60.13
32.05 30.85 31.39 31.01 28.67 26.91 42.80 41.04 34.73 40.60 43.58 43.74 43.64 42.05 41.10 41.78 41.98 42.24 42.53 42.08 43.32 43.76 45.11 46.40 46.81 47.62 50.04 51.42 50.88 51.20 52.06 55.39 57.59 58.35 58.84 64.05 64.25 63.70 62.63 61.98 61.80 61.41 59.55 59.34
31.59 36.06 33.29 33.80 35.15 41.54 42.49 41.68 44.16 45.09 43.92 44.05 42.85 43.59 42.56 41.00 40.22 41.59 40.58 43.24 43.38 44.10 45.12 47.07 47.45 48.76 50.24 51.47 51.87 51.98 54.20 56.79 58.61 58.71 60.62 62.51 62.40 62.04 61.71 61.25 60.84 59.40 60.23 58.31
36.73 38.71 35.87 35.10 38.61 40.22 42.00 43.74 45.19 45.89 44.72 45.16 45.09 43.16 42.38 40.01 41.18 40.88 42.27 42.18 43.09 44.58 45.42 47.00 48.17 49.05 50.17 52.16 52.96 53.16 56.21 58.82 58.47 58.12 61.02 61.22 60.50 60.17 61.04 61.03 62.18 61.16 59.64 59.07
37.00 37.83 36.34 36.02 38.85 39.67 42.54 43.82 44.84 44.30 44.94 44.09 43.83 42.88 41.14 40.92 41.19 40.83 41.21 42.68 43.88 45.09 46.31 47.26 47.79 49.46 50.55 52.90 52.94 54.07 58.23 58.86 57.87 60.69 60.53 60.35 59.98 60.83 60.10 60.56 62.33 62.03 62.61 59.74
39.48 36.70 33.73 34.03 38.88 38.00 40.53 44.47 45.17 43.20 42.19 42.69 41.31 40.45 41.66 41.22 40.56 41.88 42.41 44.22 44.77 45.20 46.25 46.84 48.11 49.91 51.59 53.23 53.53 54.86 59.21 60.16 61.15 60.03 60.07 59.49 57.60 57.78 58.45 57.11 53.55 41.34 45.29 44.31

GFSCGP_sfc_wetblb_066.txt.gz
Wetbulb
46.94 43.33 41.63 43.82 44.95 44.64 43.27 41.90 40.95 42.94 45.22 44.53 44.52 45.09 47.03 49.10 49.24 48.77 49.66 50.25 50.17 52.53 53.91 54.96 56.31 58.31 60.18 62.26 62.64 63.64 64.03 66.33 70.99 71.08 70.02 71.09 71.26 70.77 70.13 69.79 71.87 71.89 71.22 70.18
43.47 40.60 44.82 44.91 44.45 43.33 42.83 41.17 41.19 43.28 45.20 44.25 44.24 43.93 46.71 48.17 48.59 49.38 49.83 50.11 50.87 51.37 52.26 53.40 55.59 58.06 59.24 60.47 62.10 62.80 63.94 64.03 65.91 69.10 72.84 73.48 72.69 72.54 72.26 72.15 72.32 72.38 71.47 71.38
41.42 42.78 44.71 43.37 42.72 41.41 42.16 41.07 41.23 40.85 43.45 45.02 43.36 41.95 44.35 46.24 47.41 48.70 49.84 50.34 50.28 49.77 49.93 53.34 55.11 56.18 57.56 58.62 59.80 61.06 62.69 64.06 65.51 66.71 67.80 71.15 72.65 72.93 73.30 73.46 72.36 72.91 71.95 72.29
42.67 44.64 42.44 42.48 41.46 42.88 39.80 44.15 42.43 40.92 40.11 37.07 42.77 35.78 42.12 44.68 45.10 46.94 48.95 50.35 50.97 52.02 52.50 52.77 54.23 54.80 56.28 57.28 59.67 61.30 62.33 62.91 64.21 65.02 66.01 68.19 67.37 68.74 70.05 71.97 74.32 75.19 73.94 73.08
40.97 41.52 41.57 41.21 41.80 43.32 41.19 43.78 42.48 41.68 39.69 39.70 39.85 37.05 41.48 43.97 43.15 45.43 47.32 48.78 50.61 52.46 52.96 53.33 53.70 55.25 56.42 58.13 59.05 60.25 62.11 63.13 63.84 65.07 66.03 64.89 66.88 66.17 67.61 70.03 74.36 77.31 77.33 75.29
43.84 46.55 43.96 43.22 44.19 44.60 44.44 42.54 42.18 42.20 40.14 33.96 38.68 38.02 39.50 41.59 43.51 45.66 46.59 46.98 48.79 51.63 53.06 53.59 54.28 55.23 55.61 57.76 58.80 60.37 61.14 62.02 63.09 64.11 65.33 65.49 65.59 66.98 66.09 68.51 68.68 70.25 72.96 74.42
43.00 43.03 44.87 44.68 42.05 44.54 43.48 40.55 34.29 33.55 33.80 33.18 39.10 36.11 39.65 43.33 44.72 45.19 45.43 47.36 49.74 52.48 52.62 53.14 53.51 54.15 55.63 56.63 57.86 59.38 60.30 61.16 62.54 62.95 63.74 64.36 65.13 66.42 67.39 68.78 67.50 70.25 68.97 71.35
37.36 34.76 41.93 45.20 42.82 40.73 41.07 40.34 34.85 27.96 31.12 34.29 39.19 33.75 40.03 44.76 46.54 46.47 47.56 49.88 50.78 50.79 52.54 53.68 54.52 55.35 55.43 56.53 58.52 59.18 59.64 60.65 61.62 62.35 63.04 63.89 64.73 64.50 65.63 68.49 67.46 67.30 68.82 70.58
37.76 37.31 43.75 44.56 44.90 43.47 39.93 37.01 41.92 36.48 37.66 33.81 36.56 39.62 43.51 45.31 45.05 46.26 47.60 49.21 49.59 50.40 52.02 53.16 55.01 55.92 56.53 57.43 58.50 59.78 60.67 61.22 62.10 63.10 63.48 63.87 64.52 65.13 65.67 69.64 72.13 69.47 71.97 70.36
40.57 35.34 41.81 43.29 44.98 43.74 41.06 43.49 35.70 36.70 28.06 27.87 34.67 36.33 38.42 41.46 43.19 44.84 46.01 47.25 49.10 50.78 51.55 52.89 53.83 55.70 56.45 57.77 59.06 59.78 60.02 60.26 62.60 63.43 64.04 63.87 64.26 65.04 66.08 67.65 69.58 71.51 72.99 72.78
42.96 38.42 37.37 40.94 39.78 39.27 38.79 36.54 39.23 38.76 36.96 30.49 29.77 35.80 44.54 43.34 44.51 45.02 46.30 47.95 49.84 50.83 51.52 52.68 53.82 55.04 56.43 57.57 58.24 59.02 59.26 59.41 60.22 62.61 64.46 65.15 64.93 65.46 66.41 66.97 68.43 70.27 72.63 71.85
43.44 39.41 34.21 36.36 42.04 44.25 42.28 38.45 38.76 33.84 32.09 35.89 34.63 34.75 46.32 45.93 46.36 46.84 47.83 49.28 50.71 51.46 52.07 53.10 53.77 54.40 54.93 55.69 56.75 57.83 58.63 58.74 59.34 60.72 62.04 63.69 65.23 65.72 66.16 67.63 68.58 69.74 70.21 71.12
42.46 38.06 32.46 34.04 39.01 42.03 38.96 40.34 40.88 40.67 38.98 34.52 32.06 36.19 45.54 46.46 46.90 48.42 48.25 49.71 50.58 51.55 52.09 52.88 53.35 53.41 53.66 54.24 55.80 56.52 57.06 57.39 58.59 59.30 60.38 61.97 63.10 64.94 65.53 68.70 70.01 69.95 69.77 71.02
42.81 39.52 35.19 30.70 34.05 38.16 35.34 37.70 39.77 37.64 32.73 34.63 36.45 38.16 42.86 45.25 46.10 47.44 48.85 49.91 50.45 50.99 51.30 52.10 52.81 53.12 53.25 54.37 55.20 55.39 55.63 56.34 57.17 58.24 59.08 60.40 61.89 63.58 65.11 66.96 70.25 69.71 69.62 70.77
40.92 35.49 37.13 37.65 38.55 38.30 36.72 36.95 38.21 36.20 36.76 33.44 37.55 38.69 42.60 45.24 46.35 47.73 49.32 49.92 49.83 49.91 50.52 51.16 51.26 51.92 52.84 53.56 54.08 54.35 54.91 55.39 55.90 56.72 57.60 59.31 61.45 63.15 64.31 65.30 69.92 69.46 69.52 71.11
42.80 35.41 37.46 34.33 37.69 37.61 35.90 38.36 39.12 39.14 39.46 39.67 40.09 39.53 45.96 47.60 48.77 48.22 48.56 49.13 49.02 49.92 50.47 51.29 52.14 52.11 51.77 52.19 52.84 53.79 54.00 54.57 55.23 55.78 56.70 58.96 61.13 62.18 63.64 65.28 69.51 68.66 69.42 71.13
37.61 36.00 32.92 31.20 36.35 35.77 32.56 37.48 38.97 39.73 41.40 40.92 37.50 42.43 46.09 45.97 46.30 46.84 47.83 49.33 49.16 49.83 50.51 50.99 51.21 50.99 51.54 52.07 52.80 52.46 53.29 54.33 54.63 55.12 56.88 58.79 61.19 62.00 62.40 64.13 68.44 68.17 71.00 72.63
36.59 34.11 34.05 31.75 34.44 25.27 38.22 43.65 42.84 41.67 43.19 44.74 44.25 45.26 46.35 46.60 48.52 47.67 49.26 48.95 49.17 49.60 50.03 50.09 50.46 50.30 51.23 51.92 52.38 53.16 53.22 53.58 53.86 55.10 56.81 58.97 60.53 61.94 60.41 64.59 67.63 69.93 70.86 72.33
38.77 35.61 32.64 29.71 29.79 35.25 38.37 41.61 41.18 40.50 40.59 45.19 44.20 45.66 46.77 47.46 47.89 47.22 49.58 49.50 49.28 49.26 49.15 49.34 49.79 49.89 50.51 50.14 50.88 51.95 52.37 53.03 53.74 54.84 56.99 59.40 60.39 60.32 60.04 64.34 66.43 67.88 68.20 70.20
37.18 37.79 34.41 33.09 28.59 27.07 37.52 42.05 45.18 44.60 35.69 46.00 45.10 45.09 45.29 44.70 38.52 42.82 47.94 48.39 48.38 48.77 49.14 48.04 48.24 49.15 48.87 50.61 51.24 50.47 51.43 52.59 53.82 55.73 58.10 60.03 61.63 59.78 62.04 64.89 65.27 66.62 68.12 69.04
33.35 32.24 30.43 30.74 30.58 34.83 42.41 43.67 44.94 32.06 36.79 45.89 46.30 45.89 44.81 41.26 44.06 47.18 47.96 47.67 48.39 47.40 48.13 47.49 47.62 47.38 49.25 50.97 51.21 50.80 51.56 51.71 54.92 57.40 59.34 60.63 60.49 59.27 63.76 65.58 66.34 67.05 66.68 67.05
34.40 33.27 32.30 34.04 30.56 28.54 44.91 43.32 37.17 42.24 46.24 45.84 45.23 44.92 44.30 45.61 46.36 46.57 47.16 45.90 46.22 45.14 45.40 46.69 45.97 46.39 48.75 50.89 51.04 51.19 52.04 54.68 55.58 58.99 58.17 60.11 59.55 59.76 64.68 65.02 64.29 64.78 65.20 64.65
34.68 38.96 35.34 38.13 37.19 44.54 45.69 44.07 46.94 46.92 45.49 45.19 44.32 44.73 45.13 44.57 44.37 46.11 44.86 44.86 46.13 45.10 45.08 45.99 45.81 46.75 49.40 51.07 52.63 52.44 53.84 55.75 57.10 58.86 59.14 60.64 59.69 63.17 63.88 63.64 63.12 63.33 64.77 63.16
40.57 42.41 36.62 37.07 41.23 42.09 44.05 46.33 46.59 46.36 44.81 45.45 46.18 45.21 44.90 42.63 43.74 43.46 43.58 43.26 43.81 44.83 44.89 46.13 46.53 47.18 48.35 52.18 53.59 54.68 56.10 57.18 57.48 59.03 61.45 58.39 61.71 61.79 62.75 62.79 62.85 63.66 63.39 63.86
39.53 40.45 37.33 37.52 41.06 41.48 43.07 44.09 44.70 44.93 45.45 43.79 44.71 44.26 42.60 42.20 41.36 42.12 42.27 42.61 43.61 44.30 45.93 47.16 47.36 47.86 48.96 52.27 54.31 56.51 56.04 55.85 57.91 59.44 58.56 61.26 60.89 61.49 61.52 61.43 63.13 64.25 65.37 63.01
40.46 36.23 33.65 32.78 37.91 36.86 39.28 44.99 45.02 43.75 42.70 41.82 40.77 40.34 42.37 41.99 41.28 41.68 41.71 43.13 44.32 45.09 46.52 47.03 47.17 47.93 49.39 51.76 54.29 55.49 56.86 57.49 59.49 58.40 59.83 59.87 60.40 59.03 57.07 58.06 54.51 43.22 45.92 43.11

GFSCGP_sfc_wetblb_069.txt.gz
Wetbulb
49.65 45.45 43.20 45.47 47.17 46.49 45.01 44.03 43.97 46.50 47.61 46.34 46.46 47.18 48.70 51.16 51.74 51.19 51.89 52.86 53.67 55.50 57.48 58.62 58.83 58.58 59.95 62.48 63.73 64.21 65.67 67.57 69.73 72.42 71.23 71.75 70.98 70.77 70.27 70.63 72.42 73.21 72.59 72.86
46.42 43.03 46.38 46.74 46.88 45.61 44.78 43.24 43.21 45.83 47.56 46.34 45.90 45.64 48.22 49.93 50.69 51.55 51.78 52.48 53.02 54.07 55.28 56.92 57.81 58.66 60.43 60.28 63.86 63.72 64.41 66.24 66.89 68.18 73.54 72.38 73.66 73.23 72.86 71.72 71.39 71.87 73.00 73.78
44.14 45.78 47.10 45.64 44.53 43.27 43.58 42.56 43.18 43.14 46.30 47.30 45.46 43.78 45.90 48.69 50.42 51.20 51.96 52.92 53.48 53.85 53.76 55.07 55.99 58.67 59.63 59.69 59.75 62.88 63.00 64.16 67.21 67.06 68.70 71.04 73.17 72.50 73.33 72.84 72.54 72.65 72.92 73.78
45.86 47.90 45.18 43.88 43.00 44.16 41.36 45.70 44.53 43.37 42.50 39.03 46.05 37.45 45.04 46.58 47.50 48.74 50.39 51.67 52.53 53.41 54.25 54.79 55.59 56.90 58.32 57.94 59.78 60.39 64.25 63.84 65.07 66.82 68.74 71.42 67.66 67.33 68.98 72.10 75.86 75.19 72.85 73.25
43.99 44.82 43.81 42.60 43.19 45.48 42.77 46.22 44.70 44.34 42.60 41.93 41.74 39.30 42.77 46.94 45.78 47.22 49.37 51.03 52.89 54.43 54.78 54.90 55.16 55.87 57.25 57.67 58.87 61.44 62.00 63.77 65.92 68.01 67.98 65.96 67.65 65.57 67.32 70.22 74.68 74.61 71.21 74.07
46.28 49.21 46.97 45.35 46.28 45.93 45.88 44.47 44.16 43.84 41.93 35.66 40.46 40.00 40.36 43.80 45.60 47.43 49.33 50.60 51.56 52.44 54.88 55.33 55.95 57.14 56.24 58.01 58.56 60.35 61.45 63.00 64.37 65.35 66.30 68.16 67.09 68.02 66.69 67.91 69.37 69.50 72.92 75.13
44.60 45.06 47.64 47.88 43.70 45.89 44.94 40.55 33.80 33.39 34.52 34.75 43.08 40.11 42.24 45.60 46.80 48.48 49.04 49.22 50.23 52.15 53.86 54.90 54.95 55.37 56.61 56.74 58.63 59.96 60.24 61.37 63.17 64.09 64.73 65.32 67.30 67.89 67.84 68.55 66.91 69.24 69.04 71.14
38.21 36.62 44.51 47.63 44.63 42.33 43.00 41.90 34.56 27.27 30.83 35.07 41.05 36.78 42.38 47.25 48.74 48.54 48.75 49.74 51.09 52.56 53.79 53.73 55.09 55.99 56.52 57.10 57.33 59.07 59.81 60.77 62.28 63.20 63.83 65.78 66.73 63.94 65.23 67.97 66.89 67.00 67.96 69.68
39.37 38.97 44.74 46.62 47.03 45.68 42.02 39.18 44.22 37.21 39.19 34.79 38.70 42.74 46.12 47.11 46.64 47.30 47.87 49.85 51.63 51.91 52.71 53.62 54.57 55.64 57.20 57.79 58.67 59.33 60.15 60.79 61.28 62.91 64.38 65.11 65.96 66.91 65.92 69.20 70.31 67.46 70.84 69.97
43.83 36.56 44.50 44.88 46.83 46.52 44.65 45.30 37.75 38.88 29.88 28.42 35.24 37.85 37.89 43.96 45.43 46.81 48.11 49.44 51.22 51.86 52.75 53.51 54.01 55.30 56.56 58.00 58.84 59.82 60.46 59.86 60.58 61.38 62.89 63.92 65.37 65.97 67.22 68.22 69.12 70.10 71.31 72.63
45.27 40.87 40.45 43.35 42.25 40.89 41.54 40.05 41.27 40.92 36.73 31.54 30.61 35.30 45.38 44.56 46.44 47.21 48.20 49.64 50.43 51.71 52.83 53.75 54.71 55.59 56.16 56.96 57.71 58.91 59.47 59.76 59.92 60.65 61.48 62.61 63.84 65.31 66.45 67.91 68.47 69.64 71.20 72.13
44.62 41.35 35.92 38.16 44.71 46.56 44.71 38.61 39.85 34.30 34.16 37.61 36.21 36.56 46.61 46.73 48.15 48.81 48.77 49.94 51.74 52.71 53.61 54.18 54.87 55.44 55.72 56.12 56.65 56.87 58.08 58.62 59.43 59.98 60.15 60.67 62.33 63.35 66.46 67.11 67.94 70.27 70.30 71.33
45.14 39.21 33.66 36.05 40.99 44.30 41.62 42.58 42.53 41.80 40.91 35.82 33.11 36.99 46.95 47.93 48.14 48.85 49.33 50.75 51.16 52.55 53.32 53.97 54.66 54.81 55.32 55.74 55.91 55.95 57.12 58.00 58.53 58.67 58.84 61.23 62.31 64.07 65.58 66.51 67.95 67.40 70.01 70.57
43.98 40.62 36.77 31.98 36.06 37.31 33.98 39.49 41.93 39.78 35.55 36.06 37.30 38.73 42.34 44.39 45.19 48.42 49.34 50.94 51.27 52.47 52.76 53.25 53.70 54.10 54.94 55.34 55.56 55.85 56.52 57.26 57.56 57.56 57.73 58.59 61.71 62.61 64.01 65.66 66.72 66.82 67.56 69.97
43.27 36.17 38.26 39.31 40.21 40.01 39.00 38.70 39.62 37.63 39.63 35.45 38.08 38.40 41.80 44.62 46.73 48.38 50.11 50.63 50.63 50.87 52.03 52.61 53.19 53.92 54.54 55.03 55.20 55.28 55.70 56.19 57.03 56.38 56.62 57.54 60.21 61.67 62.23 64.31 65.44 66.64 66.88 70.18
44.14 36.86 37.90 36.34 39.80 39.90 37.91 40.07 40.17 40.03 40.17 40.18 39.22 38.84 45.04 46.82 48.20 48.27 48.98 50.72 50.39 50.54 51.57 51.97 53.23 54.06 54.51 54.94 55.17 55.03 55.27 55.58 56.31 55.70 55.56 56.53 57.31 58.60 61.47 63.95 64.64 66.67 65.92 70.39
40.99 39.03 35.61 32.79 38.41 38.43 34.94 39.32 40.08 40.89 42.43 41.39 37.07 41.37 45.38 45.04 46.64 48.80 49.37 50.50 50.58 51.07 51.53 52.29 53.06 53.51 54.52 54.73 54.99 54.17 54.45 55.24 55.02 54.79 55.16 55.86 56.93 57.35 59.22 62.15 63.58 65.63 66.41 70.08
39.29 37.58 36.73 32.99 36.20 27.03 39.20 44.83 44.79 42.52 43.61 44.65 44.73 45.43 47.11 47.48 48.92 50.14 50.93 50.83 50.09 50.97 51.71 52.35 52.69 52.85 54.20 54.48 54.90 54.03 53.47 54.83 53.80 54.12 54.45 55.57 56.35 57.09 59.24 62.58 64.26 65.80 66.69 69.37
43.33 37.67 34.61 31.43 31.72 36.62 39.85 42.61 42.02 41.38 40.81 44.91 44.69 46.45 47.29 49.08 49.23 48.67 51.06 51.54 51.54 51.96 52.10 51.47 52.76 52.49 54.94 52.82 52.46 50.78 51.02 51.76 51.97 52.16 54.27 55.30 56.29 57.39 59.99 61.61 64.10 63.93 66.51 68.97
40.61 40.13 35.39 34.44 29.71 27.41 39.34 43.86 46.98 46.10 36.02 46.76 46.78 45.47 44.52 45.35 41.04 45.45 50.58 51.10 50.12 50.90 51.34 51.49 51.92 51.70 51.52 50.89 50.99 51.48 50.38 49.76 49.86 51.77 54.33 56.10 57.16 59.14 60.28 63.20 63.41 62.78 67.02 69.07
35.66 35.97 32.10 32.83 31.53 36.26 43.42 46.22 47.35 34.16 37.70 46.01 45.98 45.97 45.04 42.57 45.62 48.07 47.87 49.06 49.79 50.39 50.71 51.63 50.33 49.83 51.14 50.79 50.16 48.41 49.89 49.41 52.18 52.87 54.28 55.73 59.28 60.68 62.18 63.61 61.66 63.19 67.99 68.92
37.31 35.05 34.39 35.60 31.97 29.76 46.51 44.58 37.97 43.66 47.06 46.38 46.49 45.87 45.79 46.42 46.46 47.43 47.88 48.36 48.55 48.13 49.83 49.87 48.25 49.31 49.75 48.80 47.77 47.59 48.66 52.03 53.80 53.56 54.20 57.17 58.46 60.72 62.11 62.30 60.36 64.60 65.60 66.02
36.92 41.04 37.25 37.80 38.42 45.81 47.42 46.25 48.36 47.78 46.42 45.72 44.29 45.51 45.40 44.62 45.07 45.77 45.93 47.31 47.65 47.64 47.77 47.86 47.28 48.20 48.07 48.59 48.67 47.69 50.67 52.01 52.95 55.05 56.23 57.74 60.34 60.86 61.73 59.76 60.79 63.06 64.42 63.93
42.09 45.11 40.47 39.17 42.89 43.46 44.42 46.22 46.65 45.96 45.43 45.14 45.37 44.79 45.22 43.25 43.07 43.16 44.65 44.81 45.39 45.86 45.95 46.72 47.26 46.26 46.77 49.14 49.81 50.83 53.22 54.85 54.52 53.92 55.94 59.02 58.77 60.84 59.63 60.34 63.29 62.85 62.31 62.58
40.20 42.51 37.03 38.15 42.21 42.67 43.90 44.85 45.01 44.79 46.89 45.46 45.67 44.82 42.58 41.81 41.17 41.85 42.49 43.81 44.97 44.93 45.10 45.37 45.73 46.36 47.75 50.22 50.69 52.17 55.00 55.42 54.80 57.55 58.38 57.84 60.01 59.94 60.77 57.54 61.80 63.67 64.49 63.97
38.86 36.88 33.94 33.17 38.79 38.62 40.27 42.44 42.99 42.68 44.26 44.24 43.34 41.27 42.29 42.04 41.32 41.72 41.71 43.04 43.24 43.48 44.51 44.70 45.41 47.16 48.33 49.52 50.68 53.51 55.42 57.11 56.09 56.28 57.63 58.17 57.82 58.52 56.42 55.65 51.68 43.73 46.28 47.73

GFSCGP_sfc_wetblb_072.txt.gz
Wetbulb
48.86 44.71 42.82 45.17 46.41 46.13 45.14 43.65 42.49 45.24 48.13 47.08 46.13 46.04 47.52 50.40 50.74 50.46 51.96 53.28 54.42 55.20 57.44 60.80 61.54 61.80 62.73 65.79 66.99 67.49 67.27 67.86 70.91 73.01 70.69 70.12 69.78 70.75 70.02 71.33 70.70 71.59 72.77 72.95
45.62 42.53 46.86 47.56 46.48 44.78 44.41 43.04 42.68 45.37 47.41 46.73 45.70 45.16 47.68 49.13 50.08 51.47 52.07 52.80 53.65 54.91 56.34 59.26 61.91 61.58 62.80 64.02 66.05 65.93 67.61 68.81 66.86 71.87 73.55 70.57 70.26 71.48 70.05 69.46 69.10 70.11 72.43 71.51
43.60 45.60 48.51 46.95 44.73 43.32 43.36 41.98 42.12 41.94 45.27 46.67 45.31 43.09 45.21 48.24 49.98 51.25 52.46 53.98 54.53 54.82 54.88 57.26 58.58 60.88 61.84 63.41 63.60 62.91 66.14 65.80 67.63 69.27 68.32 71.32 72.14 72.51 71.10 72.42 69.59 68.97 69.00 70.36
44.98 47.97 46.47 45.53 43.80 44.18 40.14 44.89 44.22 43.25 41.69 37.63 45.29 36.94 44.37 47.52 48.36 50.05 50.97 52.23 52.94 53.70 56.00 56.91 57.94 59.83 60.90 61.14 63.49 65.02 64.82 66.96 64.30 66.84 68.03 68.29 67.20 65.97 66.77 66.57 72.40 72.86 71.20 69.48
43.76 45.21 44.72 43.72 43.69 45.39 42.11 45.67 43.98 43.46 41.64 41.40 41.20 37.97 41.57 46.30 44.99 47.52 50.09 50.83 52.71 53.76 54.67 55.12 55.42 57.99 58.88 60.85 62.15 64.49 64.75 65.80 66.23 64.64 66.07 66.93 66.90 66.29 66.87 69.12 69.10 69.76 72.53 70.85
45.58 48.91 46.97 45.85 46.95 46.29 46.51 44.06 43.46 42.76 40.55 34.12 39.50 38.96 39.71 42.89 45.62 48.03 50.37 50.24 51.42 52.66 54.50 55.28 57.40 57.85 58.53 59.06 59.89 62.07 64.15 66.29 67.30 67.48 65.80 65.43 66.66 67.03 65.89 66.35 67.37 68.18 70.09 70.91
44.87 45.28 48.30 48.64 43.87 46.46 44.54 41.08 33.36 32.29 32.59 31.67 40.95 37.47 41.77 46.56 48.41 48.87 49.31 49.79 51.99 52.83 52.95 54.78 55.40 55.69 57.25 57.90 59.84 61.00 62.59 63.45 65.26 65.29 64.90 66.10 65.68 66.93 66.62 66.40 64.49 65.71 65.57 68.54
38.14 35.84 45.11 46.19 43.45 42.82 42.50 40.62 34.93 27.09 29.32 33.18 41.14 34.54 40.87 47.96 49.13 49.18 50.73 51.27 51.72 51.03 52.40 54.18 55.41 56.43 56.01 58.55 60.16 60.72 62.33 62.11 63.70 64.78 63.65 66.34 65.18 65.30 65.05 64.82 64.11 64.37 64.39 65.37
38.38 38.61 46.63 45.32 46.47 46.10 41.70 37.18 43.35 37.28 38.65 34.60 37.08 39.25 44.59 48.09 48.39 48.27 48.35 48.99 49.68 51.71 54.18 53.48 53.84 56.55 57.85 59.66 61.30 62.70 61.86 62.44 63.28 64.15 65.96 66.07 67.11 66.84 64.75 65.69 66.54 65.26 66.67 67.18
43.44 37.06 43.65 44.95 46.50 45.74 41.99 43.59 35.05 36.49 27.45 26.55 34.68 36.66 37.60 43.18 45.18 47.94 47.48 48.05 50.02 53.13 52.66 53.26 53.86 56.13 57.83 58.98 61.56 61.98 61.65 61.01 61.35 62.90 63.86 64.44 65.96 67.05 66.50 66.94 66.77 66.53 67.15 67.86
45.03 41.64 40.28 42.74 40.20 40.09 40.14 38.62 40.61 40.37 38.40 30.12 28.46 34.11 44.71 44.26 46.80 46.74 47.72 48.85 50.49 51.88 51.88 52.70 54.20 55.90 56.77 58.11 57.31 61.36 61.39 61.39 61.43 61.97 62.36 63.06 64.43 65.36 66.72 66.72 67.42 67.57 67.88 68.56
43.69 40.13 35.62 37.59 43.79 45.73 44.19 41.24 40.82 32.52 32.20 36.33 34.26 33.98 46.97 46.74 47.57 49.35 48.16 49.51 50.66 51.59 52.19 53.26 53.95 55.21 55.87 56.77 57.27 58.51 61.15 59.81 59.15 61.57 61.93 62.72 64.16 64.43 64.55 64.87 65.49 67.51 67.47 68.05
44.27 38.79 31.96 33.84 40.63 42.11 36.61 38.00 38.46 37.26 38.05 30.83 29.63 34.85 46.77 46.37 47.45 48.39 48.25 49.94 50.53 52.30 52.72 52.94 53.58 53.92 54.48 55.77 56.67 56.68 57.97 57.42 58.65 59.69 59.72 61.12 61.53 63.71 64.15 64.37 65.28 65.37 65.33 66.52
44.27 39.10 35.04 30.39 34.48 39.25 34.94 36.00 38.61 35.90 33.79 35.00 35.72 38.27 42.38 44.53 44.44 46.32 48.47 50.11 50.23 51.30 52.80 53.02 54.56 53.92 54.32 55.12 55.25 55.70 56.34 57.35 57.69 57.66 57.58 59.16 61.01 61.37 59.90 61.28 62.22 63.39 64.48 64.47
43.39 35.92 38.08 38.49 39.42 39.71 38.57 38.16 38.78 37.82 38.94 35.12 37.51 37.99 42.27 44.93 44.75 47.06 49.14 49.19 48.19 48.58 49.25 52.58 54.41 55.37 55.43 55.47 56.04 56.44 56.71 56.68 57.44 56.56 56.27 57.85 59.36 59.33 59.08 58.66 59.28 60.73 62.45 64.09
44.64 36.64 38.44 35.89 39.38 39.29 37.48 39.71 40.44 39.83 39.92 39.31 39.64 39.59 45.43 47.55 47.77 47.08 48.22 48.96 48.39 50.34 51.60 52.55 53.19 55.02 54.96 56.13 56.34 56.68 57.24 57.22 57.25 56.17 55.52 56.40 56.61 56.74 57.19 57.86 58.62 60.17 61.21 62.59
40.35 38.13 35.75 31.82 38.32 37.42 33.07 38.60 39.72 40.41 42.05 40.38 36.22 41.33 45.66 45.33 46.05 47.26 48.18 49.10 49.50 51.16 49.34 49.40 52.57 54.03 56.24 56.01 55.93 55.01 55.47 56.30 55.40 54.94 55.27 55.63 55.60 55.33 55.87 56.56 57.64 57.95 59.64 62.16
39.39 38.00 37.22 32.07 35.06 25.46 38.03 44.03 43.32 38.61 38.56 42.67 41.92 41.69 44.24 45.01 46.46 47.03 48.36 47.86 48.16 49.47 50.02 51.89 53.07 53.69 54.55 55.30 55.18 55.23 55.15 54.26 53.69 53.31 53.37 53.81 54.49 54.80 55.28 55.68 56.55 57.68 59.99 61.97
43.24 39.42 34.70 30.80 31.06 35.25 38.35 40.67 41.49 40.73 39.68 44.96 44.48 45.61 45.81 46.91 46.96 47.13 50.61 49.83 49.50 50.54 51.12 51.90 53.02 53.22 53.72 54.32 54.38 53.40 52.78 52.59 52.32 51.81 51.74 52.23 52.83 53.28 53.92 55.18 55.99 57.84 59.98 61.64
42.88 41.94 35.94 33.91 28.90 26.00 38.04 44.19 46.35 43.66 35.50 45.52 45.07 44.52 44.45 45.44 40.54 43.26 49.36 50.03 49.95 51.10 51.60 51.48 52.41 53.02 53.01 53.44 53.54 51.85 50.78 50.15 50.34 50.74 51.77 52.37 52.46 52.03 53.03 55.16 56.17 58.37 60.43 62.66
36.22 35.71 32.18 32.79 31.13 35.02 43.32 45.19 46.98 33.84 36.67 45.23 45.32 44.62 44.15 41.69 44.18 47.67 48.75 48.69 50.08 50.32 50.84 51.35 51.47 50.98 51.47 53.50 52.22 51.00 50.86 49.69 50.50 50.63 51.55 51.08 51.68 51.34 52.09 55.54 57.85 60.24 61.49 62.81
36.84 35.76 34.38 35.17 31.69 29.46 45.31 43.45 37.00 41.43 45.81 45.80 45.11 44.20 42.83 43.55 44.60 45.93 46.87 47.42 48.16 48.11 49.04 50.12 49.41 49.61 51.00 51.53 50.27 49.57 48.33 49.00 49.69 50.08 51.03 50.92 52.49 52.90 53.69 55.82 58.26 59.65 60.64 61.40
36.55 39.30 35.37 37.91 37.89 45.47 45.64 44.27 46.34 46.14 43.88 44.11 44.09 44.54 44.25 43.50 43.52 45.24 45.03 45.07 45.35 45.87 47.32 48.28 47.81 47.47 48.33 49.44 49.25 48.96 48.09 49.07 49.64 50.78 51.59 52.59 53.30 54.05 55.15 56.45 57.49 58.87 60.07 60.44
42.10 44.57 39.72 38.88 42.33 42.65 42.25 45.22 44.96 44.86 42.82 44.54 44.80 44.15 45.33 43.51 43.36 41.81 42.19 42.68 43.77 44.80 44.85 45.82 46.13 45.81 46.74 49.64 49.79 49.66 49.48 50.18 50.79 50.86 51.32 52.48 54.12 55.22 56.64 57.86 58.62 59.11 60.21 60.34
39.50 41.37 36.53 37.33 41.26 39.94 41.51 41.87 43.18 42.99 43.23 43.30 43.24 43.86 43.98 42.39 41.41 41.03 41.01 41.66 42.61 43.69 44.87 46.00 45.47 45.66 46.63 47.63 48.76 49.52 50.23 51.26 51.54 52.00 52.88 53.62 55.20 55.93 56.39 58.18 57.73 60.04 61.28 61.61
40.08 37.37 34.29 33.02 38.18 37.29 38.30 42.21 43.98 42.59 43.20 42.94 41.61 40.68 41.15 41.53 39.69 40.62 39.91 41.58 41.70 42.03 43.84 44.03 44.83 45.14 46.32 47.12 47.80 48.97 50.33 51.12 52.07 52.64 53.85 53.91 54.74 56.15 56.82 55.27 54.27 44.87 51.10 48.31

GFSCGP_sfc_wetblb_075.txt.gz
Wetbulb
44.65 38.15 35.55 39.52 41.75 42.22 41.43 40.20 39.42 42.51 45.33 42.83 41.92 42.71 44.36 46.28 46.11 45.07 45.51 47.53 48.69 50.45 52.54 53.43 58.27 59.24 59.42 59.20 59.29 60.75 62.13 62.15 66.45 68.77 68.43 68.21 67.09 67.72 68.70 68.44 68.20 68.56 71.17 72.67
40.72 37.03 43.03 45.44 45.03 43.50 41.58 38.89 38.30 42.03 44.87 43.36 41.78 41.66 44.19 46.07 45.39 45.26 46.26 46.82 48.59 49.55 51.00 53.17 56.21 56.07 56.64 58.67 58.97 58.19 58.78 63.17 62.74 68.98 68.63 68.58 68.86 68.86 67.87 68.49 68.18 68.49 69.49 69.92
38.35 42.10 46.78 45.26 43.54 42.27 40.59 38.46 38.64 38.98 42.54 43.19 41.20 39.05 41.46 45.01 46.08 47.00 47.69 47.76 49.05 49.18 49.65 51.49 55.08 55.13 56.08 56.39 56.91 57.44 58.83 59.81 60.86 62.91 65.90 68.29 69.22 70.22 69.00 67.77 67.45 67.82 68.23 68.54
41.08 44.80 44.40 43.16 41.86 42.72 37.75 42.89 42.50 41.22 38.66 32.64 40.33 31.15 38.18 42.55 43.42 45.33 46.98 47.81 47.39 49.50 50.36 50.83 53.51 53.25 55.13 56.51 57.08 56.48 57.96 58.71 60.70 60.00 61.43 60.80 64.01 64.62 66.44 66.28 68.37 67.86 67.99 67.09
40.11 41.92 41.54 40.82 42.21 44.68 40.54 43.80 41.59 40.97 36.52 33.39 36.30 31.99 36.42 41.46 41.26 43.13 45.39 47.88 48.47 48.27 48.77 49.90 51.73 53.63 53.78 54.52 54.98 57.52 57.69 58.72 59.17 59.92 61.10 60.85 61.99 63.06 63.02 64.36 64.83 69.46 69.53 68.37
42.29 46.39 44.53 43.53 46.56 45.79 46.36 43.30 39.53 37.88 33.88 26.62 34.53 33.52 34.67 37.99 40.68 43.28 46.73 47.78 48.69 47.92 49.47 50.10 51.42 51.84 52.06 52.29 53.15 54.51 56.48 57.25 59.45 59.38 59.30 59.71 59.44 60.93 60.81 60.84 61.93 64.08 65.71 68.20
41.45 42.62 45.38 47.95 42.39 45.34 43.42 37.83 29.19 24.75 24.26 26.32 36.85 34.29 35.88 41.78 45.32 46.33 46.41 48.21 47.19 49.55 48.78 50.05 50.30 50.50 50.89 50.94 51.62 53.81 54.02 54.34 56.91 57.75 58.55 60.91 61.79 61.87 61.24 60.96 61.15 61.04 61.40 63.33
36.11 32.69 42.70 47.11 42.43 38.42 38.00 37.58 30.06 23.10 21.44 27.23 37.09 31.96 36.87 44.68 47.62 48.36 48.50 47.12 48.18 46.44 47.86 48.93 50.57 50.41 50.60 51.54 52.36 53.41 55.12 55.47 56.82 57.61 58.27 59.47 59.96 61.53 62.24 62.52 61.37 60.95 61.63 61.62
33.95 35.76 45.02 46.24 45.68 42.18 37.91 35.21 39.98 32.86 33.55 29.73 31.96 36.82 41.74 44.68 45.84 48.01 47.33 47.31 45.04 44.77 46.24 48.44 49.16 49.48 51.60 51.11 52.67 52.88 54.60 54.96 56.11 56.97 57.33 57.98 60.53 60.12 59.43 59.69 60.35 63.87 63.08 63.72
39.46 32.42 42.63 44.65 45.57 43.54 39.39 41.44 32.34 33.35 25.33 23.74 29.25 32.13 33.22 40.47 43.21 45.54 46.11 45.77 45.93 46.80 46.57 47.30 48.11 49.24 50.20 51.32 52.23 53.51 54.24 53.60 53.97 54.22 55.81 59.29 59.40 60.85 60.78 61.00 60.78 61.26 62.56 63.97
39.31 36.05 36.88 40.46 38.07 36.40 34.52 33.61 36.68 35.55 33.33 27.86 25.17 29.24 41.61 39.74 42.22 44.28 46.34 46.84 45.91 46.72 46.40 46.75 47.77 48.69 49.42 50.07 51.86 52.95 53.16 54.00 54.65 55.13 54.32 54.96 55.84 58.38 60.43 61.76 61.80 62.67 63.13 63.79
40.56 36.15 31.17 35.36 40.99 42.33 40.15 35.25 36.05 29.39 29.97 32.19 30.82 29.22 43.22 41.86 42.17 44.64 45.27 47.09 47.97 46.07 46.24 46.80 47.44 48.88 49.34 49.67 50.71 51.90 53.58 53.13 53.15 55.05 56.06 55.60 55.37 56.18 57.01 57.94 58.92 59.88 60.70 63.18
41.04 32.38 25.37 28.24 33.34 38.43 35.68 37.72 36.31 35.39 34.81 29.65 28.18 27.49 43.87 44.46 45.09 44.81 44.09 46.53 47.99 48.83 48.73 48.67 49.51 49.59 49.06 49.78 50.91 51.20 52.20 51.29 51.38 53.38 53.32 53.67 53.69 55.03 56.95 57.41 58.54 59.81 60.41 60.74
43.08 33.45 29.62 24.48 29.57 34.37 33.45 36.66 37.18 34.31 27.63 28.25 31.47 32.86 37.41 42.46 42.22 43.70 44.97 46.96 48.05 48.20 47.21 46.89 48.43 50.96 50.02 49.74 50.39 50.87 50.27 51.69 52.22 52.22 51.38 51.08 52.48 53.98 53.69 54.56 55.37 57.17 58.83 59.53
37.60 30.56 33.94 35.91 37.92 37.44 36.12 35.88 36.36 34.83 34.42 30.66 34.39 34.97 37.65 40.69 41.47 43.11 45.32 46.50 46.38 46.92 48.07 47.42 48.28 48.11 50.78 50.65 49.66 50.86 50.25 50.50 50.91 51.66 50.80 51.03 52.81 53.42 53.90 54.27 54.58 54.78 55.64 57.10
37.58 30.67 34.38 32.76 37.06 36.82 35.45 37.45 37.87 37.69 37.78 37.19 36.37 35.98 42.12 43.70 43.73 42.77 44.34 47.12 46.16 46.91 48.19 49.98 51.31 51.09 50.47 52.65 50.83 51.45 51.67 51.88 52.09 51.20 50.92 51.81 51.65 52.04 52.02 52.33 53.08 53.34 54.09 55.68
33.53 31.22 29.66 26.47 35.17 34.52 28.73 34.36 37.78 37.60 39.04 36.97 32.11 35.88 41.96 40.92 42.28 42.57 42.48 46.57 46.05 46.72 48.23 48.64 49.13 50.17 51.32 50.65 51.48 49.25 50.07 50.73 50.86 50.72 51.78 52.38 51.97 52.00 51.35 51.29 51.23 51.53 52.03 52.84
32.83 31.63 30.08 26.92 30.35 22.08 33.97 41.88 41.78 39.94 40.96 40.96 40.62 42.52 43.15 43.78 43.91 44.42 46.42 44.57 45.99 46.98 47.17 47.32 48.73 48.17 48.20 49.75 50.59 50.12 50.48 49.71 49.76 49.35 50.10 50.62 50.47 50.06 49.62 50.02 50.54 50.23 51.38 52.33
37.72 33.12 27.69 22.34 22.30 31.94 36.06 39.79 39.46 36.84 36.96 42.15 40.68 41.53 42.43 43.27 43.30 42.45 47.92 48.48 47.42 47.55 48.45 48.57 49.11 49.05 49.11 49.15 48.69 49.46 48.70 48.69 49.06 48.96 48.80 49.79 50.10 49.54 49.53 48.96 48.83 49.48 49.84 51.56
40.26 37.94 29.81 27.02 22.99 19.00 34.80 41.57 43.71 42.89 30.56 41.31 42.03 40.82 40.65 40.51 34.49 37.45 43.59 45.24 45.42 46.01 47.02 46.83 47.25 47.72 47.39 48.03 48.78 48.12 47.66 47.06 47.01 48.25 48.74 49.62 49.63 49.64 48.77 48.48 48.28 49.41 51.05 52.20
34.19 33.87 30.03 30.21 25.92 31.37 40.35 42.94 43.81 30.53 32.84 40.82 40.77 40.41 40.32 38.94 40.16 41.96 43.60 43.88 44.90 45.27 44.44 44.70 44.73 44.95 46.51 47.89 47.68 46.99 46.56 45.89 48.02 49.63 49.73 49.19 48.82 48.66 48.97 48.77 48.76 48.75 49.09 51.48
33.29 32.21 31.77 32.29 29.65 27.67 41.78 40.53 34.17 38.67 41.06 40.28 39.73 39.56 39.91 41.09 41.43 41.71 43.00 43.33 43.46 43.56 44.16 44.52 43.75 44.10 45.66 46.90 46.39 45.57 44.98 46.46 47.99 48.81 48.27 48.32 49.16 49.80 50.62 49.54 49.40 49.51 49.79 51.13
32.12 36.44 33.57 34.13 31.41 41.04 40.09 39.87 42.06 41.32 39.15 39.77 39.74 40.40 40.84 40.23 40.08 41.45 42.28 41.70 42.06 43.18 42.76 43.76 43.93 43.67 44.62 45.51 45.92 44.72 45.95 47.08 48.07 47.69 47.86 48.53 49.37 49.45 50.21 50.53 51.25 51.14 51.15 53.16
37.64 39.77 33.86 32.68 38.85 37.30 38.50 40.60 40.80 41.97 39.89 41.68 42.26 41.78 41.95 39.30 39.64 38.88 39.37 40.41 41.56 41.62 41.54 42.79 43.33 43.10 44.20 46.59 47.41 47.88 48.48 48.31 48.32 47.65 48.32 48.90 48.77 49.76 51.02 52.04 52.05 52.20 53.01 53.60
37.54 39.14 34.87 33.46 36.81 37.02 39.75 39.51 40.49 40.26 41.48 42.04 42.43 42.38 40.75 39.67 39.10 39.48 38.28 40.19 40.14 40.22 41.34 42.64 43.19 43.04 43.54 45.22 45.37 46.44 47.68 48.27 48.10 48.69 49.25 49.85 50.64 51.40 50.93 52.15 53.38 53.83 54.67 54.43
38.54 36.09 33.63 31.42 36.85 36.52 37.25 39.85 40.78 40.54 40.97 42.47 41.55 40.14 39.27 40.17 38.57 39.69 38.34 39.58 39.48 39.53 40.43 40.83 41.61 41.82 43.02 45.21 45.33 45.76 47.14 47.86 48.16 47.96 48.36 49.38 50.98 52.47 52.12 52.28 52.73 43.43 43.61 44.68

GFSCGP_sfc_wetblb_078.txt.gz
Wetbulb
42.09 36.73 33.86 37.45 38.71 40.16 38.78 37.23 36.65 40.11 42.42 40.35 39.28 39.70 42.23 44.07 44.05 44.53 45.52 44.85 45.99 47.06 50.70 55.25 56.86 58.93 58.86 58.69 58.65 59.59 60.16 60.57 64.70 67.71 67.06 66.54 66.57 67.55 68.76 68.69 68.15 71.56 71.14 71.65
38.38 34.64 41.27 42.49 42.42 40.95 39.88 37.71 36.90 39.55 42.00 40.11 39.28 38.73 42.23 43.10 43.53 43.89 44.07 44.60 46.29 46.05 48.86 54.37 56.31 57.19 57.10 57.03 58.13 59.00 61.08 61.23 60.59 66.59 67.33 66.75 66.68 66.86 67.31 68.56 68.83 68.36 69.18 71.80
36.27 39.94 44.67 43.19 41.20 40.06 39.18 36.75 36.70 37.17 40.62 40.51 38.45 36.98 39.29 43.13 43.80 44.99 45.73 46.09 46.01 47.03 47.58 52.17 55.03 54.89 56.12 56.46 56.32 56.28 56.83 58.18 59.84 61.56 65.03 67.57 67.08 68.09 66.37 66.10 66.28 67.84 68.02 69.20
38.49 43.50 42.59 41.28 39.89 40.44 34.96 42.70 41.75 40.14 36.50 31.77 38.74 29.92 36.45 39.82 40.92 43.71 43.89 43.25 43.86 46.11 47.27 51.15 54.04 53.22 55.71 55.95 55.53 55.81 56.91 57.47 58.02 58.20 59.48 61.87 64.45 64.38 66.23 66.32 66.44 67.39 68.02 67.67
39.04 40.11 39.67 38.79 40.32 43.96 39.75 44.29 40.96 40.24 35.71 31.24 33.90 28.23 35.38 38.42 38.86 41.07 42.41 44.15 44.98 45.99 46.62 50.00 52.81 53.69 53.39 54.62 53.30 55.52 55.44 55.46 56.43 56.55 57.58 58.75 58.96 61.84 62.87 63.39 64.00 66.28 67.56 67.94
41.12 44.52 42.29 41.67 45.00 44.84 45.47 40.84 38.68 37.30 32.22 26.85 33.95 30.34 33.50 35.91 38.88 40.65 44.28 46.91 47.59 47.53 46.19 48.93 52.28 53.32 52.30 52.93 53.99 54.70 55.31 55.38 56.52 56.82 56.25 56.85 57.65 58.15 59.80 60.02 61.16 63.35 66.39 67.17
39.86 40.50 43.34 46.55 40.90 42.94 40.62 34.49 27.79 24.64 26.24 27.89 35.71 31.18 34.20 39.41 41.85 43.30 44.01 45.33 47.17 48.65 45.79 50.39 51.55 51.09 51.17 50.04 51.74 54.23 54.15 53.50 56.47 57.23 57.36 57.56 57.48 57.92 58.58 58.69 58.21 58.31 59.21 60.15
32.24 31.39 40.62 45.86 40.90 36.98 36.14 34.01 25.21 21.27 21.74 26.80 35.30 30.38 34.98 41.65 44.46 45.74 46.93 45.52 45.77 46.97 47.87 49.95 50.59 51.06 50.96 49.87 50.71 51.80 51.44 51.65 53.92 54.94 55.41 55.45 57.36 58.26 59.27 59.42 59.54 58.90 58.50 59.58
32.18 34.09 43.24 45.09 44.20 42.08 36.89 33.91 38.68 32.12 31.62 28.41 30.06 34.70 40.37 43.37 43.11 45.91 45.64 46.69 45.92 44.11 47.95 48.63 49.58 50.19 48.25 49.43 49.22 50.81 51.78 52.38 54.25 55.29 55.52 55.55 56.30 57.04 56.98 57.85 58.43 59.06 61.14 62.06
37.88 30.83 40.92 43.16 43.83 42.40 38.61 39.94 29.58 31.51 18.45 23.37 28.43 31.22 32.07 37.54 39.09 43.57 43.24 43.67 46.06 46.67 46.95 46.78 48.00 48.85 48.84 48.99 49.94 50.52 52.57 53.06 54.22 54.52 54.89 55.96 56.44 57.56 58.00 58.03 58.07 58.67 59.71 60.89
38.71 34.27 35.12 38.30 35.97 33.30 33.45 33.64 34.35 32.10 28.52 20.01 23.11 26.80 39.13 37.84 40.67 41.02 44.35 45.62 44.13 47.04 46.13 46.38 46.95 48.66 49.14 49.32 50.00 51.35 52.33 52.86 51.73 51.91 52.40 54.32 55.94 57.64 58.27 59.25 60.33 60.50 60.99 62.39
39.82 34.05 29.12 33.52 39.06 41.34 38.00 35.15 33.38 26.40 26.64 32.37 29.78 29.40 42.43 42.44 43.15 42.19 41.92 46.53 46.94 47.11 47.55 47.29 47.99 46.23 46.11 47.46 48.35 49.76 52.32 51.79 51.94 52.54 52.40 51.97 52.56 52.21 53.07 54.82 56.47 56.84 57.62 59.58
39.53 31.12 24.55 27.09 31.06 35.55 34.84 37.49 37.48 35.71 30.95 26.82 21.11 25.32 41.16 42.04 41.16 43.16 42.76 45.34 47.21 48.78 47.80 46.96 48.03 47.51 47.49 46.44 48.39 50.63 51.45 51.69 51.71 52.41 52.74 52.51 53.34 53.49 53.18 55.10 55.25 54.48 55.15 55.46
41.68 31.20 28.07 23.63 27.88 31.05 30.98 34.99 36.21 34.33 25.39 26.11 29.30 31.80 36.64 39.87 39.77 42.64 42.94 42.71 46.45 48.03 48.81 49.54 48.58 47.28 47.98 47.63 48.74 49.19 49.45 50.16 49.85 50.32 50.39 51.34 50.99 51.24 51.94 51.98 52.78 53.37 53.98 54.32
35.23 28.93 31.48 33.00 35.63 36.43 35.06 34.51 34.89 32.37 33.30 28.36 32.22 32.21 37.30 39.53 39.24 40.57 42.12 43.88 44.22 45.19 47.02 48.80 49.42 47.44 49.20 48.85 49.56 50.37 52.02 50.54 49.65 49.93 49.27 49.24 50.37 52.53 52.63 52.31 51.82 52.33 52.67 53.25
34.58 28.42 31.07 30.48 35.35 34.87 33.40 35.08 34.86 35.21 35.81 35.32 35.15 34.23 40.28 42.44 42.23 42.00 42.46 44.49 44.87 45.15 47.39 48.38 50.06 50.86 49.88 50.56 49.54 51.32 50.38 51.05 50.35 49.52 49.08 50.11 50.67 50.95 50.76 50.86 51.07 50.97 51.41 51.94
31.04 28.70 27.30 24.49 33.48 32.89 27.74 33.39 36.09 36.96 38.00 35.94 30.84 37.13 40.55 40.06 42.00 42.03 42.15 43.91 44.09 45.34 47.23 47.87 48.41 49.30 50.06 49.11 50.49 50.25 50.38 51.09 50.26 49.85 50.71 51.10 50.73 50.43 50.08 50.34 49.90 49.58 49.09 49.14
30.37 28.50 26.63 25.03 27.98 21.21 31.75 41.60 41.09 38.64 39.76 40.39 39.46 39.74 41.55 41.56 42.78 43.60 45.32 42.90 44.56 45.48 46.55 46.68 47.63 47.91 47.88 49.81 49.33 49.41 50.53 50.79 49.24 49.21 50.60 50.13 49.75 49.43 48.96 48.20 47.72 47.00 46.94 47.02
34.58 29.48 24.48 20.60 19.26 29.31 34.85 39.07 37.82 35.95 36.17 40.11 38.11 39.66 40.50 41.28 41.38 41.35 46.26 45.48 43.40 43.33 44.78 45.52 47.03 46.91 45.60 46.20 47.63 48.04 47.70 47.81 48.24 48.70 48.68 49.44 49.47 48.32 47.91 47.12 46.70 46.56 46.21 47.59
37.77 35.13 29.20 23.55 23.74 19.88 34.52 40.26 41.66 40.76 31.82 39.60 38.82 37.17 37.23 37.39 32.43 35.82 41.79 43.25 43.20 43.90 43.73 43.80 44.06 43.61 43.38 43.82 44.80 45.09 46.09 47.12 47.82 48.84 49.04 50.04 49.23 48.09 47.10 46.31 45.80 46.57 47.13 47.97
34.48 34.50 30.35 27.23 24.29 29.18 38.73 40.61 41.39 28.30 29.21 39.43 39.09 37.86 36.91 35.16 37.17 39.74 42.26 42.26 42.58 42.95 43.92 43.94 44.10 44.33 44.33 44.66 44.56 43.57 44.20 44.67 47.46 48.60 48.70 48.01 47.45 47.17 47.31 46.94 46.71 46.64 47.09 47.81
29.97 30.73 30.69 31.80 28.65 26.18 39.37 38.12 31.93 35.64 38.42 38.60 38.29 38.16 37.79 39.10 39.66 40.67 41.83 41.11 41.28 41.27 41.65 42.90 42.43 43.03 44.16 44.57 43.95 43.08 43.11 45.67 47.02 47.58 47.52 47.60 47.04 47.96 49.03 46.76 47.20 47.20 47.10 46.52
31.45 35.56 32.12 31.81 27.29 36.76 37.74 37.54 39.81 38.83 37.69 37.94 37.80 39.11 40.20 39.95 39.94 40.92 40.60 40.65 40.27 40.27 40.84 41.46 42.24 43.33 43.61 44.61 45.65 44.06 44.18 45.39 45.78 45.81 45.71 46.14 46.95 47.54 47.47 47.00 48.09 48.42 47.80 46.99
37.09 38.04 31.57 30.06 35.40 35.66 37.93 39.07 40.22 40.73 39.48 40.13 41.00 40.79 41.06 37.31 37.77 37.92 37.40 37.56 38.51 39.68 40.40 41.56 42.04 40.79 41.01 43.49 44.81 45.26 46.30 47.43 47.41 46.68 47.39 47.67 46.28 46.66 47.71 49.02 48.69 48.52 48.68 49.53
35.13 35.57 31.45 31.27 34.38 36.84 39.09 39.72 40.17 40.22 41.32 41.26 41.56 41.28 39.95 38.93 38.72 37.74 36.63 37.25 38.91 39.32 40.07 40.67 40.53 40.37 41.11 43.52 44.65 44.93 45.30 45.85 45.21 45.77 46.67 47.70 48.00 47.60 48.43 48.85 49.71 50.23 51.57 50.67
37.10 34.64 33.38 31.66 36.26 36.33 37.02 39.64 40.99 40.34 40.21 41.53 40.31 39.73 39.80 39.51 38.90 38.77 37.18 37.73 37.97 38.03 38.69 39.00 39.91 40.14 41.12 42.23 43.00 43.92 46.07 46.67 45.91 44.87 45.58 46.90 48.26 49.33 49.71 49.62 50.34 45.47 45.49 45.13

GFSCGP_sfc_wetblb_081.txt.gz
Wetbulb
40.49 35.41 32.48 35.80 37.04 38.27 37.06 34.90 34.34 38.34 41.89 38.11 38.14 39.00 40.56 42.15 41.68 41.83 42.51 43.59 44.87 45.60 49.63 49.68 52.14 54.17 56.62 56.72 58.32 61.33 63.64 64.76 68.11 67.36 67.79 67.27 67.43 67.41 67.14 67.95 68.99 68.89 69.48 69.43
36.79 33.30 39.26 40.58 40.17 38.45 37.02 34.84 34.91 38.27 41.48 37.57 37.49 37.83 40.24 40.85 41.28 42.20 42.85 44.14 43.58 43.06 46.33 48.79 53.17 55.02 56.28 56.90 56.93 58.38 59.59 61.30 65.91 67.59 66.17 66.83 66.28 66.47 67.19 67.09 67.03 68.58 70.40 70.09
34.82 38.57 42.94 41.14 39.21 37.81 36.82 34.58 34.91 35.50 39.46 38.94 37.06 36.49 38.09 41.61 41.46 43.15 43.87 44.16 44.00 44.42 45.75 49.67 53.71 54.56 54.97 55.86 56.96 57.74 58.62 58.46 60.07 65.61 67.07 66.32 65.74 67.11 64.80 65.77 66.19 66.98 68.17 69.62
36.85 41.86 40.54 39.33 38.03 38.47 33.50 40.80 41.10 39.54 35.04 29.23 36.87 29.15 36.64 38.85 39.27 41.51 43.00 42.18 42.99 43.31 45.40 46.94 52.42 52.71 53.90 56.15 55.86 56.71 57.43 57.86 58.48 61.09 63.21 64.90 64.52 64.08 65.16 64.93 65.37 66.22 67.14 67.54
37.66 38.33 37.97 37.32 39.11 41.92 37.82 42.77 40.30 39.18 34.27 29.28 32.13 27.39 35.76 36.02 36.86 39.07 41.05 43.06 43.96 45.11 43.88 46.13 50.60 53.38 55.11 53.95 54.33 54.34 55.04 55.48 56.06 56.07 58.50 59.58 59.64 61.47 62.24 62.64 63.62 65.31 66.00 66.71
40.47 42.76 41.20 40.05 42.21 43.30 43.85 39.31 37.26 35.28 30.83 25.60 32.25 31.24 33.82 36.11 37.61 39.24 41.38 43.46 46.19 45.97 45.90 45.24 49.79 53.52 53.13 52.16 52.29 53.36 53.16 53.31 54.36 54.82 55.59 56.26 56.81 57.11 57.94 59.19 60.36 61.74 63.42 65.42
38.29 39.11 41.32 44.69 39.53 41.08 38.10 31.93 24.74 23.66 23.08 26.16 33.36 30.39 32.24 38.51 41.04 41.01 41.44 42.38 43.76 45.10 44.26 44.39 46.94 49.98 51.66 51.57 51.95 52.99 53.14 53.17 54.61 55.13 54.68 54.69 54.85 55.39 55.56 56.70 57.62 57.40 58.24 59.58
31.25 30.50 39.92 44.90 40.31 36.70 34.17 33.27 25.69 19.85 22.58 26.53 33.24 26.88 32.49 39.99 42.84 44.56 44.72 43.41 44.48 43.29 42.66 43.80 48.50 51.11 52.80 52.81 52.50 53.26 52.48 52.28 54.60 55.61 55.31 55.54 56.30 56.80 56.74 57.05 57.16 57.01 56.57 57.04
30.73 32.99 42.04 44.22 42.89 40.66 35.09 31.15 34.39 28.14 28.12 24.38 28.11 32.54 38.04 41.32 42.00 44.18 43.77 43.45 42.64 43.06 43.56 44.83 48.56 51.52 52.51 50.61 52.24 52.04 50.91 50.67 52.61 53.90 53.65 53.90 54.40 55.47 56.57 57.28 57.49 58.12 57.92 60.30
35.73 29.45 39.74 42.42 43.19 41.03 36.73 38.51 27.48 27.86 23.92 21.30 24.90 28.53 30.59 36.33 39.24 41.57 42.91 43.13 42.79 43.77 43.05 44.32 45.52 46.75 46.80 48.55 50.28 49.61 50.70 50.95 51.99 52.92 53.44 53.99 54.44 55.64 56.28 55.94 55.93 56.38 57.34 58.41
37.44 33.18 34.02 38.18 35.95 32.93 32.43 31.14 31.01 30.99 29.91 25.32 19.83 24.65 37.14 39.32 41.04 40.20 41.26 43.31 43.67 43.73 44.43 45.26 47.63 47.64 48.06 49.61 48.32 49.37 50.22 50.88 51.19 52.26 52.97 53.63 54.14 54.77 55.93 56.35 56.96 57.52 58.25 59.63
38.55 34.09 29.29 33.25 37.35 39.66 35.66 32.26 31.54 22.99 22.46 30.17 25.81 26.83 40.78 40.16 40.12 42.43 42.57 44.34 46.67 47.51 44.82 46.11 48.82 48.54 47.65 45.89 45.78 48.34 49.41 50.00 51.49 51.95 52.24 52.82 53.70 54.52 55.15 55.98 57.29 58.17 57.84 57.74
39.33 31.84 27.21 28.38 31.22 34.13 32.95 35.21 34.04 33.01 30.50 26.59 24.24 26.15 39.95 39.53 39.56 40.81 41.47 43.28 44.06 45.65 45.01 46.64 48.16 47.69 49.02 47.98 46.19 46.66 48.50 50.56 50.70 50.32 50.48 49.65 50.00 50.32 50.87 52.37 53.79 55.93 55.52 53.95
41.82 31.45 29.96 25.92 28.34 29.93 28.08 32.97 34.54 31.85 26.01 26.92 28.19 30.68 35.85 37.69 38.76 40.32 40.87 42.40 43.45 43.39 46.49 46.89 47.61 47.67 48.61 49.10 48.26 48.51 48.00 49.09 49.58 49.98 49.95 50.35 50.84 51.42 51.65 52.81 53.26 52.22 52.88 52.18
35.23 29.21 30.83 32.15 33.49 33.64 32.83 33.24 33.86 30.52 31.88 27.97 31.15 31.35 33.92 38.05 38.76 40.26 41.88 43.67 44.65 44.68 45.81 46.24 47.34 48.35 48.19 49.48 49.65 49.61 49.92 48.06 48.14 48.77 48.57 49.85 50.96 50.56 50.67 50.84 51.00 51.59 51.25 51.80
33.25 28.41 30.25 29.42 34.28 33.62 31.69 33.71 34.04 33.84 33.57 33.13 34.00 32.62 38.52 41.09 41.19 41.97 41.87 43.18 43.33 43.99 45.89 46.17 47.51 49.50 49.95 49.71 50.11 50.41 49.91 49.18 48.99 48.58 48.29 48.73 49.18 50.17 50.67 50.78 50.30 50.02 50.51 50.25
30.76 28.17 26.92 24.73 31.84 31.32 26.80 31.20 34.78 35.71 37.34 37.16 32.54 37.45 41.21 39.99 41.08 41.49 41.48 41.62 43.35 44.48 45.35 46.19 47.05 47.64 48.06 48.61 49.22 49.72 50.03 49.35 48.76 48.21 49.55 49.76 49.59 49.90 49.34 49.63 49.15 48.58 47.87 47.66
29.43 27.97 25.68 24.05 26.79 20.85 30.15 40.04 39.76 36.91 39.30 40.05 39.63 40.20 40.91 39.53 40.83 41.09 42.52 41.70 43.00 42.79 43.32 43.51 44.48 45.57 46.34 47.74 49.09 49.03 48.64 48.78 47.92 47.84 48.56 49.46 49.49 49.40 49.37 48.62 48.24 47.49 46.45 46.33
32.93 27.85 22.89 19.80 19.27 27.56 32.79 38.09 37.18 34.99 34.24 38.88 37.73 38.73 39.18 39.98 38.38 37.37 42.53 45.15 41.44 41.32 41.86 42.63 43.99 43.76 44.40 44.68 44.90 45.50 45.91 46.25 46.61 47.27 47.61 48.63 49.06 48.23 47.78 46.72 46.07 45.35 44.50 44.58
35.85 33.38 28.03 21.72 23.08 18.97 31.38 38.91 41.47 39.93 29.71 39.69 39.31 37.68 36.38 36.04 29.95 32.88 38.40 40.26 41.24 42.04 42.93 42.80 43.10 43.74 43.10 42.37 43.06 42.76 43.47 44.04 44.70 46.42 47.70 48.53 48.53 48.67 47.63 46.86 45.73 45.07 44.74 46.05
32.37 33.45 26.15 23.11 26.23 29.04 37.23 39.16 40.60 27.16 27.39 36.07 36.98 36.54 35.63 34.67 36.60 39.18 40.84 41.05 42.89 42.30 42.55 42.85 42.60 42.71 43.28 44.40 44.13 42.22 43.08 42.64 44.26 45.52 46.55 47.86 48.58 48.02 47.28 45.85 44.89 44.47 44.64 45.52
31.07 29.38 28.76 31.69 27.38 22.46 38.68 36.84 30.32 34.36 36.82 37.75 37.76 37.97 37.42 38.45 39.47 40.20 41.04 39.48 40.11 41.82 43.33 42.37 41.49 41.93 42.11 42.76 42.30 41.72 42.23 43.94 44.63 44.75 44.73 45.57 47.14 47.58 48.09 45.15 44.60 44.68 44.59 44.89
30.30 35.05 26.34 30.54 26.64 34.48 37.08 36.24 38.23 38.34 37.10 38.44 38.75 39.74 38.88 37.94 38.80 39.58 39.09 39.13 39.26 39.70 39.67 39.44 38.68 39.98 41.89 42.51 42.71 41.85 43.19 44.34 44.78 44.23 44.33 45.06 46.12 46.68 46.89 45.29 45.10 44.88 45.17 44.96
34.47 36.37 34.67 32.38 33.37 34.65 36.57 38.70 39.81 40.60 39.53 40.40 40.96 40.95 41.23 39.58 39.82 39.39 39.72 38.52 39.20 40.06 38.79 38.68 39.11 39.80 40.29 42.22 43.05 43.18 43.69 44.75 44.56 43.64 43.69 44.23 44.29 44.85 45.42 46.23 46.25 45.73 45.54 45.74
34.58 34.91 30.75 30.75 33.08 35.89 38.05 39.60 39.79 39.81 40.76 40.76 41.19 41.19 40.78 40.31 39.69 39.64 39.25 38.57 38.57 39.41 39.28 38.84 38.45 39.41 40.05 41.54 41.81 42.67 43.60 44.51 44.66 45.33 45.86 46.50 46.74 46.58 46.64 47.01 46.45 46.79 47.83 47.45
34.78 34.20 32.82 31.85 34.76 34.71 36.27 39.22 40.06 39.24 39.48 40.60 40.41 40.10 40.60 39.84 39.25 39.37 39.25 37.22 38.22 38.45 38.91 38.07 37.10 38.53 38.88 40.10 41.22 42.25 43.69 44.83 43.73 42.68 43.45 44.24 45.13 46.37 47.20 47.36 47.21 43.70 44.37 43.80

GFSCGP_sfc_wetblb_084.txt.gz
Wetbulb
38.77 35.29 32.59 35.14 35.74 36.60 35.07 33.33 32.59 36.25 40.09 36.50 36.51 37.52 39.17 40.74 40.56 40.61 41.66 42.45 42.64 43.60 46.27 47.60 49.02 51.30 52.34 56.61 58.85 63.04 66.40 67.11 66.97 66.59 67.05 67.49 66.79 66.74 67.47 68.15 68.72 68.65 68.90 69.50
35.81 32.49 38.08 38.91 38.18 36.86 35.41 32.76 32.65 36.45 39.44 36.52 36.24 37.61 38.90 39.37 39.89 40.98 41.60 42.08 42.79 43.07 44.52 46.13 46.78 48.72 53.29 55.40 58.40 60.49 65.03 65.96 67.08 67.67 67.92 67.87 67.93 67.39 67.43 68.00 68.16 68.85 68.73 69.05
33.71 37.72 41.21 39.31 37.38 36.25 34.79 32.89 33.40 34.42 38.56 38.45 36.21 36.17 36.63 39.48 40.15 41.64 42.19 42.74 43.09 43.26 43.66 44.84 46.75 50.64 51.94 53.57 56.42 59.36 62.17 64.49 67.16 67.54 66.92 65.94 66.80 66.39 65.87 66.82 67.48 68.18 69.45 69.72
35.71 39.75 39.37 36.71 36.37 36.89 31.90 37.80 37.97 38.22 34.42 29.32 36.22 29.17 36.61 38.54 38.79 39.55 41.20 41.70 42.19 43.24 44.23 44.44 45.84 48.22 52.97 53.87 55.25 57.86 60.50 61.54 64.95 67.05 67.14 65.87 65.59 65.46 65.34 65.82 66.87 67.30 68.13 69.21
36.58 36.79 35.93 35.77 37.41 38.89 35.71 40.08 39.08 38.11 33.45 29.54 31.84 26.34 32.97 37.24 37.63 38.66 42.36 41.17 43.09 43.52 43.73 44.52 45.84 47.62 51.28 53.93 54.52 55.98 57.35 57.96 59.85 65.64 67.48 66.47 64.65 65.03 64.57 64.86 65.21 65.97 67.05 67.67
38.31 40.85 39.83 39.03 40.44 40.53 42.27 38.26 36.10 33.14 30.02 23.90 31.31 29.30 30.29 33.20 36.55 37.74 41.55 42.60 43.32 44.63 43.79 44.72 46.15 47.10 49.01 52.50 53.21 54.11 55.59 55.89 56.61 58.70 60.88 62.98 63.24 62.05 61.63 61.40 62.70 63.80 65.07 66.24
36.61 38.32 40.08 41.69 36.89 39.41 36.64 31.58 24.45 22.15 23.15 25.99 32.18 28.63 31.87 37.02 40.84 40.45 41.71 43.66 44.05 42.92 43.49 43.68 44.02 44.85 47.41 50.82 51.87 53.13 53.10 53.45 54.11 54.86 56.23 57.01 57.59 57.68 58.28 58.57 59.42 60.08 61.32 62.42
29.40 30.30 38.78 43.30 38.60 35.19 33.09 32.28 25.59 19.05 21.50 26.29 31.76 26.20 31.03 38.88 40.86 43.31 43.67 43.19 43.33 42.92 42.74 42.86 44.52 45.02 46.80 50.51 52.22 54.37 52.82 52.65 53.37 53.79 54.25 54.92 55.30 55.63 56.03 56.57 57.20 58.04 58.28 59.25
29.62 31.50 40.98 43.46 42.26 39.61 34.42 30.50 34.65 27.48 25.88 22.11 26.07 30.77 36.26 39.75 40.39 42.01 42.23 43.57 43.15 43.48 43.45 43.23 45.05 45.50 46.74 50.46 52.73 54.21 53.27 53.93 54.71 55.34 55.23 55.13 55.90 56.46 56.87 57.41 58.09 58.24 58.64 59.44
34.34 28.95 37.34 40.90 41.32 40.25 36.94 38.69 28.86 26.16 17.16 17.10 23.76 25.81 28.19 34.07 36.80 40.57 40.75 41.41 42.94 43.90 43.87 43.43 44.48 46.09 46.40 48.94 51.48 53.22 53.91 53.01 54.86 55.63 54.63 55.07 54.60 55.92 56.58 56.86 57.45 58.21 58.74 60.21
36.78 32.55 32.49 36.25 34.91 33.05 33.77 31.89 30.62 28.97 26.16 18.56 20.01 23.77 33.49 35.72 38.38 38.10 40.32 42.32 43.72 44.46 44.55 44.35 45.59 47.36 45.89 47.82 47.99 49.99 51.39 52.00 53.09 53.68 54.62 54.64 54.43 55.76 56.49 56.86 57.50 57.81 58.76 59.78
37.15 35.25 28.11 31.97 35.05 38.83 35.34 32.62 31.44 23.61 22.80 29.75 26.84 26.34 38.75 36.56 37.42 39.24 40.02 42.85 43.66 45.73 45.28 44.63 46.63 47.85 49.28 49.36 47.07 49.48 49.92 51.35 52.14 53.26 54.45 53.83 54.69 54.85 55.61 56.49 57.37 58.60 59.78 61.04
38.36 31.69 25.39 27.34 30.91 35.16 32.74 35.17 33.19 30.40 27.09 24.38 24.22 25.43 38.13 38.32 38.47 40.20 39.58 42.01 43.62 45.58 45.44 45.40 46.45 46.90 49.74 49.31 48.75 47.66 48.65 49.94 51.32 51.63 51.74 52.82 53.69 53.96 54.89 55.95 57.32 58.63 58.69 58.79
42.92 32.57 29.88 26.31 30.47 29.93 28.08 32.43 34.06 30.48 20.36 25.82 27.50 29.94 34.91 36.95 36.64 39.52 40.16 41.33 43.15 44.76 46.35 46.48 45.58 46.99 48.37 50.09 50.19 50.19 49.00 49.24 50.90 51.27 50.72 51.14 51.93 51.96 52.57 53.65 54.84 56.53 57.39 55.78
35.70 28.01 31.03 32.52 33.72 32.28 31.24 31.88 32.11 29.79 31.14 26.48 30.54 30.24 34.57 36.10 37.96 39.17 40.93 41.34 42.10 43.04 45.12 45.95 46.05 46.48 48.07 49.62 50.16 51.47 50.91 50.92 50.01 50.24 50.88 51.40 52.23 51.95 52.18 53.03 54.26 55.57 54.55 53.86
32.35 27.78 29.76 28.96 33.56 32.54 30.94 33.22 33.28 32.91 32.37 31.60 32.04 31.24 37.36 39.76 40.63 39.47 40.21 41.01 40.51 41.18 44.04 45.54 45.73 45.89 46.33 47.56 48.74 50.34 51.19 50.55 50.55 49.67 48.56 50.12 50.71 51.36 51.47 52.16 52.92 52.96 52.77 52.67
30.13 27.82 26.29 24.25 30.32 30.17 26.13 30.67 31.89 33.23 35.20 33.78 30.26 34.60 39.28 38.39 39.46 39.52 38.82 39.62 39.00 40.57 42.90 44.01 43.92 44.20 44.86 45.26 47.25 47.31 49.47 50.87 49.95 49.48 50.04 50.67 50.95 50.96 51.64 51.96 51.51 51.09 50.90 50.96
28.99 27.37 25.21 23.19 26.20 20.67 29.48 38.89 38.71 35.81 37.39 38.47 38.27 39.36 39.73 39.88 39.18 39.49 40.47 38.93 39.18 40.95 43.22 42.33 42.80 42.95 43.92 45.11 45.60 46.41 46.90 47.26 47.60 48.26 49.07 49.85 50.21 50.28 50.79 50.95 50.67 50.21 49.89 49.46
33.37 29.28 20.93 18.72 19.62 27.41 31.24 36.61 35.43 32.98 32.11 38.01 36.94 38.14 39.54 39.66 37.98 36.58 39.85 40.51 40.57 40.95 40.92 41.50 42.55 43.12 43.18 43.65 44.70 44.71 44.79 45.30 45.85 46.37 47.27 48.83 49.53 49.40 49.73 49.41 49.44 49.61 48.77 48.10
34.70 32.07 24.69 21.54 18.31 17.96 28.96 38.18 40.23 38.80 29.13 38.22 37.94 37.30 37.56 35.88 31.09 34.14 38.21 39.33 40.38 41.20 41.72 41.75 42.95 43.51 43.52 43.64 43.29 43.11 43.71 43.92 44.01 45.00 46.16 48.20 48.83 48.74 48.63 48.78 48.63 48.70 48.07 48.46
31.99 33.13 26.95 27.06 25.29 27.52 35.21 38.70 40.09 27.06 27.16 37.05 36.28 36.18 36.36 34.42 35.92 38.67 40.79 40.66 41.77 41.75 42.13 42.74 42.29 41.89 43.00 44.06 43.28 42.39 42.60 42.21 44.09 45.59 45.93 46.03 46.75 47.47 48.41 48.60 48.67 48.24 47.80 47.85
28.55 28.80 28.01 30.08 26.76 21.46 38.14 36.71 29.22 32.72 37.06 37.65 37.42 37.91 37.78 38.51 39.11 40.09 41.13 41.15 41.51 41.28 41.95 41.91 40.54 40.98 44.07 43.22 42.14 41.23 41.01 43.13 44.15 44.62 44.64 44.97 45.47 45.76 46.66 47.60 48.00 47.41 47.83 46.71
30.32 33.43 28.36 30.87 26.09 33.31 36.59 36.13 37.80 37.89 36.31 37.61 38.91 39.70 39.53 38.83 39.27 39.71 39.31 40.77 41.31 41.82 41.93 42.02 40.76 40.28 41.32 41.93 40.91 39.26 40.94 42.86 43.23 43.12 43.69 44.38 45.13 45.51 45.80 45.87 46.38 46.20 46.28 46.15
34.58 35.33 34.69 33.42 32.90 33.29 35.27 37.53 38.62 39.74 39.22 40.09 40.32 40.15 40.12 38.55 39.37 38.62 39.70 39.95 38.85 39.86 41.06 41.36 40.66 39.66 39.61 41.12 40.93 41.21 42.65 43.42 43.68 43.62 43.71 44.28 44.44 44.82 45.52 46.39 47.08 46.56 46.29 45.59
33.03 34.45 32.50 32.20 32.75 35.56 37.15 38.28 38.47 39.32 40.38 40.30 40.68 40.20 39.37 39.08 38.11 38.91 38.18 38.44 37.76 38.39 38.64 38.38 37.41 38.47 39.80 40.81 40.77 41.98 42.90 43.25 42.10 42.19 42.71 43.27 44.23 44.39 44.48 45.24 45.95 46.39 47.30 46.68
36.77 35.30 32.66 31.64 36.55 35.32 34.87 37.37 39.27 39.33 39.66 39.89 39.13 38.70 39.30 39.68 38.83 38.41 37.48 37.93 37.02 37.30 35.95 36.23 37.16 36.88 39.52 39.87 39.43 40.80 42.95 42.36 41.69 41.28 41.98 43.24 44.95 46.02 46.49 45.68 45.88 42.41 42.81 42.31

GFSCGP_sfc_wetblb_087.txt.gz
Wetbulb
44.68 43.03 40.50 42.86 43.36 42.22 40.75 39.21 38.94 42.06 45.10 42.08 43.46 44.17 46.00 48.70 48.76 48.84 49.71 50.43 51.20 52.12 54.58 55.54 56.28 56.96 57.10 59.91 63.04 68.56 71.29 72.45 72.14 71.31 70.62 70.62 70.54 71.22 71.98 72.79 73.01 72.77 73.18 73.37
42.48 40.07 44.45 44.92 42.92 41.21 40.28 39.63 39.60 42.74 44.45 42.78 43.77 43.39 46.69 48.09 48.15 48.95 49.41 50.07 51.06 52.56 53.77 54.99 56.68 58.07 57.65 59.47 62.51 64.65 68.74 72.28 71.81 71.05 70.72 70.90 70.61 70.86 70.76 71.30 72.45 73.03 72.49 72.87
40.80 42.50 43.91 42.45 41.71 40.29 40.95 39.46 39.98 39.93 43.01 44.95 43.44 42.00 44.25 46.88 47.62 49.19 50.05 50.81 51.32 51.31 52.08 54.26 55.46 56.86 58.39 59.38 60.92 63.06 66.21 70.67 72.33 72.24 70.95 70.90 71.37 70.67 69.42 69.60 70.26 71.51 71.66 71.62
41.76 45.16 42.39 41.74 40.73 42.03 38.58 43.16 42.08 40.76 40.14 36.79 42.85 34.53 42.50 45.31 45.91 47.15 49.01 50.48 50.20 50.57 51.90 52.97 53.90 55.82 57.71 59.55 61.25 62.04 64.92 68.47 71.27 72.62 71.63 71.16 69.80 68.60 69.78 70.05 70.60 71.25 71.98 71.82
41.66 41.54 41.04 40.68 41.92 43.11 41.22 43.20 42.38 42.35 40.71 39.23 40.02 37.18 40.76 44.81 43.63 45.97 47.81 49.17 51.18 52.18 52.44 52.21 52.77 54.13 55.33 57.78 59.00 62.19 63.15 64.98 69.19 71.71 72.35 71.37 71.18 71.00 71.44 71.06 71.41 72.47 72.16 72.20
43.41 45.29 44.06 44.12 43.95 43.97 45.32 43.24 42.19 41.00 39.94 33.36 38.87 37.98 39.05 41.47 43.31 45.07 47.55 49.46 50.33 50.89 51.89 52.80 53.59 54.56 54.92 56.31 57.31 60.51 62.63 63.60 66.18 69.45 71.02 71.83 71.83 71.23 69.98 70.58 70.58 71.08 71.89 72.02
42.75 42.93 45.46 44.94 42.33 44.86 43.69 40.56 33.96 32.40 32.48 31.86 39.56 36.50 39.11 43.83 45.82 46.14 46.71 48.59 50.11 50.97 51.31 52.20 52.58 52.93 54.16 54.87 56.36 58.72 61.31 62.58 64.50 66.81 69.79 71.14 72.13 72.40 71.00 70.78 70.35 70.43 69.79 70.15
36.66 34.97 41.80 45.23 43.00 41.71 41.71 41.11 34.90 27.42 29.95 33.20 39.32 33.01 39.13 44.97 46.86 47.58 48.54 49.76 49.62 50.27 51.59 51.92 52.89 53.12 54.47 55.78 56.15 56.49 59.06 61.52 63.14 64.50 67.54 69.34 69.79 69.45 69.27 69.40 68.79 69.08 69.18 69.62
35.74 35.64 43.53 44.89 45.14 44.33 40.39 37.72 41.55 36.12 35.59 31.77 35.57 38.90 42.37 44.72 44.72 46.49 47.46 47.65 48.19 49.91 50.99 51.89 52.93 53.84 53.72 55.36 56.68 56.70 58.17 60.46 62.34 63.03 63.62 63.64 63.30 64.12 64.03 65.29 66.25 65.89 66.64 66.31
40.81 35.16 40.69 42.84 44.93 43.77 42.03 43.66 35.94 37.42 27.24 25.67 32.54 33.52 34.31 39.37 41.97 44.99 45.33 46.43 47.89 49.88 50.99 52.18 52.41 53.70 54.59 55.36 57.00 58.25 58.60 59.44 61.54 61.16 61.05 61.43 62.20 62.92 63.95 64.31 64.24 65.03 65.54 65.67
42.11 39.24 38.13 41.07 39.93 39.12 39.42 38.80 38.16 37.23 35.22 28.14 26.64 32.00 41.08 41.33 42.87 43.02 45.10 46.61 47.95 49.04 50.43 51.69 51.79 52.40 54.99 55.36 56.01 57.05 57.75 58.88 59.68 60.21 61.26 61.49 61.27 61.69 62.59 63.78 64.53 64.93 65.36 65.64
41.65 39.53 34.38 36.71 42.58 42.07 40.94 40.49 40.36 34.15 30.65 33.72 32.47 31.09 43.14 43.46 44.18 45.32 45.06 46.57 48.52 49.37 49.89 51.94 52.28 52.03 54.34 55.04 54.82 56.17 57.32 57.20 57.69 58.70 57.87 59.63 60.11 61.61 62.43 63.46 64.42 64.93 65.03 65.37
41.99 36.82 31.49 33.33 36.88 39.72 38.56 39.51 40.13 38.23 37.16 31.74 29.00 32.10 43.35 43.48 44.18 45.30 44.87 46.61 48.28 48.70 48.82 50.25 52.04 52.07 52.78 53.92 55.09 55.80 54.74 55.44 56.85 56.66 57.10 58.45 58.24 59.92 61.78 63.14 64.00 64.62 65.23 66.23
43.53 37.39 34.32 30.40 34.25 37.63 34.78 37.38 39.38 38.14 33.10 33.10 33.53 35.30 39.47 41.87 42.43 43.92 45.47 47.10 47.71 48.07 48.07 48.13 50.42 51.04 51.36 52.16 53.65 54.48 54.53 55.74 54.75 54.81 55.64 56.98 58.01 59.35 60.07 62.03 63.36 64.18 65.37 65.39
40.89 32.90 35.52 36.54 37.50 37.72 36.23 36.13 36.95 35.99 36.73 33.12 35.55 35.79 39.45 41.75 42.77 44.10 46.39 46.86 46.50 45.99 46.18 46.60 48.15 50.03 50.32 50.55 51.23 51.72 53.55 53.40 53.75 55.04 55.27 55.80 57.97 58.67 58.46 59.71 61.59 63.49 64.47 64.52
39.53 33.72 35.64 33.06 35.67 35.63 33.39 35.18 36.27 36.91 37.22 37.06 37.21 36.15 42.75 44.58 45.90 45.15 45.83 46.08 44.96 45.19 45.63 46.35 47.75 49.59 49.37 49.74 49.81 50.49 51.06 52.20 53.15 54.13 53.46 54.57 55.23 56.05 56.22 58.37 58.88 60.93 62.29 62.82
36.51 35.11 32.65 27.90 33.25 33.41 29.04 34.10 35.71 36.49 38.10 37.46 33.43 39.37 44.48 43.70 44.17 45.23 45.73 45.28 44.45 44.67 44.98 45.42 46.89 48.31 49.66 49.34 49.45 49.46 50.19 51.13 50.37 50.48 51.29 52.89 53.73 54.58 54.88 55.85 56.73 58.50 60.17 61.12
35.16 33.73 33.73 28.64 31.05 22.38 33.96 42.02 40.94 38.50 39.84 41.73 41.72 43.08 44.08 44.01 45.12 45.14 45.90 44.75 44.28 44.58 44.87 45.73 46.66 47.01 47.92 49.09 49.22 49.51 50.00 49.90 49.76 49.58 49.95 51.09 50.91 51.98 54.13 55.49 56.11 57.60 59.09 58.79
37.55 35.47 31.24 27.64 28.15 31.99 35.58 38.44 38.20 36.43 37.24 42.02 41.22 42.42 43.09 43.54 43.19 41.90 45.11 45.60 44.67 44.91 45.57 46.03 46.83 47.09 47.44 47.85 48.84 48.68 48.32 49.01 49.06 48.86 49.82 50.30 50.95 51.50 52.45 54.02 55.60 57.27 57.56 57.17
36.20 37.62 33.17 29.20 24.94 24.28 34.59 40.46 42.06 41.08 32.71 41.67 41.53 40.00 39.59 40.35 32.87 38.06 44.20 44.92 44.57 45.23 45.49 45.57 46.51 47.00 47.13 47.65 48.50 47.17 46.90 47.61 47.76 48.73 49.20 50.21 51.00 51.21 51.38 53.19 54.21 55.78 56.18 56.27
32.79 31.67 28.89 28.88 28.26 32.25 38.86 40.97 42.23 31.30 33.92 40.87 41.08 40.27 39.75 36.72 39.36 42.56 43.61 43.21 43.98 43.65 44.92 45.61 46.45 46.27 46.89 47.76 47.14 45.66 46.24 46.27 48.42 49.00 49.07 49.08 49.98 50.42 51.15 52.11 53.08 53.51 54.05 54.44
33.37 32.41 30.82 31.35 28.96 26.66 41.24 41.15 34.76 39.90 41.74 41.36 40.79 40.42 38.80 39.50 39.94 40.19 40.80 41.21 41.80 41.83 43.15 43.40 42.91 45.22 47.03 47.50 46.48 44.69 45.59 47.68 48.13 48.08 47.79 47.86 48.86 49.52 49.87 50.32 50.92 51.77 52.32 52.34
33.25 37.27 34.26 34.66 35.59 39.54 42.60 40.67 42.84 42.70 40.47 40.41 39.80 40.49 39.82 39.03 38.52 39.23 38.91 39.84 40.19 40.83 41.95 43.33 41.87 44.36 44.26 45.60 46.54 44.38 45.18 46.23 46.59 46.08 46.05 46.94 47.62 48.30 49.05 49.27 49.32 49.46 50.50 50.38
38.14 40.05 37.03 36.50 39.02 40.46 41.11 42.99 42.63 41.84 40.63 41.13 40.65 40.64 39.82 37.77 38.14 38.10 38.67 38.81 38.44 39.39 40.49 39.96 41.36 41.58 40.49 42.47 44.36 44.55 45.73 45.64 45.26 44.70 45.24 46.45 46.37 47.12 48.50 49.12 49.30 49.07 49.25 49.70
38.63 39.86 36.29 36.06 39.26 39.56 41.06 41.55 41.09 40.76 40.80 40.65 40.53 40.11 39.38 38.71 38.08 38.26 37.64 37.64 38.00 38.22 38.62 40.16 39.25 38.91 38.60 40.70 40.91 42.09 43.57 44.51 43.78 44.29 44.98 45.20 45.61 46.62 47.38 48.45 48.72 48.93 50.20 49.54
40.43 36.98 35.33 33.87 38.33 36.70 38.28 40.75 41.30 39.93 39.41 40.20 39.62 38.99 39.39 38.96 37.75 37.88 36.96 37.36 36.66 36.82 37.63 37.19 37.26 38.25 39.04 40.13 40.46 41.66 44.00 43.71 42.44 41.46 42.98 43.39 43.65 44.35 44.63 46.20 47.38 42.66 42.89 41.79

GFSCGP_sfc_wetblb_090.txt.gz
Wetbulb
49.89 46.11 43.94 46.16 46.71 46.11 44.44 43.44 43.01 45.63 47.91 46.78 46.49 46.95 48.80 51.15 51.52 51.42 52.37 53.13 53.90 54.67 56.79 57.99 58.91 60.21 61.57 63.42 65.29 66.46 67.24 74.39 75.19 74.41 73.76 73.57 72.83 73.83 74.04 75.06 75.90 75.15 74.83 74.11
46.44 43.32 47.54 47.95 47.06 45.05 44.31 43.19 43.57 46.22 47.75 46.98 46.44 46.26 49.14 50.62 51.11 51.85 51.85 52.44 53.30 54.57 55.71 57.09 58.39 59.54 60.54 62.24 64.58 66.77 67.15 70.03 74.30 74.24 75.23 74.66 74.29 73.82 73.73 73.96 75.73 75.21 74.93 75.00
44.73 45.84 46.94 46.73 45.50 44.04 44.35 43.38 43.97 43.64 46.45 47.49 46.19 45.09 47.78 50.35 51.41 52.37 52.97 53.81 54.46 54.60 54.73 56.26 57.25 58.37 59.28 60.34 62.07 63.89 66.59 68.52 71.36 74.05 73.99 74.54 74.36 73.64 72.51 72.48 73.00 74.58 74.66 75.05
45.65 48.24 45.84 44.86 43.86 45.42 42.13 46.63 45.30 44.18 43.60 40.68 46.99 38.94 46.19 48.86 49.41 50.76 52.26 53.51 53.35 54.07 55.25 55.99 56.89 57.85 59.03 59.26 60.50 61.73 65.98 67.30 68.55 72.95 71.77 73.52 71.39 70.41 72.08 72.89 72.94 73.49 74.03 73.75
44.01 44.97 44.62 43.63 44.82 46.88 44.32 47.00 45.77 45.38 44.02 43.90 43.99 41.59 45.46 48.41 47.01 49.85 51.40 51.66 52.84 54.18 54.72 55.05 55.93 57.60 58.82 59.80 60.04 61.59 64.38 65.49 67.72 69.95 73.69 71.92 72.67 71.67 72.81 72.80 74.69 74.51 74.80 74.12
47.16 49.04 47.10 46.97 47.51 47.14 48.05 45.93 46.24 46.44 44.62 38.31 43.17 42.39 43.01 46.16 46.74 49.29 50.93 51.03 51.80 53.34 54.28 55.01 56.79 57.81 58.36 59.97 60.69 61.39 62.54 64.52 66.23 67.65 71.33 73.96 73.97 73.85 72.08 73.11 72.54 72.45 73.02 73.03
45.81 46.14 48.66 48.56 45.48 48.09 46.90 44.40 38.33 37.55 38.47 37.58 45.28 41.75 43.75 48.00 49.34 49.53 48.90 49.70 52.32 53.59 53.75 54.44 55.45 56.22 57.81 58.81 60.21 61.43 61.92 61.70 64.76 66.36 67.80 71.45 74.11 75.56 75.07 74.52 72.49 73.03 72.35 72.42
41.15 39.54 46.24 47.91 46.39 45.00 45.89 45.23 39.14 32.11 35.25 38.76 44.13 38.84 43.49 48.53 50.56 50.49 49.86 51.34 52.09 52.67 53.37 53.85 55.24 56.61 57.42 58.43 59.60 60.45 61.66 61.96 62.60 64.72 66.72 69.42 72.21 72.04 72.94 74.16 72.88 72.60 72.56 75.55
40.66 40.49 46.44 46.97 48.34 47.34 44.73 41.58 46.65 40.80 41.88 37.68 40.62 44.12 48.01 48.73 47.43 47.41 48.75 50.06 50.49 51.94 53.07 53.54 54.79 56.48 57.27 58.23 59.56 59.99 61.21 62.45 62.75 63.52 65.95 67.65 71.03 72.24 72.74 74.54 73.84 72.98 75.23 73.53
44.36 39.03 46.01 45.93 47.56 47.34 45.11 47.56 40.37 41.16 31.86 30.78 38.20 39.79 40.43 44.45 45.18 46.03 47.34 48.42 50.38 51.49 52.28 53.63 54.53 56.03 57.28 58.37 59.48 60.39 61.80 62.16 62.66 63.39 65.51 67.27 69.87 71.10 71.37 71.75 71.79 71.50 71.28 70.65
45.10 42.51 42.42 44.63 42.62 42.06 43.19 41.57 42.39 42.10 39.88 33.04 31.85 37.56 45.10 43.60 46.05 46.18 47.40 49.18 49.76 50.44 51.54 53.08 54.01 56.20 57.27 58.33 58.87 59.22 61.36 61.39 62.03 63.45 64.84 65.56 66.02 66.12 66.44 65.79 66.01 67.28 67.87 67.50
45.00 42.28 37.80 41.11 46.37 46.48 44.81 42.51 42.40 37.37 35.96 38.14 36.80 37.18 47.74 46.44 46.70 47.00 47.78 49.10 50.13 51.83 52.70 53.60 53.90 55.59 56.62 57.25 57.97 58.89 59.26 60.09 60.58 61.28 63.65 63.31 63.44 63.64 64.85 64.80 65.42 66.40 66.31 66.70
45.26 40.27 35.54 38.03 42.41 43.99 41.12 43.07 43.60 42.60 41.17 36.26 34.19 37.50 46.91 47.30 47.22 48.61 48.49 49.12 49.91 51.83 52.62 53.07 53.29 53.49 54.95 55.66 56.58 57.16 58.92 58.41 58.12 58.86 60.80 60.85 62.62 62.63 64.56 65.27 65.93 65.75 65.72 65.33
45.15 41.18 37.48 34.34 38.32 40.91 37.69 40.10 42.05 41.10 36.95 37.44 37.75 39.99 43.24 45.55 46.31 47.58 48.27 49.64 50.51 51.73 52.01 52.28 52.24 52.59 54.07 54.67 55.30 55.57 55.90 59.05 57.59 57.91 58.48 58.98 59.57 61.86 63.02 64.31 65.12 65.78 65.76 65.45
42.51 36.59 39.62 40.23 40.83 40.50 39.09 39.04 39.98 38.85 40.36 37.09 39.62 39.82 43.19 45.51 46.29 47.24 49.39 50.04 50.41 50.85 51.26 51.22 51.54 52.15 52.92 53.97 54.63 55.26 55.14 56.22 58.23 56.13 55.35 57.90 59.39 59.72 60.89 63.40 63.98 64.21 65.23 64.43
42.20 36.72 38.76 35.84 39.49 39.17 36.95 38.32 39.52 40.04 40.36 40.17 40.39 40.17 46.29 47.49 48.16 48.53 49.27 49.60 49.57 50.20 50.50 50.79 51.18 51.26 51.45 52.88 53.60 54.02 54.93 55.00 56.30 55.39 53.83 55.91 57.94 58.52 58.78 59.12 61.84 63.48 63.99 64.97
38.54 37.84 35.31 32.21 37.41 36.24 32.63 37.68 39.27 39.65 41.00 40.43 37.14 42.09 45.99 45.90 45.75 47.20 48.85 49.22 48.86 49.11 49.68 50.06 50.61 50.88 51.63 52.17 52.79 52.45 53.68 55.18 54.98 54.68 53.49 53.65 55.13 56.30 57.22 58.30 59.03 61.23 62.89 63.23
38.35 37.30 36.81 32.57 35.30 26.10 38.33 43.00 43.28 41.89 43.13 44.45 44.36 45.33 46.47 46.16 47.40 47.06 48.34 47.40 47.59 48.56 49.42 50.09 50.18 50.63 51.50 52.36 52.42 52.65 52.99 52.99 53.35 54.16 53.82 53.58 52.81 53.13 54.81 56.10 57.99 60.19 62.07 62.75
42.11 38.25 33.41 30.26 30.17 35.63 38.82 41.33 41.13 40.13 40.26 45.04 44.45 45.51 45.83 46.38 46.29 45.54 47.46 48.13 47.84 47.58 48.18 48.48 49.61 50.33 50.96 51.13 52.08 51.74 51.63 51.99 51.89 52.05 53.35 53.71 53.60 52.74 53.15 52.10 55.40 58.02 59.57 61.26
40.55 39.53 35.30 33.30 28.43 26.32 38.02 42.39 45.20 45.01 36.20 44.91 44.86 44.43 43.86 43.66 37.04 40.85 45.45 45.20 45.33 46.22 46.65 46.49 46.69 48.37 48.98 49.17 50.19 49.63 49.89 50.99 50.53 51.28 52.34 53.83 52.31 52.36 52.65 53.54 54.63 57.98 58.82 59.32
34.62 34.81 31.82 31.86 31.63 35.68 42.66 43.80 45.71 32.69 36.31 45.11 45.31 44.28 43.08 39.35 41.46 42.92 43.20 43.12 44.34 44.76 44.32 45.20 45.01 45.94 46.22 47.76 48.77 47.84 47.98 48.42 51.01 51.72 51.92 52.79 53.79 53.63 53.76 55.53 55.24 54.62 56.95 58.52
35.33 34.08 33.36 34.94 31.10 29.59 44.57 43.83 36.78 42.71 45.38 43.93 43.11 43.13 40.78 41.48 41.20 41.01 42.07 41.34 41.59 41.27 42.17 42.86 42.47 42.97 45.75 46.60 47.18 45.48 45.01 48.89 50.39 49.77 51.28 52.06 52.66 52.48 52.82 53.89 54.63 54.64 55.74 55.97
34.91 39.38 37.87 37.68 39.00 45.37 46.83 44.26 46.85 45.57 42.99 43.51 41.57 42.96 42.30 40.07 40.55 41.82 40.61 40.38 40.23 40.52 41.12 42.37 42.54 43.68 42.93 43.20 44.72 43.85 45.42 47.93 47.97 47.98 48.85 50.41 51.61 51.75 52.18 52.32 53.00 53.36 54.50 54.27
40.70 43.49 40.20 39.09 41.91 43.13 45.03 46.73 46.49 45.45 42.84 43.26 43.32 41.88 41.43 40.74 40.85 38.97 38.98 38.69 38.87 39.55 39.20 40.04 40.40 39.60 42.02 43.66 42.45 45.11 45.92 46.31 46.70 46.01 47.10 48.07 49.08 49.59 51.09 51.40 51.90 52.13 52.67 53.21
40.59 42.20 39.78 40.32 42.68 43.63 44.52 45.47 45.56 44.42 44.23 42.14 42.90 42.45 41.48 39.79 38.48 38.36 37.60 37.29 37.08 37.22 37.96 38.74 38.13 38.25 39.22 40.82 42.72 42.63 44.21 46.05 43.21 45.28 46.24 46.27 47.97 47.66 49.11 50.80 51.17 51.72 53.51 52.33
42.15 39.96 38.73 37.41 42.67 42.04 42.52 44.18 43.93 41.42 41.49 42.75 42.01 41.14 40.99 39.55 38.10 37.47 36.00 36.70 35.96 35.24 36.08 36.39 37.47 37.53 38.47 39.52 39.48 40.69 43.08 43.50 43.17 43.70 44.73 45.87 46.21 45.93 46.41 47.24 49.12 43.60 42.56 40.74

GFSCGP_sfc_wetblb_093.txt.gz
Wetbulb
51.72 47.76 45.55 47.23 48.42 48.27 47.26 45.97 45.67 47.45 49.25 48.01 48.16 48.53 50.08 52.38 52.61 52.90 53.59 54.27 55.16 55.65 57.52 58.42 59.51 60.37 61.12 63.41 65.03 67.61 68.37 71.91 71.70 72.85 73.13 74.06 73.70 74.94 75.76 76.39 76.69 76.24 76.43 75.72
49.25 45.58 49.26 49.94 49.08 47.69 46.63 45.15 45.14 47.66 49.36 48.89 48.25 47.96 50.60 51.89 52.29 53.25 53.48 54.07 54.65 55.49 56.39 57.67 59.22 60.52 61.24 62.67 66.56 67.86 68.65 70.60 70.54 68.93 74.08 73.96 74.97 74.67 76.04 76.59 76.89 77.83 77.21 75.73
46.61 48.75 49.75 48.31 47.70 46.28 46.61 45.19 45.68 45.66 48.63 49.53 48.01 46.36 48.27 51.40 52.85 53.54 54.15 54.68 55.16 55.43 56.01 57.35 58.36 59.61 60.56 61.32 64.21 65.28 68.59 70.56 71.14 72.22 69.73 73.71 75.96 75.57 73.75 74.74 75.77 75.65 76.75 76.70
48.43 50.49 48.33 46.74 46.13 47.48 44.12 48.27 46.90 45.88 44.90 41.49 48.99 41.14 48.16 50.70 51.47 52.86 54.01 54.79 55.11 55.79 56.35 57.07 57.57 58.61 59.51 60.34 61.60 63.00 66.81 67.68 67.93 72.00 68.69 70.09 69.01 71.15 72.56 73.22 74.85 76.33 76.82 76.08
46.42 46.86 46.41 45.91 46.37 48.02 45.28 48.70 47.41 46.85 45.47 45.41 45.35 43.40 46.89 50.70 49.75 51.74 53.16 54.90 55.06 55.91 55.38 56.07 56.96 57.83 59.04 59.97 60.93 62.81 67.19 68.79 68.80 69.36 70.89 68.08 68.92 69.44 71.84 73.05 74.75 76.27 75.97 76.25
47.77 50.85 48.68 47.96 48.91 48.70 49.37 47.60 47.47 47.49 45.84 40.13 44.96 44.53 45.27 47.99 49.87 51.86 53.84 53.73 54.21 54.18 54.90 56.47 57.25 58.15 58.66 59.74 60.55 61.99 64.61 67.28 67.99 68.45 69.23 71.10 70.61 71.48 71.33 72.04 72.21 74.25 73.26 75.22
45.33 46.70 49.62 50.01 46.87 49.30 48.13 45.47 39.55 39.00 39.65 39.42 47.52 45.20 46.94 50.63 51.94 51.95 52.41 53.22 53.35 54.14 54.88 55.12 55.37 55.92 57.33 58.55 59.70 60.68 61.92 63.41 65.67 66.77 67.71 68.86 70.35 72.74 72.74 73.15 72.82 73.47 73.11 73.72
41.48 40.16 46.59 49.82 47.65 45.80 46.75 46.06 39.91 33.87 36.20 40.22 46.57 42.05 46.39 51.95 52.75 53.41 53.81 52.76 52.99 53.91 54.46 54.53 55.16 55.84 56.30 57.74 58.98 59.66 60.61 62.02 62.74 64.16 66.63 67.94 69.79 68.59 71.74 73.10 73.17 73.57 73.54 74.68
40.48 41.31 48.90 49.57 50.04 49.14 46.05 43.26 47.79 42.61 43.65 39.59 42.69 46.48 50.47 52.46 51.94 51.26 50.31 51.13 52.27 53.12 53.42 53.99 54.53 55.81 56.66 57.45 58.81 59.98 60.69 61.35 62.72 63.34 66.60 67.55 68.67 70.58 70.03 72.80 73.03 72.78 72.31 73.59
44.98 39.08 47.35 49.04 49.59 49.55 46.89 48.94 40.92 42.69 34.19 32.92 39.58 42.20 43.08 46.97 48.16 49.96 49.09 50.14 51.18 52.15 53.05 53.48 54.34 55.71 56.54 57.53 59.11 60.17 60.73 60.46 62.34 63.37 64.49 65.11 67.58 69.52 70.93 73.05 72.23 71.78 72.59 71.86
46.15 41.66 43.05 47.42 45.23 44.16 44.73 44.08 44.55 43.79 41.29 35.23 33.43 38.99 49.30 47.16 49.08 49.40 50.28 50.80 50.88 51.85 52.48 53.08 54.81 56.12 56.28 57.54 58.17 59.45 59.82 60.39 60.95 62.21 63.84 65.10 66.37 67.74 69.93 70.49 71.50 72.06 71.77 70.50
46.71 43.42 39.31 41.77 47.52 49.34 47.83 45.16 44.25 39.33 38.04 41.25 40.26 39.56 50.81 51.01 49.85 49.61 49.29 50.39 51.65 52.57 52.71 53.59 54.96 55.62 55.58 56.23 57.47 57.96 59.34 59.36 60.44 60.38 61.45 61.75 62.07 66.09 67.91 68.69 69.35 70.33 68.92 70.22
46.89 40.86 37.22 39.85 44.72 46.82 43.86 45.23 44.82 43.96 43.38 39.15 36.89 39.53 49.64 49.53 49.43 50.53 50.08 50.81 51.56 52.10 52.57 53.45 54.28 54.74 54.58 55.13 56.49 57.07 58.08 58.35 59.73 59.97 59.71 60.47 61.14 63.53 65.00 65.52 66.33 66.51 66.82 66.57
46.99 43.10 39.63 36.33 39.87 42.33 40.08 42.37 44.17 43.13 39.35 39.06 39.54 41.17 46.31 48.31 49.34 49.52 50.04 51.10 51.17 51.67 52.54 53.56 53.98 54.24 54.44 55.04 55.30 56.34 56.85 57.94 58.39 59.60 58.84 58.58 59.66 61.40 64.06 64.42 65.84 65.63 65.19 64.71
43.96 38.55 41.03 41.51 42.89 42.93 42.17 41.34 42.25 40.76 41.58 37.55 40.96 41.15 44.55 47.26 47.68 48.82 50.23 50.71 51.15 51.35 51.99 52.33 52.67 54.00 54.27 54.36 54.60 55.30 56.49 56.68 57.61 57.22 58.59 57.64 58.48 58.55 60.00 62.57 64.49 65.52 63.32 64.72
44.18 37.68 40.89 38.12 41.37 42.16 40.31 42.12 42.63 42.38 42.18 42.40 42.42 41.64 47.12 48.18 48.87 48.77 49.96 50.72 50.61 50.71 51.01 52.27 52.73 52.99 52.90 53.84 54.14 54.21 55.00 55.41 56.63 56.22 56.42 58.49 55.63 55.08 56.24 58.87 61.01 63.08 63.89 63.80
39.98 38.59 37.21 35.39 40.61 40.37 36.45 40.73 41.71 42.40 43.57 42.70 39.12 43.99 48.33 47.48 48.30 49.17 49.55 49.96 49.31 49.65 49.98 50.40 50.88 51.66 53.18 53.36 53.91 53.44 54.50 55.17 54.65 54.94 55.85 56.73 57.40 54.02 53.92 55.16 57.35 60.31 62.54 64.58
37.77 38.00 38.32 34.88 37.07 28.63 40.82 45.14 44.26 42.64 44.23 45.88 45.86 46.76 47.38 47.52 48.35 48.28 49.58 49.28 48.74 48.93 49.17 49.31 49.98 50.58 52.55 52.93 53.18 53.02 53.27 53.95 53.98 53.70 54.14 54.86 56.38 55.72 54.92 54.71 54.96 58.11 61.50 62.63
40.08 38.37 35.55 33.63 33.32 37.73 40.03 43.49 42.42 41.42 41.36 46.46 45.43 46.65 46.98 47.27 46.21 47.15 49.65 48.32 47.69 46.88 46.94 47.74 48.50 48.79 49.89 48.82 50.00 50.64 51.27 51.19 51.78 52.59 53.33 54.04 54.48 55.73 55.45 55.25 54.50 54.97 57.13 60.79
42.18 40.01 35.10 35.14 31.18 28.62 39.35 44.55 47.08 46.05 36.98 46.70 45.37 44.41 44.18 45.74 40.05 43.67 47.33 47.14 46.83 47.16 46.71 46.15 46.60 46.84 46.82 46.41 47.91 48.23 48.81 48.52 49.22 51.55 52.51 54.27 54.53 54.43 55.53 56.47 56.18 54.73 56.48 57.35
36.42 37.32 34.96 34.56 33.25 36.95 44.13 45.91 47.24 35.19 37.80 45.68 46.30 45.93 44.84 42.05 43.84 45.29 46.90 46.31 45.98 45.15 44.00 44.61 43.02 43.55 45.15 45.20 46.10 44.56 46.28 46.08 48.61 50.58 52.04 52.99 55.05 54.80 55.56 56.84 57.20 56.34 55.42 56.65
36.52 35.35 34.79 36.10 33.25 30.92 46.91 45.79 38.65 44.24 46.86 46.65 45.83 45.34 43.86 44.27 44.55 44.56 44.56 44.66 43.05 41.59 42.13 42.88 41.91 42.02 42.96 45.54 44.90 45.27 42.84 46.68 47.13 48.69 49.84 51.24 53.20 54.28 53.29 56.10 56.44 55.89 55.92 55.66
36.57 40.91 37.94 38.65 39.28 46.73 46.34 46.47 47.39 46.42 44.41 45.95 45.07 45.50 44.50 42.86 43.01 43.49 43.21 41.30 40.38 40.37 40.14 40.62 40.03 39.92 41.10 42.91 43.75 41.22 44.54 47.41 46.35 46.63 48.15 48.87 50.68 52.28 53.39 53.12 54.44 54.73 55.39 53.85
42.64 44.67 40.78 41.10 43.38 44.20 47.09 48.63 46.87 46.67 46.33 46.33 45.41 44.17 44.19 42.57 42.31 41.09 40.76 39.60 38.77 38.41 38.24 38.85 38.05 37.30 37.86 40.61 42.05 42.80 44.12 45.18 45.33 45.44 46.40 47.63 48.87 49.64 51.56 51.53 53.28 52.64 52.95 53.90
42.31 43.54 41.79 41.96 43.84 45.57 46.59 46.84 45.96 46.49 46.26 45.05 45.13 44.38 43.06 42.63 40.43 39.58 37.62 36.73 36.54 36.80 37.46 36.88 36.43 36.34 37.17 39.18 40.21 42.19 44.56 45.66 44.05 45.88 45.96 46.30 49.19 48.22 48.23 50.99 51.22 52.88 55.73 53.24
44.17 41.82 40.39 38.29 44.87 42.43 44.14 46.00 47.36 45.46 44.18 44.68 43.96 42.25 43.32 41.29 39.01 37.70 35.61 35.76 35.27 34.80 35.65 35.35 35.91 36.01 36.85 38.15 39.46 41.47 42.69 43.49 43.95 42.92 44.98 45.58 48.02 47.95 48.17 48.76 50.50 45.35 43.04 42.24